GFSSE_700_spd_000.txt.gz
Wind_Speed
11 10 10 12 12 10 7 5 4 5 4 4 3 3 2 3 2 2 1 2 3 3 3 5 5 6 8 9 10 10 9 8 8 8 6 5 4 4 5 7 8 10 11
9 11 12 12 11 9 7 4 4 4 4 5 5 4 3 2 2 2 2 2 2 3 5 6 7 7 9 9 10 10 9 8 7 5 4 4 5 6 7 9 11 11 12
10 11 14 13 9 7 5 3 3 5 5 7 5 3 2 2 2 2 2 3 3 5 7 7 8 9 10 11 11 10 8 7 6 5 4 4 5 7 8 9 10 13 14
13 12 14 14 10 7 3 2 3 4 4 5 2 3 2 2 2 3 3 4 5 7 8 9 10 11 11 11 10 8 7 7 6 5 5 5 7 8 9 10 11 13 15
15 13 11 14 11 8 4 2 2 2 3 2 2 3 3 3 4 5 5 6 7 8 9 10 11 12 12 11 10 7 7 7 7 5 5 5 7 8 10 12 13 14 14
15 14 14 13 9 7 4 3 3 4 3 4 4 5 5 6 6 7 7 8 9 9 11 12 13 13 12 11 10 8 8 8 8 7 6 7 6 7 10 13 13 14 15
15 14 14 12 10 7 5 5 6 6 5 7 7 7 8 8 8 8 9 10 10 11 12 13 13 13 12 11 10 9 9 9 9 9 8 7 8 7 10 11 13 13 13
15 15 13 12 9 7 6 7 8 8 8 8 9 10 11 10 10 10 10 11 12 12 13 13 13 13 13 12 11 11 10 10 10 12 10 8 8 8 10 12 14 14 13
14 16 14 12 10 8 9 9 10 11 12 11 12 13 14 13 13 12 11 12 13 13 14 14 15 15 15 14 13 13 13 12 12 13 13 10 9 8 10 11 14 15 14
14 15 15 13 13 11 10 11 13 14 15 16 16 16 16 15 16 14 12 13 13 14 14 15 16 16 16 15 15 15 16 16 15 15 15 12 11 10 10 11 13 14 14
14 14 15 15 13 12 11 13 15 16 18 19 20 18 18 16 16 14 14 14 14 14 15 16 16 16 16 16 17 18 18 18 17 17 17 15 13 12 12 13 13 13 13
15 15 15 15 15 15 14 14 15 16 17 18 17 17 17 16 15 14 14 14 15 15 16 17 18 17 17 18 19 19 20 21 20 19 19 18 16 15 14 14 15 14 14
17 16 16 17 16 15 16 16 17 15 17 16 16 16 16 16 16 16 15 16 15 16 16 17 18 19 20 20 20 22 23 24 23 22 21 21 19 18 17 16 16 17 17
18 19 20 20 20 19 18 18 17 18 17 17 17 17 17 18 17 17 19 17 17 16 17 16 18 19 20 23 23 24 26 26 26 26 25 24 23 22 21 20 19 19 19
21 23 23 23 23 23 21 20 20 20 21 20 20 21 21 20 19 20 20 20 19 20 18 17 18 18 20 23 25 26 28 29 29 29 29 28 27 27 26 24 23 23 23
25 26 27 28 27 27 26 24 23 23 23 23 23 23 23 23 23 23 21 22 22 21 22 21 19 21 22 23 25 27 29 31 33 34 33 33 32 31 30 29 28 28 27
28 30 32 33 30 31 30 30 28 25 24 24 24 26 26 26 26 27 25 24 24 24 24 24 23 24 24 25 26 28 30 31 34 36 38 37 37 35 35 34 33 32 32
32 34 34 34 35 32 32 31 31 30 28 25 23 25 27 27 27 27 26 25 26 25 26 26 25 26 27 29 30 31 32 33 34 36 39 40 41 40 39 38 37 37 37
29 28 30 33 35 35 32 34 34 32 31 30 28 26 25 27 28 27 27 27 27 28 27 27 27 28 29 30 32 33 34 35 35 36 38 40 42 42 43 41 41 41 40
27 24 26 29 33 36 34 34 35 36 34 33 31 30 32 33 32 29 28 30 32 31 29 29 31 31 31 32 34 34 34 35 36 37 37 38 39 42 44 43 43 44 43
17 19 20 24 27 31 34 33 34 36 36 36 35 34 35 36 36 32 31 33 34 35 34 33 34 33 32 32 35 34 35 36 36 35 36 37 39 39 41 42 43 45 45
12 15 17 20 24 29 31 32 31 30 34 37 36 37 36 36 36 35 35 36 36 37 37 37 37 36 34 31 34 35 36 35 35 35 37 37 37 38 38 38 40 41 42
15 16 17 18 19 22 28 29 29 30 31 32 34 34 32 33 33 36 38 39 38 40 40 39 39 40 39 34 33 33 38 40 38 36 36 36 36 36 37 37 37 37 37
15 14 14 15 16 17 21 24 24 29 31 30 33 35 35 36 38 39 40 40 40 41 42 42 42 41 40 36 36 35 37 38 40 43 37 36 36 36 36 38 36 36 37
14 16 16 17 16 16 16 18 23 28 31 32 35 36 36 39 41 41 39 39 41 42 42 43 43 43 39 38 37 39 40 39 39 42 44 38 41 36 36 36 37 37 35
17 19 20 19 18 17 17 18 22 27 30 31 32 34 35 36 38 38 37 36 37 40 42 40 41 40 39 40 40 41 43 43 43 42 43 41 42 40 40 39 38 37 36

GFSSE_700_spd_003.txt.gz
Wind_Speed
13 12 12 13 13 10 9 10 7 4 3 0 1 1 1 2 1 1 2 2 2 3 3 3 4 6 7 9 9 10 11 11 10 9 8 6 3 2 3 5 9 9 10
12 12 13 14 13 9 7 7 5 4 2 2 2 1 2 2 2 2 2 3 4 4 4 6 6 7 8 9 10 10 10 10 9 8 6 4 3 3 5 7 10 12 12
13 13 13 14 12 9 8 4 3 2 1 1 2 2 3 3 3 3 3 5 6 6 6 8 8 8 10 10 11 10 11 10 9 7 6 4 5 7 8 9 11 14 15
14 14 13 13 11 8 6 2 1 1 1 1 2 3 4 4 4 3 5 6 7 8 9 9 10 10 11 12 11 11 11 11 9 7 5 5 6 7 8 9 11 14 15
15 14 14 13 11 8 4 3 0 1 1 1 4 5 5 6 5 5 7 8 9 10 10 10 11 12 12 13 12 12 11 11 10 7 4 6 8 8 9 10 11 12 15
16 15 14 12 11 7 4 1 3 1 1 4 5 6 7 7 7 7 9 11 11 12 12 12 13 14 14 14 13 13 12 11 11 8 6 9 10 11 10 11 11 13 14
16 17 17 14 11 7 5 4 4 3 4 5 6 7 9 9 9 9 11 12 12 12 13 14 14 14 13 13 12 12 12 12 11 9 9 10 11 12 11 12 12 13 14
16 17 18 17 13 9 7 6 5 6 7 8 9 9 10 10 11 12 13 13 13 13 12 13 14 13 13 12 12 13 12 12 12 9 10 11 12 12 12 12 12 12 12
18 16 17 17 16 12 9 8 8 9 10 11 12 11 13 12 13 14 14 14 13 13 13 13 13 14 15 15 14 13 13 13 12 12 11 12 13 12 12 12 12 12 12
19 18 16 17 16 14 12 10 11 12 13 14 15 15 14 14 15 16 14 14 14 14 13 13 13 15 16 16 16 16 15 14 14 14 14 15 15 15 14 14 13 12 12
20 18 16 15 16 15 14 12 12 13 13 15 16 16 15 15 14 14 14 15 15 15 14 14 15 15 15 16 16 17 18 18 17 17 16 17 17 18 17 15 14 13 12
20 19 18 16 15 15 16 16 15 15 15 15 15 14 13 12 12 13 15 16 15 16 15 15 15 15 15 16 17 18 19 20 20 20 19 19 20 20 20 18 16 15 15
21 21 20 19 18 18 16 17 17 17 17 16 15 15 14 13 14 14 17 17 15 16 16 16 16 16 16 16 16 18 20 21 22 22 22 22 23 23 23 21 20 18 18
23 22 23 23 22 22 22 22 21 19 19 18 17 16 17 18 18 19 20 19 19 18 18 17 17 17 17 18 18 19 21 23 24 25 25 25 25 26 26 25 23 23 22
24 24 25 26 25 25 25 26 24 22 20 20 19 18 19 20 20 21 21 21 21 21 21 19 18 19 18 19 20 20 20 23 26 27 28 28 28 29 29 29 28 27 26
26 25 27 29 29 30 30 30 29 27 25 23 22 23 23 25 24 24 25 24 23 23 23 22 21 21 20 19 21 23 24 24 25 27 29 30 31 31 32 33 33 33 32
26 28 29 31 33 33 31 30 29 30 29 26 24 24 23 23 23 24 25 25 24 23 23 23 23 23 22 24 23 25 26 27 28 29 30 31 32 33 34 36 36 37 36
26 28 29 31 32 32 32 30 31 30 30 28 27 26 25 24 24 26 26 25 24 24 24 24 24 25 24 25 26 27 28 28 29 29 30 32 33 32 33 35 38 39 40
27 22 21 23 22 23 25 29 32 32 30 29 29 28 28 29 30 31 33 32 27 28 29 31 29 28 27 28 29 30 29 29 29 30 29 29 31 32 33 33 36 37 41
18 16 18 21 21 20 21 24 26 29 29 30 30 30 30 31 32 34 34 33 34 32 32 34 34 33 33 31 32 32 29 28 28 28 27 28 29 31 32 33 34 35 37
14 16 17 20 22 23 23 25 24 24 26 27 27 29 31 32 33 35 36 36 35 35 35 36 37 35 33 33 37 36 35 31 28 29 30 31 30 30 32 33 32 34 35
13 15 17 19 19 20 23 25 26 24 26 27 26 27 28 28 32 34 34 34 35 36 37 37 37 39 39 36 38 41 42 35 32 31 34 33 31 31 30 31 33 35 35
15 14 15 15 16 17 18 21 26 27 25 25 25 27 26 28 30 32 33 35 37 39 40 38 38 39 40 38 38 42 44 42 37 33 35 35 35 32 31 31 32 33 36
14 13 13 15 16 17 18 18 20 21 20 21 25 28 29 32 33 33 34 37 39 41 40 39 39 39 40 41 40 39 40 39 42 43 35 36 37 34 33 32 32 33 35
14 16 18 20 21 21 21 21 21 22 22 24 26 29 30 31 32 33 35 36 37 38 38 38 38 40 40 40 40 37 37 38 39 44 49 36 39 35 34 33 32 34 35
16 18 22 26 28 28 27 26 25 25 25 25 27 27 28 29 29 31 33 34 35 35 36 36 36 37 37 38 39 37 38 40 39 44 48 47 43 34 37 35 34 34 36

GFSSE_700_spd_006.txt.gz
Wind_Speed
14 14 14 15 16 12 11 9 6 5 6 6 5 5 4 4 2 3 4 3 3 4 4 5 7 8 9 10 10 11 11 11 11 10 10 9 8 6 7 7 8 8 9
14 15 15 15 15 13 10 10 6 5 6 6 5 4 3 3 3 4 5 4 4 6 7 7 8 9 10 11 11 12 12 11 11 10 9 8 7 6 8 8 9 10 11
15 15 15 15 15 11 9 7 4 5 5 5 3 2 3 3 3 5 5 5 6 7 9 9 9 11 12 12 12 12 12 11 10 10 7 7 6 7 9 11 10 13 12
16 18 17 15 14 12 7 5 2 4 4 4 3 3 3 4 5 6 6 7 8 9 10 10 10 11 12 11 11 11 11 10 9 8 7 7 7 8 9 11 12 12 12
16 18 18 16 14 11 7 4 2 2 3 3 4 3 3 4 7 8 9 9 10 11 11 11 11 11 12 11 11 11 10 10 9 6 6 7 7 8 9 10 12 12 12
16 18 18 18 15 12 7 4 3 4 4 4 5 4 4 5 8 10 11 12 12 11 12 12 12 12 12 12 13 12 11 10 8 6 7 7 8 8 10 11 13 13 14
16 17 18 18 16 13 8 6 5 5 5 6 6 6 7 8 10 10 12 13 13 13 13 13 12 12 12 13 13 13 12 12 10 9 9 8 10 10 10 12 13 13 14
16 16 16 16 16 14 11 8 8 7 7 8 8 8 9 10 11 12 13 14 14 14 14 13 12 12 12 12 12 12 12 13 12 11 11 10 11 11 11 12 13 13 13
17 17 17 16 16 15 13 10 9 9 10 10 10 10 12 11 13 14 14 14 15 15 13 13 12 13 13 13 12 12 12 13 13 12 13 12 12 13 13 14 15 14 15
18 18 17 16 15 15 14 13 11 10 10 10 12 12 13 14 15 15 14 14 15 15 14 13 12 13 14 13 13 13 12 13 13 12 13 13 15 15 15 16 16 15 16
18 17 16 16 16 15 15 14 13 13 12 11 10 10 10 11 12 12 12 13 15 15 15 13 13 14 14 15 15 14 14 14 14 13 13 15 16 17 18 19 19 18 17
19 17 16 16 16 16 15 15 15 15 15 13 12 11 10 10 10 12 13 15 16 17 16 15 14 14 14 15 15 15 15 15 15 16 15 17 18 19 20 20 21 21 21
20 19 18 18 17 16 18 18 17 16 16 16 15 14 13 12 13 14 17 17 19 19 18 17 16 15 14 14 15 15 15 16 17 17 18 18 20 21 22 22 22 23 23
22 21 21 21 20 20 20 21 21 19 19 18 17 17 18 18 17 18 19 19 19 20 19 18 18 17 16 16 16 16 16 17 19 19 19 21 22 23 25 26 26 26 25
22 22 22 24 24 25 25 24 25 23 21 20 18 17 17 17 16 17 19 20 21 20 20 19 18 19 19 20 19 19 18 18 20 21 22 22 22 25 27 28 29 29 29
21 20 22 25 27 30 30 27 27 26 23 22 20 17 17 18 18 18 17 17 18 18 18 18 18 19 20 21 21 22 22 21 23 24 25 25 25 25 26 28 30 32 33
24 23 23 25 27 28 25 24 25 24 22 21 20 20 19 20 21 21 20 20 23 22 20 19 20 20 20 22 22 23 24 24 25 25 26 26 27 27 27 28 30 33 34
21 20 22 20 18 19 18 18 20 21 22 21 21 21 22 22 22 23 23 24 26 28 30 28 25 26 26 27 26 25 26 26 26 25 25 26 26 27 28 29 31 33 35
22 18 13 12 14 17 18 19 20 20 21 21 22 23 24 26 27 29 30 31 32 33 33 32 30 30 30 30 30 29 28 29 27 27 25 24 24 25 27 28 30 32 34
11 10 12 12 14 17 19 19 20 21 20 20 21 23 25 28 31 34 35 34 34 33 32 32 33 34 35 35 35 34 33 31 31 30 27 26 25 26 26 27 28 30 33
13 13 15 16 18 19 20 21 21 22 22 22 23 23 23 25 27 31 33 33 34 34 32 33 35 36 36 37 40 39 38 36 34 32 32 29 29 28 27 27 27 28 29
14 16 17 19 19 17 18 19 21 21 22 22 21 23 26 26 28 29 31 32 33 34 34 35 38 39 41 39 43 45 47 41 36 32 34 34 32 33 30 29 29 29 29
13 14 14 14 15 15 16 18 19 21 21 21 20 21 25 28 31 33 35 36 37 38 38 40 42 43 45 41 41 43 48 51 46 37 35 36 36 35 33 32 32 31 31
12 11 10 13 17 21 23 23 23 23 23 24 23 23 25 29 31 33 34 36 36 38 40 41 43 43 43 43 41 42 45 47 47 50 40 37 38 37 37 37 37 33 33
11 14 17 19 21 24 26 26 26 26 26 27 28 28 28 30 32 34 36 36 38 39 40 40 40 41 42 44 43 42 44 46 45 48 51 42 42 39 41 41 39 37 36
18 20 20 22 26 30 28 26 25 24 25 26 27 28 29 30 32 34 35 37 38 40 41 43 43 43 42 40 43 42 43 46 46 48 52 52 52 46 44 44 43 40 37

GFSSE_700_spd_009.txt.gz
Wind_Speed
15 16 17 17 18 17 12 9 8 7 6 6 6 7 7 5 4 4 3 3 5 5 6 7 8 8 10 10 11 12 11 10 10 10 10 10 9 9 9 11 12 11 11
16 17 17 17 17 17 13 10 7 7 6 7 6 7 6 4 4 2 3 3 5 7 7 9 10 9 11 11 12 12 11 10 9 9 9 8 7 8 9 10 11 10 11
15 17 19 18 18 17 13 10 6 6 6 5 6 6 5 3 2 2 4 5 5 8 9 9 10 10 11 12 13 13 12 11 9 9 9 7 7 8 8 11 11 12 11
15 17 19 20 19 18 13 9 5 5 4 3 5 4 3 2 3 3 5 6 7 9 10 11 10 11 12 12 12 13 12 11 10 10 10 9 7 7 8 11 11 12 12
15 16 18 20 19 17 12 9 6 5 4 3 4 3 3 3 5 5 6 8 9 10 11 11 11 11 11 11 11 11 11 10 9 10 10 9 8 8 9 11 12 12 12
14 16 17 18 19 17 11 8 7 7 7 5 5 7 5 5 6 8 8 9 11 11 12 12 12 12 12 11 11 11 11 10 9 9 10 10 9 9 10 12 13 13 13
15 15 15 16 18 18 14 9 7 7 8 7 7 7 8 8 8 10 11 11 12 13 14 13 13 12 10 11 12 12 11 10 9 9 10 10 11 11 12 13 13 14 13
16 16 15 15 15 16 15 11 8 7 8 9 9 9 9 10 11 11 12 13 14 14 14 13 13 12 11 12 13 12 11 10 9 9 10 10 12 12 14 15 14 15 15
16 17 16 14 14 13 14 13 11 9 10 11 11 12 12 12 12 13 13 13 13 14 14 14 14 13 12 13 13 13 12 11 10 11 10 11 13 14 14 16 16 16 15
15 16 15 14 13 14 13 13 12 11 10 11 11 12 12 13 12 13 13 12 12 13 14 14 14 14 13 13 13 13 13 13 11 12 13 13 14 15 16 16 17 17 16
14 16 15 14 13 13 13 14 13 14 13 12 11 11 10 10 10 11 11 10 12 13 14 14 14 14 14 14 14 14 14 14 14 13 13 15 15 16 17 17 18 19 18
14 15 16 15 15 14 15 15 15 15 16 14 13 12 11 10 11 11 12 13 14 15 16 15 15 15 14 14 14 14 14 15 15 15 15 16 17 18 19 19 20 20 21
16 16 17 17 17 16 16 18 19 18 18 17 15 14 12 12 12 13 14 15 16 17 17 17 16 15 14 14 15 15 15 15 16 16 16 17 17 20 21 22 22 23 23
18 17 17 18 18 18 19 19 21 21 20 18 16 13 12 11 11 12 14 15 16 17 16 16 16 16 16 17 17 17 17 16 17 17 16 17 18 20 23 24 25 26 27
18 18 17 19 19 20 21 21 20 19 18 18 15 12 11 11 11 10 10 10 12 13 14 15 15 14 15 17 19 20 19 20 20 21 20 21 21 22 23 25 27 29 29
20 20 22 20 20 20 20 19 17 17 17 16 15 15 13 12 12 12 12 12 14 16 17 17 18 18 17 18 18 19 20 21 23 24 23 23 24 25 25 27 29 31 32
19 19 17 19 19 17 16 15 14 14 16 16 16 17 16 16 17 18 19 19 19 21 23 24 25 25 24 24 23 24 25 25 25 25 26 26 25 27 28 28 29 31 33
19 19 20 20 16 14 15 15 13 13 14 15 15 17 20 21 22 24 25 24 25 27 29 30 32 32 31 29 28 28 30 30 29 29 29 29 28 29 29 29 29 31 33
20 18 15 13 12 14 16 18 18 17 16 15 16 18 20 24 27 30 32 31 31 32 32 34 35 35 34 33 34 35 35 34 33 33 32 31 32 32 31 29 30 31 32
9 7 8 10 12 14 16 17 18 19 18 17 17 19 22 25 27 31 31 30 31 33 32 33 35 37 37 37 40 40 39 39 39 37 36 36 35 35 36 34 33 32 31
10 10 11 12 12 12 13 13 15 16 17 18 20 22 24 27 30 31 31 31 32 32 33 35 37 38 39 41 46 46 46 44 42 41 40 40 39 39 41 39 37 35 33
12 13 13 13 13 12 11 13 14 16 17 18 20 20 22 23 25 30 32 33 34 36 36 38 41 42 43 43 48 52 55 51 45 42 43 43 43 44 43 44 41 40 38
12 12 13 12 12 13 15 17 20 20 20 21 21 23 24 25 27 29 32 35 36 39 39 40 42 44 46 45 47 49 52 55 54 48 45 45 44 46 44 45 46 44 42
11 11 14 17 18 19 21 24 25 23 23 23 24 25 27 29 30 32 33 35 37 38 39 39 41 44 45 48 46 46 47 49 51 56 51 47 43 46 45 45 47 48 47
12 16 20 21 22 25 28 29 26 24 23 24 25 27 29 31 33 35 36 38 39 41 42 43 43 44 45 47 46 43 45 48 46 51 54 54 53 46 47 46 46 49 49
15 18 19 23 26 28 28 26 23 22 23 24 26 27 29 31 34 36 38 40 42 44 45 46 47 47 47 47 47 46 45 47 47 50 53 54 58 56 50 50 54 51 50

GFSSE_700_spd_012.txt.gz
Wind_Speed
16 17 17 17 17 17 15 11 9 8 6 6 5 4 4 5 5 4 4 3 1 2 3 5 6 8 8 8 9 10 10 9 10 10 10 11 10 8 8 9 11 12 11
15 16 18 18 17 17 16 12 8 5 4 5 5 4 4 4 5 4 3 3 3 3 4 6 7 8 9 9 10 11 10 9 9 10 10 10 9 9 9 10 12 9 10
14 15 17 18 18 16 14 11 8 5 4 4 5 6 3 4 4 2 3 3 4 4 5 8 9 9 10 9 11 10 9 9 9 9 10 9 9 8 9 9 11 10 11
13 14 16 18 19 16 13 10 8 7 5 4 4 4 2 2 4 3 3 4 5 5 6 7 9 10 11 10 10 10 9 8 9 9 9 9 8 8 9 9 11 10 10
13 13 15 16 18 17 13 9 7 6 5 5 4 4 1 4 5 4 4 5 6 7 7 8 9 11 11 11 11 11 10 8 9 10 9 9 8 8 9 9 11 12 12
14 14 15 16 17 17 14 9 7 6 5 5 6 7 5 7 7 6 5 7 8 9 9 9 10 11 11 12 12 12 12 9 9 10 10 9 9 9 9 10 11 11 12
15 16 15 15 15 15 15 12 8 6 5 6 6 7 7 8 9 10 9 9 9 10 10 10 10 10 11 12 12 13 13 12 11 11 11 11 10 10 10 11 11 12 12
15 15 15 14 14 14 14 14 12 10 8 8 8 9 10 10 11 11 11 11 11 11 10 10 11 11 11 12 13 13 14 13 13 12 12 11 12 12 12 12 13 14 14
14 14 14 14 14 14 13 13 13 12 11 10 9 9 11 11 12 13 12 12 12 11 11 11 12 12 13 13 14 14 14 14 14 13 12 12 14 14 14 14 15 15 16
13 13 13 13 13 13 13 13 12 12 12 11 10 10 9 9 9 10 10 9 10 10 10 11 12 13 13 14 15 15 15 14 14 14 14 14 15 16 16 16 16 17 18
12 12 12 13 13 14 14 13 13 13 13 12 11 11 10 9 8 8 8 9 9 10 11 13 13 14 14 15 14 15 16 16 15 14 16 17 17 18 18 19 18 18 19
11 13 13 13 13 13 14 15 14 14 14 14 13 11 10 9 8 9 10 11 12 13 15 15 15 16 17 16 16 17 16 16 16 15 16 18 19 20 21 21 21 20 21
13 13 14 14 13 13 14 15 16 16 15 14 13 11 10 9 8 9 10 12 14 15 17 17 17 18 18 20 20 19 19 18 18 18 17 19 20 21 23 23 24 24 24
15 16 16 17 15 15 17 17 16 16 13 13 12 11 9 8 8 8 8 9 10 11 13 14 15 16 16 18 19 20 21 21 21 21 20 21 22 22 22 25 26 27 28
17 18 19 19 18 17 18 18 17 16 13 11 10 11 10 10 10 10 10 10 12 14 15 15 15 16 17 19 19 19 20 21 22 24 25 25 26 25 25 26 28 30 31
17 16 17 15 14 15 17 17 15 14 14 13 12 13 13 13 13 14 14 14 14 17 19 20 21 23 24 25 24 24 25 25 26 26 27 27 29 29 30 30 30 31 33
18 18 18 18 17 18 16 14 13 12 13 14 15 16 17 18 19 21 21 22 22 24 26 28 29 30 31 32 32 33 31 31 30 30 32 32 32 32 33 33 33 33 34
18 18 20 21 20 17 15 15 15 14 14 14 15 17 20 22 24 26 28 28 29 30 32 33 34 34 34 34 35 34 35 35 34 35 36 35 36 36 36 36 37 37 36
18 18 17 15 14 14 14 14 15 15 15 14 14 17 19 23 26 29 30 30 30 30 30 33 34 36 36 36 38 37 38 37 37 37 37 39 40 40 39 39 40 41 41
15 9 9 11 12 13 14 14 14 14 14 15 16 18 20 22 25 28 31 32 32 32 32 34 35 36 39 40 43 43 43 42 41 41 42 43 43 44 44 44 44 45 45
9 9 10 11 12 11 11 9 9 11 12 15 17 18 19 21 24 26 28 29 32 34 35 38 40 41 41 43 48 48 49 47 47 47 47 46 46 46 48 48 48 48 48
8 10 10 10 9 8 8 9 11 14 16 17 19 21 22 24 26 28 30 32 34 35 36 38 41 43 44 42 47 51 55 53 50 49 47 45 44 42 44 46 49 49 50
8 8 7 8 9 11 13 16 18 20 19 19 20 23 24 26 28 30 32 34 36 38 39 40 42 44 46 44 44 48 53 56 54 54 49 47 48 48 44 43 43 45 48
5 7 11 13 15 16 19 22 22 19 18 18 19 21 23 26 28 31 33 35 37 39 41 42 43 45 47 50 49 48 50 52 51 58 55 51 49 49 47 47 46 44 43
8 11 13 16 19 22 23 23 21 20 19 20 21 23 25 28 30 32 34 36 38 40 42 45 45 46 48 51 52 53 52 52 52 55 64 60 57 56 56 52 52 48 46
10 13 16 20 23 25 23 21 20 20 20 21 21 23 25 27 30 33 36 38 41 43 44 46 47 47 49 50 51 53 54 57 58 58 61 63 64 62 59 58 57 57 57

GFSSE_700_spd_015.txt.gz
Wind_Speed
14 15 15 16 15 13 12 10 8 5 4 4 3 3 4 3 3 2 3 4 4 3 3 4 4 5 7 7 7 7 7 8 8 9 8 8 8 6 7 8 9 10 9
13 14 15 16 16 13 10 8 6 3 1 2 3 2 2 4 2 2 3 3 2 3 4 4 4 5 6 7 8 7 8 7 8 8 8 8 8 7 7 7 8 9 8
13 13 14 15 16 14 10 8 7 4 3 1 1 1 2 3 3 3 2 3 3 3 5 5 6 6 7 8 8 8 8 8 9 8 8 9 8 8 7 7 8 8 8
12 13 13 14 15 14 9 6 6 6 5 3 2 0 0 2 3 3 2 4 4 3 4 6 6 7 8 8 8 7 8 9 9 8 9 9 9 9 9 8 7 8 8
13 13 14 14 13 14 11 6 6 6 5 4 3 2 0 2 4 5 4 6 6 4 5 6 7 8 9 9 8 8 8 9 11 10 10 10 10 11 11 10 8 7 7
13 14 14 14 13 13 14 10 6 5 4 3 3 1 0 2 5 6 6 8 7 7 7 8 9 10 10 10 9 9 9 9 11 12 12 12 12 12 13 12 11 9 8
12 13 13 14 13 13 13 13 10 6 4 4 3 3 3 3 5 7 8 9 9 9 9 9 10 11 12 11 12 11 10 10 12 13 15 14 14 14 14 14 13 11 11
12 12 12 12 13 13 12 12 11 10 7 6 5 4 5 6 7 9 10 11 11 10 10 10 11 11 13 13 13 13 13 12 12 14 16 17 17 16 16 16 15 15 15
10 10 11 11 12 11 11 11 10 10 9 9 7 6 5 6 7 8 10 11 10 10 10 11 12 13 13 14 15 16 15 15 15 16 17 18 19 18 17 17 18 18 18
9 9 10 10 11 11 10 10 10 10 10 9 8 8 7 6 6 6 9 9 9 10 10 12 13 14 14 16 17 17 17 18 17 18 19 20 21 20 20 20 20 20 21
10 9 9 10 10 11 11 10 10 10 11 10 9 8 7 7 7 8 10 10 11 12 13 14 16 16 16 17 18 18 19 20 20 20 21 22 23 23 23 23 23 23 23
11 10 10 10 11 12 12 12 12 12 12 12 11 10 9 8 9 10 10 12 13 14 15 15 16 17 17 18 19 19 20 20 21 21 21 23 24 25 25 25 26 26 26
14 13 13 13 14 14 14 15 15 13 13 12 12 10 9 8 9 9 9 11 11 12 13 14 15 16 16 17 19 19 21 22 23 23 23 24 25 26 26 27 28 29 29
16 15 17 17 17 16 16 17 17 16 15 13 11 10 8 8 9 9 10 12 12 13 14 14 14 15 15 17 18 19 21 23 24 25 26 27 28 28 28 28 30 31 31
19 18 17 16 16 16 14 16 18 17 16 15 13 11 10 10 10 11 13 14 15 17 18 19 20 21 22 23 23 24 25 27 28 29 29 29 30 31 32 32 33 34 34
18 16 15 15 15 15 14 17 17 14 14 15 16 16 16 15 16 18 19 20 21 24 25 26 27 28 29 31 30 31 32 33 34 35 35 34 33 33 35 36 36 37 37
19 19 18 18 17 17 17 17 15 14 13 13 16 17 19 20 22 25 26 27 28 30 31 32 32 33 34 36 35 35 36 36 37 38 39 39 37 36 37 39 40 41 41
18 18 19 20 20 21 18 17 15 15 15 15 16 18 20 23 25 26 27 29 31 32 34 35 35 35 35 37 38 37 37 37 37 38 39 38 39 40 40 41 42 43 45
17 19 20 17 12 12 11 14 15 16 18 18 18 19 20 21 24 25 27 29 31 32 34 36 36 38 38 38 40 39 40 40 40 39 40 41 43 44 44 44 45 46 48
18 14 9 9 9 7 7 9 10 12 14 15 17 18 20 22 23 25 26 27 28 28 30 32 34 36 38 39 41 41 41 41 41 40 40 42 44 46 48 50 50 51 50
10 7 7 7 6 5 4 4 6 8 11 13 16 18 20 21 23 24 26 27 28 29 31 33 35 37 37 40 45 46 46 45 45 45 45 45 45 45 45 44 44 47 49
6 5 4 3 3 4 6 8 10 12 14 15 17 18 20 21 23 24 25 27 29 30 32 35 39 41 41 42 47 50 54 52 50 50 49 48 48 48 47 47 44 45 45
4 3 3 5 6 7 9 12 14 15 16 16 17 18 19 21 23 24 27 29 32 35 37 39 41 44 46 44 45 49 55 57 58 55 54 54 52 51 50 50 49 49 46
4 4 5 7 9 10 13 16 16 15 14 15 16 18 20 21 24 26 29 32 35 38 40 42 43 45 48 50 48 45 47 53 59 68 61 60 57 56 54 53 53 54 54
5 5 7 9 12 16 18 16 14 14 15 17 19 20 23 25 28 30 33 36 38 41 43 45 46 46 48 51 52 55 55 54 54 58 68 65 62 60 58 57 56 54 55
5 7 11 15 18 19 18 16 16 16 18 19 20 23 25 28 31 34 38 41 42 44 46 47 47 48 49 50 52 53 55 57 57 56 59 63 63 62 60 59 57 56 54

GFSSE_700_spd_018.txt.gz
Wind_Speed
13 14 14 15 14 12 9 7 6 5 5 4 4 3 2 2 2 2 3 4 6 5 5 6 5 7 9 10 10 10 11 13 13 12 12 12 11 10 9 9 9 10 12
12 13 13 14 15 14 9 7 5 3 2 3 3 3 3 2 2 2 4 4 5 5 7 7 6 8 10 10 11 11 11 12 12 12 12 12 12 11 9 9 10 10 10
12 12 13 14 15 15 9 6 6 3 0 2 2 3 3 3 3 3 4 5 5 7 8 8 9 9 10 11 11 12 11 12 12 12 13 13 13 12 11 11 11 11 9
11 13 13 13 14 14 10 5 4 3 3 2 2 2 3 4 4 3 5 6 7 9 9 10 10 10 11 12 12 11 12 13 13 12 13 13 13 12 13 13 12 11 9
11 13 13 13 13 13 11 6 3 3 2 1 2 3 5 5 5 5 6 8 9 9 10 12 11 12 12 13 14 13 13 12 14 13 13 13 14 14 15 15 14 13 12
10 11 12 12 12 11 11 9 5 3 2 1 1 3 5 6 6 7 8 9 11 11 11 14 15 14 14 15 15 14 14 13 15 15 15 15 15 15 16 17 16 16 15
8 9 10 11 11 11 10 9 8 5 3 3 4 3 4 6 7 8 9 10 12 13 14 15 15 15 15 16 16 16 15 15 17 17 17 17 17 17 18 19 19 19 19
7 7 8 9 10 10 10 9 8 7 6 4 4 5 6 8 9 9 10 12 13 14 16 16 17 16 16 17 17 18 18 17 18 19 19 19 20 20 21 21 22 23 22
8 8 7 7 8 8 9 9 8 8 7 6 5 5 6 6 8 9 11 12 12 13 15 16 17 16 17 18 18 19 20 20 20 22 21 22 23 23 23 24 24 25 25
9 9 8 7 8 7 8 8 9 9 9 8 8 7 7 8 8 9 9 9 10 12 13 15 16 16 17 18 19 19 21 22 23 23 23 23 25 25 26 26 26 27 27
12 12 10 10 9 9 10 10 10 11 12 11 11 10 10 10 9 10 11 12 13 14 15 17 18 18 18 19 20 20 21 22 24 24 24 24 26 27 28 28 29 29 29
17 16 14 14 12 12 13 14 13 13 14 14 13 12 11 11 11 12 13 14 15 16 17 18 19 20 20 20 21 22 23 24 25 26 26 25 27 28 29 30 31 32 32
17 18 17 17 17 17 16 18 17 16 17 16 15 14 13 12 12 13 14 14 15 15 17 17 18 19 18 20 20 22 24 25 26 28 29 30 30 31 31 31 32 32 33
17 19 19 20 20 19 19 18 18 17 18 18 16 15 14 14 14 13 15 15 17 18 20 22 23 23 24 25 26 26 27 28 29 30 31 31 32 34 35 35 35 35 35
19 20 21 20 18 18 16 16 17 18 18 17 18 18 18 18 18 19 19 20 22 23 25 27 27 28 29 30 31 32 34 35 36 37 37 36 36 37 38 37 38 38 39
19 20 20 17 17 18 16 16 18 19 16 15 17 19 20 22 23 24 24 26 27 28 30 32 33 34 35 36 37 37 38 39 39 39 40 40 39 38 40 42 41 40 40
19 20 20 20 20 19 20 21 21 21 17 16 18 19 20 22 24 25 26 28 30 32 34 36 37 38 38 39 38 37 37 37 36 38 39 40 40 40 39 40 43 44 45
19 20 19 20 20 21 22 23 22 21 19 19 20 20 21 23 24 24 25 27 30 32 33 35 36 37 37 39 39 38 39 40 39 39 40 41 42 42 43 43 44 46 48
17 19 20 21 15 13 14 16 18 19 19 20 20 20 21 22 23 24 25 27 28 30 31 31 32 33 34 35 38 38 39 40 40 40 40 40 42 42 44 46 47 49 50
17 18 17 12 10 8 9 10 13 15 15 17 18 20 22 24 25 26 27 28 28 29 31 31 32 33 36 39 41 42 42 42 43 43 44 45 45 44 45 46 46 47 48
13 11 8 6 5 5 6 8 9 10 13 15 18 21 23 24 25 25 26 27 27 29 31 32 34 36 37 41 46 48 47 48 47 49 49 48 48 48 48 48 48 47 48
9 8 6 5 5 6 7 9 12 14 17 19 20 21 21 22 23 23 25 26 28 30 32 36 39 41 43 44 49 52 55 53 50 52 52 52 52 51 52 54 53 53 52
10 8 7 6 7 7 9 10 12 14 16 17 17 18 19 21 23 25 27 30 33 35 38 41 44 46 49 47 47 50 56 58 60 57 56 57 56 56 56 56 55 54 56
11 9 8 8 8 9 11 14 16 16 16 16 17 19 20 22 25 28 31 34 37 40 42 44 45 47 49 50 49 47 48 53 58 66 60 59 58 58 58 58 57 57 56
12 10 8 7 8 11 15 15 14 15 16 17 19 21 24 27 29 32 35 37 40 42 43 44 43 43 44 45 47 48 48 48 49 53 64 60 58 56 57 57 56 53 51
12 10 8 8 11 15 18 17 16 16 17 20 21 24 27 30 33 34 36 38 41 41 39 38 39 40 41 42 43 45 47 50 52 55 59 62 64 62 61 59 58 56 54

GFSSE_700_spd_021.txt.gz
Wind_Speed
13 13 14 15 15 15 14 12 11 10 7 5 6 5 5 5 5 5 4 4 4 5 5 8 8 10 9 10 11 12 14 16 15 15 16 15 14 14 13 13 12 11 12
12 13 13 14 15 15 13 10 9 7 5 4 4 4 4 5 5 5 5 5 5 6 7 9 10 11 12 12 13 14 16 17 16 16 16 16 15 13 13 13 13 12 12
10 12 12 13 14 14 13 8 8 7 5 3 3 3 5 4 6 6 6 5 6 7 9 9 11 12 14 15 14 15 16 17 17 17 16 16 15 14 13 14 14 14 13
9 11 12 13 13 13 12 8 6 5 4 2 2 3 5 5 7 6 6 7 7 8 10 11 12 15 15 16 17 16 16 17 17 17 17 17 17 15 14 15 16 16 15
9 10 11 12 11 11 11 9 6 4 3 3 3 4 5 6 8 8 8 9 10 10 11 13 14 16 16 17 19 17 16 18 19 18 17 18 18 19 17 15 17 17 19
8 10 10 10 11 11 9 9 7 5 5 5 5 5 7 8 10 10 10 11 11 12 13 14 16 17 18 19 20 20 17 19 20 19 19 18 19 20 19 19 19 19 20
7 9 9 9 9 9 9 8 8 7 6 6 7 7 9 9 11 11 12 13 13 13 15 16 17 19 20 21 21 22 19 19 20 20 20 20 21 21 20 21 21 22 22
7 9 9 9 10 9 8 8 8 7 7 8 7 8 9 11 12 13 14 14 15 16 17 18 18 19 20 21 21 22 21 20 20 21 21 22 22 23 23 23 23 24 24
8 9 10 11 11 11 10 9 8 9 8 9 9 10 9 9 10 11 12 13 14 16 16 17 18 17 18 19 21 22 22 22 22 22 23 23 23 24 25 25 25 26 26
11 11 12 13 13 13 13 12 11 10 11 12 12 12 13 13 12 13 13 13 13 15 16 17 16 18 19 21 23 23 24 24 24 24 25 25 25 26 27 27 27 28 29
15 13 15 15 16 16 16 15 15 14 13 15 15 15 16 16 16 16 16 16 16 17 18 19 20 21 22 23 23 25 26 26 27 26 27 27 27 27 28 29 30 31 31
17 18 18 17 17 17 18 19 18 18 17 16 17 17 18 18 18 18 18 19 19 19 19 20 20 20 21 22 23 23 23 25 26 26 27 27 29 30 30 31 32 33 33
17 17 18 18 19 19 20 21 21 20 19 19 18 18 19 20 19 18 19 19 20 21 21 22 21 22 23 24 24 25 27 28 29 30 30 30 30 32 32 32 33 34 35
19 19 18 19 19 20 21 19 20 19 18 20 20 19 20 20 21 21 21 22 22 24 24 25 25 26 27 28 29 30 30 31 33 34 34 34 33 32 35 37 37 37 36
19 19 20 19 20 20 18 18 18 19 19 20 20 19 19 21 22 23 24 25 26 27 28 28 29 31 32 33 34 35 36 36 37 37 36 37 37 35 35 37 39 39 39
24 23 20 19 18 17 20 20 20 21 21 20 20 20 19 20 22 24 25 27 28 29 30 31 32 34 35 36 36 37 37 37 37 38 39 38 38 37 36 37 40 41 42
28 24 21 19 19 20 22 23 23 23 22 21 21 21 21 21 22 24 25 27 29 30 30 32 32 34 34 35 35 35 36 36 36 38 39 40 41 41 41 40 41 43 43
27 23 21 19 18 20 23 24 24 23 22 20 21 22 22 22 23 24 25 27 29 30 32 32 33 34 35 36 38 37 37 37 38 39 40 41 42 42 43 44 43 43 44
20 19 18 19 20 20 19 21 21 20 21 20 21 23 23 23 25 26 28 30 32 33 34 34 35 35 36 37 40 40 40 40 41 42 42 43 43 45 46 45 45 46 46
15 16 18 18 16 12 11 12 14 16 18 19 21 23 23 25 27 28 31 32 33 33 34 34 36 36 38 40 43 44 45 45 45 45 45 46 44 44 46 47 48 49 48
15 15 14 11 9 8 9 10 10 12 14 17 20 23 23 26 27 28 30 30 31 32 34 36 38 40 42 44 48 49 48 48 46 46 49 46 48 48 50 50 48 48 44
14 12 10 9 7 7 8 9 11 14 17 20 23 23 24 25 25 26 28 29 31 33 36 39 42 44 45 45 49 51 52 49 47 45 46 47 47 49 48 48 49 49 50
13 12 11 9 9 8 8 10 13 16 18 19 20 20 21 23 25 27 29 32 35 38 40 42 44 45 46 44 43 45 49 52 53 50 49 49 49 49 51 51 51 51 51
14 13 11 10 9 8 9 11 14 15 16 17 18 20 22 24 27 30 34 36 38 40 41 41 43 42 42 42 41 40 41 46 51 60 55 52 51 51 51 52 53 53 54
16 15 13 11 8 8 10 13 15 17 17 18 20 23 26 28 32 34 36 36 37 39 40 41 39 38 39 41 42 44 45 46 46 51 61 59 58 57 56 57 57 56 56
18 15 13 11 10 10 12 16 17 16 17 19 22 25 29 33 35 33 35 37 38 38 38 37 37 38 40 41 42 43 46 49 51 54 58 61 63 63 62 62 62 62 60

GFSSE_700_spd_024.txt.gz
Wind_Speed
11 13 13 13 13 14 15 12 10 10 8 6 5 4 5 6 8 8 8 7 7 7 6 7 8 8 10 12 12 13 14 16 15 16 16 16 16 15 15 14 16 14 13
11 12 13 13 13 13 14 11 10 9 7 5 3 4 4 6 7 7 8 7 7 7 7 8 9 10 11 12 13 15 15 16 16 16 15 17 17 17 15 16 15 14 13
9 11 13 13 13 13 13 11 8 8 8 6 3 3 4 5 6 7 7 6 8 7 8 10 10 11 12 13 15 15 16 18 18 17 17 18 17 17 17 17 16 15 14
9 10 12 13 14 14 13 12 9 8 7 6 5 4 4 5 5 7 7 7 8 8 10 11 11 12 13 14 16 16 18 18 18 19 18 19 18 16 17 17 18 18 17
9 10 11 12 13 13 12 11 10 8 7 7 6 6 5 6 6 8 8 9 9 11 12 12 13 14 15 17 17 18 19 19 19 21 19 19 19 19 17 17 18 19 20
8 9 11 12 12 13 14 13 12 10 8 7 7 7 7 9 9 10 11 12 12 13 14 14 15 16 17 19 19 19 20 19 20 22 21 20 20 20 18 20 19 20 21
9 8 10 11 12 13 13 13 12 11 10 9 9 8 8 9 11 12 13 14 14 15 16 16 17 18 18 20 19 20 20 20 20 22 22 22 20 20 21 20 21 22 23
10 8 9 10 12 13 13 13 13 13 12 11 10 10 10 10 11 12 13 15 16 16 17 18 19 19 20 20 20 20 20 21 20 22 23 23 23 23 22 22 23 24 24
12 11 9 11 12 13 13 15 14 14 14 14 14 13 12 13 14 14 14 15 16 16 17 17 17 18 18 19 20 20 20 22 21 22 23 23 23 23 24 24 25 26 26
15 14 11 12 15 14 14 15 15 16 16 17 17 16 16 15 15 16 15 16 17 18 18 19 20 20 20 21 21 21 20 21 21 21 21 21 22 22 22 23 25 26 27
13 14 16 17 16 15 13 16 16 17 18 19 18 19 19 18 17 16 16 16 17 18 18 19 19 19 18 19 19 20 21 21 21 21 20 20 20 22 22 23 25 26 26
13 15 16 17 17 18 18 16 17 18 19 19 18 18 20 20 18 17 16 16 16 16 17 17 18 19 19 19 20 21 21 22 22 22 22 23 23 24 27 27 27 27 28
16 14 15 17 17 17 18 20 19 18 17 17 17 20 20 19 19 18 17 17 18 18 19 20 20 21 22 23 23 25 27 27 29 29 29 28 29 28 28 30 32 32 32
17 18 16 17 16 18 18 20 20 20 19 18 17 20 18 18 19 20 20 21 21 21 22 23 25 26 28 28 29 29 29 30 32 32 31 31 31 31 31 30 33 35 36
19 20 20 18 19 18 20 18 18 20 19 18 18 19 17 18 19 20 21 22 23 25 25 26 28 29 30 30 31 31 31 32 33 33 34 34 33 33 34 34 34 35 37
24 24 23 21 20 19 18 19 22 21 21 19 20 19 16 18 19 21 22 23 25 26 27 28 30 32 32 33 33 33 33 34 34 33 34 35 35 37 36 36 36 36 37
28 26 25 24 21 19 21 22 22 23 22 23 21 20 19 19 20 21 23 24 26 27 29 31 33 34 35 35 35 35 35 34 35 35 37 37 39 39 39 39 39 40 40
30 29 27 23 21 19 20 23 25 25 23 23 21 21 21 22 22 24 26 27 29 30 33 34 34 35 36 36 37 37 37 36 36 38 40 41 42 42 42 42 40 41 40
28 27 23 20 18 20 22 24 24 23 22 20 19 20 21 22 24 27 29 30 32 33 34 35 35 36 37 38 40 41 42 43 43 43 43 44 42 40 40 39 42 43 44
20 18 16 17 18 19 18 18 18 17 16 16 18 20 21 22 25 28 29 29 31 33 33 34 36 37 40 43 45 46 45 44 43 44 43 41 41 39 40 42 42 43 45
15 15 16 17 16 14 13 13 12 12 12 15 17 20 23 25 26 27 28 28 30 32 35 37 40 42 42 45 46 45 43 40 39 38 39 40 40 41 40 41 43 43 42
16 16 15 13 11 10 9 9 9 11 14 16 18 20 21 22 24 25 27 29 31 34 37 40 42 42 42 43 46 46 45 41 40 39 39 40 40 41 42 43 44 45 45
17 15 14 12 11 10 8 8 10 12 14 16 17 18 19 20 23 25 28 31 34 37 37 38 39 41 40 37 38 43 47 50 52 49 46 45 45 45 45 45 46 47 47
18 16 14 13 11 9 8 8 9 11 13 15 16 17 19 21 25 29 32 35 35 36 37 38 38 38 39 39 37 36 39 45 50 59 54 50 48 49 49 49 50 51 52
19 17 15 14 11 10 9 8 9 12 14 16 17 20 22 26 28 32 34 34 35 36 36 36 36 36 37 39 40 41 40 41 43 50 61 58 55 54 54 54 53 53 55
21 19 17 15 13 11 9 9 12 16 17 18 20 24 27 30 32 35 35 36 37 37 36 35 35 36 37 38 40 41 43 45 47 50 55 58 61 60 60 60 60 60 60

GFSSE_700_spd_027.txt.gz
Wind_Speed
10 11 11 12 13 13 13 12 10 10 9 7 5 4 5 6 8 9 9 10 8 8 9 9 9 9 10 9 10 11 12 15 14 16 17 16 16 15 14 15 16 14 13
8 11 12 13 14 14 14 13 10 10 9 7 4 3 4 5 6 7 7 7 7 8 9 9 10 10 10 10 11 12 12 14 15 16 17 17 17 18 15 16 17 16 15
6 9 11 13 14 15 15 14 11 9 9 8 6 4 4 4 5 5 6 6 7 8 9 9 9 10 11 12 12 13 13 14 16 16 17 17 18 19 17 17 17 17 17
5 8 11 13 14 15 16 16 15 12 10 9 8 6 5 5 4 5 6 6 7 8 9 10 10 11 12 13 14 15 15 15 17 16 17 18 18 19 19 18 18 17 18
5 7 10 12 14 15 15 16 16 16 15 12 10 8 7 6 6 6 7 8 9 10 11 12 12 13 14 14 15 16 17 17 18 18 18 18 19 19 17 18 18 18 18
6 5 7 10 12 14 15 16 15 16 15 15 14 11 9 8 8 9 10 10 11 12 13 14 14 15 16 17 18 19 19 19 18 19 19 18 19 22 20 17 19 19 19
8 9 8 9 11 12 13 14 15 15 14 14 15 14 13 12 11 9 10 11 13 13 14 15 15 17 17 18 19 19 19 18 18 18 17 18 18 20 21 19 19 20 21
9 9 8 8 10 11 12 13 14 14 14 14 15 15 15 14 13 12 11 11 11 12 13 13 13 14 15 15 15 16 16 16 16 16 17 16 17 18 19 18 19 20 21
10 10 8 8 10 12 11 12 13 14 14 15 15 16 16 16 15 14 13 12 12 12 12 12 13 14 14 15 15 15 15 15 15 15 15 16 16 17 18 18 18 19 20
10 11 10 10 11 13 12 11 13 14 14 15 16 16 16 16 15 15 14 13 12 12 12 12 12 12 12 12 13 13 13 14 14 14 14 14 15 18 18 17 18 19 20
11 13 10 11 13 12 11 12 13 15 15 15 16 16 16 17 15 13 13 13 12 11 11 11 12 12 12 14 15 15 15 16 17 17 16 16 18 20 20 21 21 22 23
13 14 12 10 11 12 11 13 14 15 15 15 14 14 16 16 13 11 11 11 11 12 13 14 15 16 17 18 20 21 22 22 22 22 22 22 22 22 22 23 25 26 26
16 13 12 13 13 13 12 13 16 15 13 14 13 13 15 12 11 11 13 15 16 16 17 18 19 20 21 22 23 24 25 25 25 25 24 24 25 26 25 26 26 26 28
19 16 12 13 14 15 17 17 18 14 14 15 14 14 15 14 13 13 14 16 17 18 19 20 21 22 24 24 25 25 26 25 25 26 26 26 25 26 26 27 28 29 29
20 19 16 16 16 17 18 19 19 18 18 18 16 16 18 16 16 16 17 19 20 22 23 23 24 25 26 27 27 28 28 27 27 27 27 28 29 29 29 30 30 30 30
22 22 20 18 19 20 20 20 19 22 21 20 19 17 17 17 16 17 19 20 22 24 25 26 28 30 31 31 30 30 29 29 29 30 31 32 33 33 34 35 35 35 34
22 22 22 21 21 21 21 21 22 23 22 22 20 20 17 17 18 19 20 21 23 26 27 28 30 31 31 32 32 32 33 32 33 34 36 38 38 38 38 38 38 37 36
26 25 24 22 23 22 23 24 22 24 25 24 21 18 18 18 20 21 23 24 26 29 30 30 30 31 32 34 35 36 37 38 40 41 40 39 39 39 38 38 39 38 38
26 26 23 23 22 22 23 24 24 24 22 18 17 17 19 19 20 21 24 26 27 29 29 30 32 34 36 37 38 39 39 39 39 39 38 36 35 35 35 35 36 37 37
20 21 22 21 20 20 20 22 23 20 18 16 16 16 18 19 21 22 23 25 27 28 30 32 34 36 40 42 41 39 38 37 38 36 35 35 35 36 36 37 38 38 38
16 17 17 17 17 18 19 18 16 15 13 13 13 16 18 19 20 22 23 25 28 30 33 35 37 37 37 39 39 38 35 33 35 34 36 36 36 36 36 37 38 39 39
15 15 15 15 15 13 13 13 12 11 11 12 14 16 16 18 20 21 23 26 29 32 35 35 35 36 36 40 41 41 41 36 37 35 34 34 35 36 37 37 38 39 41
16 16 15 15 14 13 14 12 10 10 11 12 13 15 16 18 19 22 25 28 32 34 34 35 36 36 35 35 38 41 44 44 44 40 40 40 41 42 42 42 42 42 43
19 18 17 15 14 14 12 11 10 9 9 11 14 15 16 18 21 25 28 30 32 32 33 34 35 36 36 35 34 36 39 44 49 56 49 44 43 45 45 46 46 46 47
21 19 17 16 15 13 11 10 7 6 8 12 14 15 17 20 24 27 30 32 33 33 34 35 35 35 37 37 38 37 38 40 43 51 59 54 50 48 48 49 49 49 50
23 21 20 18 16 14 12 9 7 8 12 15 16 18 21 24 27 30 33 34 35 35 36 35 35 36 36 37 39 41 44 46 47 49 54 56 59 58 56 54 52 52 53

GFSSE_700_spd_030.txt.gz
Wind_Speed
6 8 10 12 13 12 13 13 11 10 10 8 6 5 5 6 6 7 9 8 7 9 9 10 12 12 10 7 9 9 11 12 12 13 14 15 15 14 16 16 16 15 14
6 7 10 12 13 13 14 14 13 11 11 11 9 6 5 4 4 5 6 6 6 8 8 9 10 10 9 10 10 10 10 11 13 14 14 14 14 13 14 14 15 16 13
5 6 8 11 12 13 13 14 14 13 11 11 11 9 7 5 4 4 4 5 6 7 8 8 8 9 9 10 11 11 11 12 14 15 15 14 14 13 14 14 14 15 15
4 4 7 9 11 12 13 14 14 14 14 12 11 11 9 7 6 4 4 5 6 7 7 8 8 10 10 11 12 13 13 13 15 16 16 16 15 14 14 14 14 15 17
4 4 5 7 9 11 13 13 14 13 14 14 13 12 11 9 7 5 5 6 7 8 8 9 10 10 11 12 13 14 14 14 14 16 16 16 16 14 14 15 14 16 18
5 4 5 6 8 10 11 12 12 12 13 13 13 13 12 12 10 9 9 9 10 10 11 11 11 12 12 12 13 13 14 14 14 15 15 15 15 16 15 14 14 16 19
8 6 5 6 7 8 9 11 11 12 12 12 12 12 12 12 10 10 9 8 9 10 10 11 10 11 11 11 11 11 12 12 12 13 13 14 14 14 16 15 15 15 19
10 9 6 5 6 8 9 9 9 11 11 11 12 12 12 11 10 10 9 10 9 9 9 9 8 9 10 10 11 11 12 13 14 14 15 15 15 15 16 15 16 16 18
11 11 7 5 6 8 8 8 8 10 11 12 13 12 11 11 11 11 10 9 9 9 9 9 9 9 9 9 10 10 11 12 13 13 14 15 15 15 14 15 17 17 18
11 11 8 6 7 9 9 8 8 10 11 11 12 12 11 12 12 10 9 8 8 8 8 8 8 9 10 11 12 12 13 15 15 16 17 18 19 19 18 19 19 19 20
11 12 10 8 9 9 9 9 10 10 12 12 12 11 11 12 12 10 8 8 8 8 9 10 11 12 12 14 15 17 17 18 19 20 20 21 21 21 21 21 22 22 22
13 12 11 10 9 10 10 10 11 12 12 11 11 12 12 13 12 11 10 10 11 12 13 14 15 17 18 19 20 21 22 22 22 22 22 22 23 23 23 23 22 23 24
16 16 13 11 10 9 9 10 13 14 13 12 12 12 12 12 11 10 11 12 13 14 16 17 18 19 20 20 21 22 23 23 22 22 22 22 21 21 21 21 22 23 23
18 19 15 12 11 10 11 12 13 14 13 14 14 12 13 14 13 12 12 14 15 15 16 17 18 19 20 21 21 21 22 22 22 23 23 24 25 25 25 25 24 24 26
23 21 17 15 14 14 14 15 16 15 14 16 16 15 15 15 15 15 15 16 16 17 17 19 20 22 23 23 23 23 22 23 24 26 27 28 29 30 31 31 31 30 30
26 23 20 19 18 16 17 18 18 18 18 18 17 16 14 14 15 15 17 17 18 19 20 22 24 25 26 26 25 25 25 25 27 29 31 32 33 34 35 35 36 35 35
27 23 22 21 19 18 19 20 21 23 22 21 21 19 14 14 16 17 18 19 20 21 23 24 25 26 27 28 28 28 30 31 33 33 33 33 33 34 34 35 35 35 35
25 24 26 25 22 21 22 23 24 22 22 22 21 18 15 15 16 18 19 21 22 22 24 24 25 28 30 31 32 33 33 34 34 34 34 33 33 32 32 33 33 34 35
24 26 28 28 25 25 25 25 22 21 23 21 19 16 15 16 18 19 20 21 22 24 25 27 30 32 33 34 35 33 32 33 33 33 31 31 33 33 34 35 36 37 37
20 23 28 29 27 25 24 22 22 23 22 19 16 15 15 16 18 19 21 22 23 25 28 30 33 35 36 34 33 33 33 33 32 32 31 32 34 34 35 35 36 37 38
19 22 25 26 25 22 20 20 22 21 18 16 14 14 15 17 18 19 21 22 25 28 30 32 33 33 35 35 35 33 32 33 33 33 33 33 33 35 36 37 38 39 39
18 18 20 20 19 18 19 19 18 17 14 13 13 14 16 17 18 19 22 24 27 30 32 33 32 33 34 36 36 38 38 34 36 35 34 34 35 36 37 39 39 40 42
18 18 16 16 16 16 16 17 15 13 12 12 12 13 14 16 18 20 23 26 29 31 32 32 32 32 33 36 39 40 43 43 42 38 38 37 40 41 41 42 43 43 46
20 19 17 16 15 15 15 14 14 12 11 10 10 12 15 17 20 23 25 27 30 31 31 32 33 34 35 36 37 39 40 44 48 53 44 42 44 45 46 47 48 49 51
21 21 18 16 15 16 16 15 13 11 8 7 9 12 15 19 22 24 27 29 30 31 32 34 35 36 37 37 38 38 39 42 46 53 59 54 48 47 50 52 53 54 54
24 23 20 18 18 18 16 14 12 10 8 8 11 14 17 21 24 27 29 31 33 34 35 36 37 37 37 38 39 41 43 46 48 52 57 60 63 61 58 56 56 56 55

GFSSE_700_spd_033.txt.gz
Wind_Speed
2 5 8 11 12 12 12 12 11 10 10 10 9 8 7 7 6 6 7 5 5 7 8 8 9 10 8 7 7 7 9 11 11 11 13 12 12 11 12 11 11 10 11
2 5 7 9 11 11 11 12 12 11 11 10 11 9 8 7 5 4 4 4 5 6 7 7 8 7 7 8 8 9 10 12 12 12 12 13 13 12 12 12 11 10 10
3 4 6 8 10 10 11 12 13 14 12 11 11 10 9 6 5 4 3 3 4 5 5 6 7 7 7 9 10 10 11 11 12 13 13 13 13 13 13 13 12 11 11
3 3 4 6 8 9 10 10 11 11 12 13 12 10 9 7 5 3 2 4 5 5 6 7 7 8 8 9 10 10 10 11 13 13 14 14 14 14 14 14 13 12 12
3 2 3 5 6 7 9 9 10 9 10 11 11 12 11 8 6 5 4 5 6 7 7 8 9 9 10 11 11 11 12 13 14 15 15 15 15 15 15 15 15 14 14
5 4 2 3 4 5 7 8 9 9 10 10 10 10 10 9 8 7 6 6 6 7 8 9 10 10 11 11 12 12 13 14 14 14 15 14 15 15 15 15 16 17 16
6 6 5 3 3 4 6 7 7 8 9 9 9 9 8 7 7 6 6 6 6 6 6 7 8 8 9 9 10 11 11 12 13 14 15 15 15 16 17 16 17 17 18
9 8 7 4 3 4 6 6 6 7 8 9 9 9 8 8 8 8 7 7 7 7 7 8 9 10 10 10 11 11 12 12 14 14 15 15 16 16 17 18 17 18 18
10 10 9 6 4 5 6 6 6 7 8 9 9 9 8 9 10 9 8 8 8 8 8 9 9 10 11 11 12 13 14 14 16 17 18 18 19 19 19 19 19 19 19
11 11 10 9 7 6 7 7 7 7 8 9 9 9 8 10 11 9 7 6 6 6 6 7 8 9 10 11 12 13 15 16 17 19 20 21 21 22 22 21 21 21 22
11 12 12 11 9 8 8 8 8 9 9 10 9 10 9 9 11 8 7 6 7 8 9 10 10 11 13 13 14 15 16 17 18 20 21 24 24 25 24 24 25 25 25
12 12 12 12 11 9 8 9 9 10 11 11 10 9 10 10 11 11 10 9 10 11 11 12 12 13 14 15 16 17 18 19 19 20 21 22 22 22 23 23 22 24 26
15 13 14 13 12 11 9 9 10 11 13 12 11 11 10 12 12 12 12 11 13 13 14 15 15 15 16 17 18 20 21 22 21 21 21 21 20 20 20 21 22 24 26
19 16 16 16 14 12 11 11 12 13 14 14 12 13 13 13 14 14 14 14 14 14 15 16 17 18 19 20 21 20 20 21 21 22 22 23 23 23 24 24 25 26 26
23 19 17 18 17 15 14 14 15 16 17 16 15 15 16 16 16 15 14 15 15 16 16 17 19 20 22 22 21 21 22 23 24 25 26 27 29 30 30 31 31 31 31
25 22 22 23 22 19 19 18 18 19 20 18 19 18 16 17 16 15 16 17 17 18 18 20 22 22 23 22 22 23 25 26 28 29 30 30 32 32 33 33 33 34 33
32 31 29 25 25 23 21 22 22 22 22 21 19 17 15 15 15 15 16 17 18 20 21 22 23 23 24 24 25 27 29 31 31 30 30 30 30 31 32 32 32 33 33
24 24 27 28 28 26 25 26 25 23 24 21 19 18 15 14 15 16 16 18 19 22 22 23 24 25 26 28 29 31 31 30 30 31 31 31 31 31 31 32 33 34 35
22 21 24 28 29 29 28 28 26 24 23 23 19 19 17 15 16 17 17 19 21 22 23 25 27 29 30 31 31 30 31 30 30 31 31 32 32 33 34 36 36 37 37
21 21 22 26 31 31 30 29 27 24 24 22 19 18 17 16 16 18 19 20 23 24 26 29 31 33 33 32 30 30 31 31 31 32 32 33 33 35 35 36 37 38 40
21 21 23 25 26 28 29 28 25 24 24 23 19 17 15 16 17 18 20 22 24 26 28 30 32 33 33 32 32 30 32 32 32 32 33 32 34 35 36 39 40 41 42
21 21 22 23 23 24 25 24 24 24 23 21 17 16 14 15 17 19 20 22 25 28 30 31 32 33 33 33 34 35 35 33 34 34 34 33 35 36 38 41 43 44 45
20 19 19 18 18 20 22 22 23 23 21 17 14 14 13 15 17 19 21 24 27 29 30 31 31 32 33 35 37 38 40 42 43 38 36 35 38 39 41 43 44 46 48
21 18 17 17 17 18 19 21 19 16 15 14 13 12 13 15 17 20 24 26 28 30 31 31 32 33 35 37 38 38 40 43 46 49 43 40 41 43 44 45 47 50 52
25 22 18 17 19 19 18 18 17 16 14 13 12 11 12 15 18 22 25 27 30 31 32 32 34 36 37 37 38 38 39 41 43 49 53 49 44 44 48 51 54 56 57
29 24 20 18 20 19 19 17 16 15 14 13 11 12 13 17 21 24 27 30 32 33 34 35 37 38 38 38 38 39 42 44 46 49 54 56 60 58 58 56 57 58 59

GFSSE_700_spd_036.txt.gz
Wind_Speed
1 3 5 7 9 8 8 8 7 6 6 7 7 5 4 4 3 4 3 2 2 3 3 5 6 5 5 5 5 7 9 11 11 11 12 11 11 10 11 10 10 10 8
1 2 5 7 8 9 9 9 9 9 8 9 8 7 7 5 4 2 2 1 2 3 4 4 5 5 5 6 7 9 10 12 12 11 11 11 11 11 11 11 10 10 10
1 2 4 6 7 8 8 9 10 11 11 11 10 8 7 6 4 3 2 1 2 2 3 4 4 5 6 7 8 9 10 12 13 13 13 13 13 12 13 13 12 11 11
2 2 3 5 6 7 7 8 9 9 10 11 11 10 7 6 5 4 3 2 2 2 3 4 4 5 6 8 9 10 11 13 14 14 15 15 16 14 14 14 14 13 13
2 2 2 3 3 4 6 7 7 8 8 8 9 8 8 7 6 3 2 1 2 3 3 5 6 6 7 8 10 11 12 14 15 16 15 16 16 16 15 16 15 15 14
5 3 2 2 2 3 5 5 6 7 7 7 7 7 6 6 5 4 3 3 3 3 4 5 7 8 8 9 11 12 13 14 15 15 15 14 15 15 15 16 16 17 16
6 5 4 3 2 2 4 4 5 6 6 7 7 7 6 6 5 4 4 3 3 4 4 5 6 7 7 8 9 10 12 13 14 15 15 16 17 17 17 17 17 17 18
10 9 7 5 4 3 4 4 4 5 6 7 7 7 6 6 7 6 5 4 4 5 5 6 7 8 8 9 9 10 12 12 13 15 16 17 16 17 18 18 19 19 19
10 9 8 8 7 5 5 6 6 5 7 7 7 7 6 7 7 6 5 4 4 4 5 6 7 7 7 8 9 10 11 12 14 15 16 17 17 17 18 18 19 20 20
13 11 11 10 8 7 6 7 7 7 7 8 8 7 7 7 8 7 6 5 5 4 5 5 6 7 8 9 10 11 13 14 15 17 18 19 19 19 19 20 21 21 22
13 12 12 12 11 10 7 9 9 9 8 8 8 8 7 8 8 8 7 7 7 7 7 8 9 10 10 11 12 13 14 15 16 18 20 21 20 20 20 17 18 18 20
13 13 14 14 14 12 10 10 10 10 10 10 10 9 9 9 10 10 10 9 10 10 10 11 11 12 12 13 14 15 17 18 20 21 22 22 22 22 21 19 21 22 23
17 15 13 14 14 14 13 12 11 12 12 12 11 11 11 11 12 13 12 12 12 13 13 13 13 14 14 15 16 19 20 21 21 21 22 22 22 22 22 22 22 23 25
21 18 16 15 14 14 14 14 14 14 14 14 13 13 13 14 14 14 14 14 14 14 14 15 16 17 18 19 19 19 19 20 20 21 22 23 24 24 25 26 27 28 29
23 22 20 16 14 16 16 15 16 17 17 17 16 16 17 17 16 15 15 15 16 15 15 16 17 19 20 20 20 20 20 21 23 24 25 26 27 27 28 28 29 29 30
23 21 22 19 17 19 20 19 19 21 21 19 19 18 18 17 17 17 17 17 16 17 17 18 20 21 21 22 22 23 24 25 26 27 27 26 26 27 29 30 30 31 31
27 27 27 26 25 23 23 24 24 24 23 22 20 19 17 16 17 17 16 16 17 18 19 20 21 21 22 24 25 26 27 28 27 27 27 28 28 29 29 30 31 32 32
33 30 27 27 27 27 26 27 27 26 24 24 20 20 19 16 16 16 16 16 17 18 19 20 22 23 24 25 26 28 28 27 28 28 28 29 29 30 31 31 32 33 34
29 31 28 26 25 27 27 29 28 27 26 24 21 20 17 18 16 16 15 15 17 18 21 23 24 26 27 27 28 28 28 28 28 29 29 30 31 31 32 33 34 35 35
30 28 26 24 23 27 28 30 29 28 27 25 22 20 20 17 17 15 15 16 18 21 23 26 28 30 29 28 28 28 28 28 29 30 31 32 32 32 33 33 34 35 37
28 28 27 24 19 22 27 31 31 29 26 25 23 17 21 19 16 15 15 17 19 23 25 28 30 30 30 30 28 28 29 31 31 32 31 32 32 33 34 36 37 39 39
26 28 25 22 19 20 23 25 25 25 25 24 23 22 19 17 14 14 16 18 21 25 27 29 30 31 31 30 30 31 32 32 32 31 31 33 33 34 35 37 39 40 41
28 25 22 20 19 19 20 23 25 26 25 24 21 22 16 14 13 14 17 20 24 26 28 30 31 31 31 33 34 36 38 40 41 36 32 31 34 35 36 38 40 42 44
29 25 19 18 17 18 18 20 21 21 21 21 19 20 15 13 13 15 18 22 25 28 30 31 32 32 33 35 37 37 39 42 44 47 41 36 38 39 39 40 43 46 49
31 25 21 19 16 18 18 19 19 20 20 20 17 15 14 13 14 17 20 23 27 29 32 34 34 34 36 37 38 38 38 39 41 46 49 44 41 40 43 47 50 53 55
33 31 25 21 17 19 20 20 19 18 18 17 17 15 14 14 16 18 23 26 29 32 34 36 36 36 38 38 39 40 41 42 43 46 51 52 54 53 54 54 54 56 58

GFSSE_700_spd_039.txt.gz
Wind_Speed
3 2 4 7 8 8 7 7 6 5 5 5 6 6 5 4 3 2 2 3 2 2 2 1 2 3 4 5 7 7 9 10 10 10 10 11 11 12 12 11 12 11 10
4 2 3 5 8 7 7 7 7 6 6 5 5 4 3 2 2 2 4 5 3 2 2 0 2 3 4 5 7 9 10 10 10 10 11 12 13 14 13 13 13 13 12
5 3 2 4 5 6 7 7 6 6 7 7 5 4 3 3 3 3 4 4 3 2 1 1 2 3 4 5 6 8 9 10 10 11 12 13 14 15 16 15 15 14 13
5 2 2 3 3 4 4 5 5 6 6 6 6 7 6 4 4 4 3 3 2 2 2 3 3 4 5 6 6 8 9 10 12 13 14 15 16 16 16 16 16 15 14
6 5 3 2 2 2 3 4 5 5 5 5 6 6 6 5 4 3 2 0 1 2 2 3 4 4 5 7 8 9 10 12 13 14 14 15 15 14 15 14 14 15 14
11 7 5 3 1 1 2 3 4 4 4 4 4 4 4 3 2 2 1 1 1 2 3 3 5 5 6 8 9 10 10 11 12 12 12 13 14 13 13 14 14 14 14
12 10 6 4 3 3 2 3 3 4 4 4 4 4 3 2 1 0 1 2 2 3 4 4 5 5 6 7 8 9 10 11 12 12 13 13 13 13 13 13 13 13 15
13 11 9 7 5 5 4 4 4 4 4 4 4 4 3 3 3 3 2 3 3 4 5 6 6 6 6 7 8 9 10 10 11 12 13 12 13 13 13 13 13 13 14
14 13 12 11 9 8 7 6 6 6 5 5 5 5 4 3 4 4 4 3 3 3 4 4 4 4 4 6 7 8 9 11 12 14 15 14 15 15 15 16 15 15 16
15 15 14 13 13 11 9 7 7 7 7 7 7 7 6 5 5 5 4 4 4 4 4 5 5 6 7 8 9 11 12 13 14 16 16 17 17 17 17 17 15 14 16
17 16 16 16 15 14 12 10 9 9 9 9 8 8 9 8 7 6 6 6 7 7 7 7 8 9 10 11 12 13 14 14 15 17 18 18 19 18 17 18 18 17 17
15 16 17 17 16 15 14 13 11 11 11 10 10 10 10 10 10 9 8 8 9 9 9 9 10 11 12 13 14 15 16 18 19 19 19 19 19 19 18 18 19 20 21
17 15 14 15 17 17 16 15 15 13 13 12 11 11 11 12 12 12 11 11 11 11 11 11 12 13 14 15 17 18 19 20 21 20 20 20 21 21 21 22 22 23 24
20 17 17 16 15 15 16 16 17 16 15 15 14 12 13 14 14 14 14 14 14 13 13 14 15 15 16 17 18 18 19 20 20 21 21 22 23 24 25 26 27 27 27
20 22 21 18 16 16 16 16 17 18 18 18 17 15 14 15 16 16 17 17 17 15 14 15 16 16 18 18 18 19 20 21 23 24 25 25 25 25 25 26 26 27 27
23 23 23 22 19 17 16 18 19 20 21 21 21 18 16 17 17 17 17 17 16 16 16 15 16 18 19 20 21 22 23 24 24 25 25 24 25 25 26 26 26 27 27
27 25 23 23 22 20 20 21 23 23 24 25 24 21 18 18 16 17 16 15 15 15 16 16 17 18 20 21 23 24 25 25 25 24 25 25 26 26 26 27 28 29 30
29 27 26 26 24 25 26 27 27 26 26 27 25 23 21 19 16 16 15 14 14 14 16 16 17 19 21 23 24 25 25 24 24 24 25 26 27 28 30 31 31 32 32
34 31 29 29 28 26 29 30 31 29 27 27 25 22 22 19 17 16 15 13 13 15 16 17 19 21 22 24 25 26 25 25 25 25 27 28 29 30 31 32 33 34 34
37 34 31 26 28 28 30 31 31 30 27 28 25 23 19 17 21 16 14 13 14 15 17 20 22 24 24 24 25 25 25 26 26 27 29 30 31 31 33 33 34 35 36
41 36 32 27 28 27 28 30 32 31 27 26 25 25 17 16 23 16 14 14 14 16 19 22 25 26 27 27 26 26 27 28 28 28 29 31 31 33 32 35 36 37 38
43 36 31 28 29 29 27 25 26 27 27 26 27 25 22 17 22 17 14 14 14 17 20 24 26 28 29 28 28 28 29 29 28 28 30 32 32 33 35 36 37 38 40
44 35 31 29 29 28 26 26 25 26 26 26 26 24 23 24 19 15 13 13 16 19 22 25 28 30 31 30 29 31 33 33 35 32 31 32 32 33 34 36 38 39 41
41 35 33 30 27 26 23 23 23 22 23 24 25 22 25 22 18 14 13 14 17 20 24 27 29 31 32 32 32 32 34 37 39 43 39 37 38 37 38 38 39 42 45
38 36 35 30 25 23 21 21 21 20 23 24 23 25 24 23 16 14 14 16 19 23 27 30 32 33 34 34 34 35 36 37 39 42 44 39 38 39 41 43 45 49 51
40 38 37 32 25 22 20 20 20 20 22 24 24 25 19 17 15 15 16 18 21 25 29 32 34 36 36 36 37 38 39 40 40 43 47 47 48 46 46 49 49 52 54

GFSSE_700_spd_042.txt.gz
Wind_Speed
5 2 3 4 7 8 9 7 6 5 5 4 4 3 2 1 2 3 3 4 4 4 5 5 5 5 6 8 9 9 9 9 9 9 10 11 12 13 13 13 13 14 13
7 4 3 3 5 6 7 6 6 6 5 3 3 4 2 1 1 2 3 4 3 3 3 3 4 3 5 6 7 8 8 9 10 10 11 12 13 14 14 14 14 14 14
8 5 4 3 3 3 4 5 4 4 4 4 4 4 4 3 1 2 3 4 4 4 3 2 2 3 4 5 7 9 10 11 11 12 12 14 15 15 15 15 15 15 15
8 6 4 2 2 1 2 4 4 4 3 3 3 3 2 2 0 1 2 3 3 3 3 4 4 5 6 7 8 9 10 11 11 13 13 15 15 16 16 16 15 15 15
7 6 5 3 3 1 1 2 2 3 3 3 3 3 2 2 0 2 2 3 3 4 4 5 6 7 7 9 9 10 11 12 12 13 13 15 15 15 15 14 14 14 13
14 10 7 5 4 2 1 1 1 1 2 3 3 3 2 2 2 2 2 3 3 4 5 5 6 7 8 9 10 10 10 11 11 11 11 12 13 13 13 13 13 14 13
14 13 12 9 6 4 3 3 3 3 3 3 4 3 3 3 4 4 5 5 4 5 5 5 5 6 6 8 9 9 9 10 10 11 11 11 12 12 12 12 12 13 13
18 19 16 12 10 8 7 6 6 6 5 4 5 5 4 4 4 5 5 5 5 5 6 6 6 7 7 8 9 8 9 9 10 10 10 11 12 12 13 13 13 13 13
18 19 18 16 14 12 11 10 8 8 7 6 6 6 6 6 6 5 4 3 3 3 4 4 4 5 5 7 8 8 10 11 12 13 14 14 14 15 15 16 16 15 14
19 21 20 19 17 15 14 12 10 9 9 9 8 7 7 7 7 7 5 4 4 4 4 5 5 6 7 9 10 11 12 13 15 16 16 17 17 17 18 18 17 16 15
19 20 21 20 19 17 16 15 13 11 11 11 10 10 9 8 8 8 8 7 6 6 7 7 8 9 10 11 11 12 13 14 16 17 19 20 20 19 18 19 18 19 19
20 22 22 22 21 20 18 17 15 14 13 12 11 11 10 10 10 10 9 9 9 9 9 10 11 11 12 13 13 14 15 17 18 19 19 19 20 20 21 21 21 21 21
19 18 20 22 22 21 20 18 18 17 16 14 13 12 12 12 11 11 11 11 12 11 12 12 13 13 13 14 15 17 18 18 18 19 20 20 22 23 24 24 25 25 25
18 19 19 18 18 19 19 19 19 19 19 18 16 14 14 14 14 14 14 14 14 14 13 14 14 14 14 15 17 17 17 18 19 20 21 23 24 26 27 27 27 26 26
24 22 21 19 19 19 18 18 18 18 20 20 19 17 16 16 17 17 17 17 17 16 15 15 15 15 15 16 17 17 19 20 22 23 25 24 25 25 25 25 26 26 26
27 26 26 24 22 20 19 18 19 20 20 21 21 20 19 18 19 18 18 17 17 16 15 15 15 15 16 18 19 20 22 23 23 24 25 24 24 24 25 25 26 26 27
30 31 29 27 25 23 21 19 20 22 23 23 24 22 22 21 21 19 17 16 15 14 15 14 14 15 18 20 22 23 24 24 24 23 24 24 24 25 26 27 28 28 30
35 33 31 29 27 26 24 24 26 27 27 26 27 27 25 24 21 19 17 15 13 13 13 13 14 16 20 22 24 24 24 24 23 23 24 24 25 27 28 30 30 31 32
38 36 34 31 29 27 29 29 29 30 32 30 29 28 25 25 21 20 17 14 12 12 12 13 15 18 21 23 24 24 24 24 24 24 25 26 27 29 30 31 32 34 35
43 40 37 34 31 29 29 33 32 34 35 33 30 28 26 24 21 17 20 15 13 12 12 13 17 19 21 23 25 25 25 25 25 26 27 27 29 30 33 34 35 36 37
50 47 41 38 35 31 30 32 33 35 35 33 30 28 25 27 23 19 22 17 15 13 13 15 18 20 22 24 26 26 25 26 26 27 27 30 31 32 34 36 37 37 38
55 52 48 42 38 33 31 31 31 32 32 32 32 29 27 27 22 20 20 16 15 14 14 17 19 22 24 26 27 27 27 28 28 28 29 32 33 35 35 36 37 38 40
56 55 51 45 38 34 31 34 32 30 31 31 32 30 30 26 25 22 20 16 15 14 16 18 21 23 26 27 28 29 31 32 32 31 32 33 33 34 34 35 36 38 40
55 53 51 47 41 35 33 33 31 31 30 31 32 28 28 27 24 21 17 16 15 15 17 20 22 25 27 29 31 31 31 33 35 37 36 38 37 36 36 35 36 38 41
49 51 49 46 40 34 34 33 31 30 30 29 29 28 28 25 26 22 18 17 16 17 19 22 25 28 30 32 33 33 34 35 37 40 40 38 39 40 42 42 42 44 47
47 47 46 45 38 35 34 32 31 28 24 27 29 27 24 26 25 21 20 18 18 20 22 25 28 30 33 35 36 36 36 38 40 42 44 43 43 41 43 45 48 49 51

GFSSE_700_spd_045.txt.gz
Wind_Speed
6 4 1 2 4 7 7 7 6 5 5 6 6 6 6 6 5 3 3 5 5 6 7 8 8 8 8 9 9 9 10 10 10 9 10 10 12 12 12 12 13 13 13
8 6 3 0 4 7 7 7 6 5 5 5 5 6 6 5 4 2 2 3 4 5 6 6 6 7 7 8 7 7 8 9 9 9 11 12 13 13 13 13 14 14 14
10 8 4 1 3 6 6 6 6 6 6 6 6 6 4 4 4 2 2 3 4 5 6 6 5 5 5 4 5 7 8 9 10 11 12 13 13 14 14 15 15 16 15
11 8 5 3 6 5 3 4 5 5 5 5 5 6 5 3 2 2 2 2 3 3 3 3 3 4 4 5 6 8 9 9 11 12 13 13 14 14 14 15 15 15 14
10 8 6 5 4 3 3 1 3 4 4 4 4 5 5 5 5 4 4 3 4 4 4 4 5 6 6 7 8 9 10 10 11 12 13 13 12 12 11 12 12 12 13
10 8 8 7 7 5 4 2 2 4 5 6 6 7 7 6 6 6 6 5 5 5 6 6 6 7 7 7 9 9 9 10 10 10 11 12 12 12 11 12 11 12 12
17 17 14 11 10 9 6 5 4 3 4 5 6 6 6 6 7 7 7 7 7 6 6 5 5 5 6 6 7 8 9 9 10 11 12 12 12 12 12 13 12 12 12
20 19 16 16 14 12 10 8 7 6 5 5 5 6 6 6 7 7 8 7 7 7 6 6 6 6 6 6 7 7 8 9 10 10 12 13 13 14 15 15 15 15 14
21 22 21 19 16 15 13 12 10 9 8 7 7 7 7 7 6 7 7 7 6 5 5 5 5 5 5 6 7 8 10 11 12 13 14 14 14 15 16 17 18 16 16
20 20 21 20 19 18 16 15 13 11 10 9 9 9 9 8 8 7 7 7 7 7 6 6 7 7 8 9 10 10 11 13 14 14 16 15 17 18 18 18 19 19 18
21 21 22 22 22 21 20 17 15 13 12 12 12 12 11 11 10 8 8 8 8 8 8 9 9 9 9 10 11 12 13 15 16 17 19 19 19 19 19 19 19 19 19
22 21 22 22 23 23 23 20 18 16 15 15 14 13 12 12 11 11 10 10 10 10 10 11 11 10 11 12 11 13 15 17 18 19 18 19 19 20 20 21 21 21 21
22 23 23 24 25 25 25 23 22 20 18 17 16 15 14 13 12 12 12 13 13 12 12 12 12 12 12 14 15 15 16 17 19 20 19 21 22 23 25 25 24 24 25
25 25 23 21 22 24 24 23 23 22 21 20 19 17 16 15 14 14 15 15 16 15 15 14 13 13 14 15 16 16 17 18 20 22 23 23 24 25 26 26 25 24 24
28 27 23 23 21 20 20 20 22 22 21 21 21 19 17 16 16 17 18 18 18 17 16 15 15 15 15 15 16 17 18 20 22 24 27 24 25 24 24 24 24 24 24
31 30 28 26 25 23 21 20 20 21 20 21 20 19 18 18 18 19 20 19 19 18 17 15 15 15 15 16 17 18 20 22 24 24 26 23 23 23 22 23 23 24 25
34 33 33 33 31 30 27 24 21 21 21 22 22 21 21 20 19 20 21 20 19 18 17 15 15 14 15 16 18 20 22 23 23 23 23 25 22 23 23 24 25 26 27
40 38 36 36 33 32 29 28 25 24 26 24 24 24 24 23 23 23 25 20 18 17 16 15 14 14 16 18 20 21 22 22 23 23 23 23 24 24 24 26 27 28 30
43 43 41 38 35 33 31 30 27 27 29 29 28 28 28 27 28 23 23 21 17 15 15 14 15 15 16 19 21 22 23 23 23 24 24 25 25 26 27 28 30 31 33
43 46 44 44 39 35 34 33 30 31 32 31 31 32 30 30 29 24 21 20 17 16 14 14 14 15 17 19 21 23 24 25 25 25 25 26 26 29 30 32 33 35 36
56 54 52 48 42 38 35 34 32 33 33 36 34 32 30 30 28 24 21 21 19 18 15 15 15 16 17 20 22 25 25 26 26 26 27 28 30 31 32 34 36 37 38
61 61 56 52 49 44 39 36 35 37 37 35 33 32 32 30 27 24 20 21 19 19 16 16 16 16 18 21 23 25 28 29 26 27 28 30 32 34 35 36 38 39 39
53 61 61 57 54 49 46 41 39 39 35 31 29 31 31 30 28 26 22 21 22 20 18 17 17 18 20 21 25 28 30 31 31 31 31 32 34 35 37 37 37 38 39
44 53 59 60 57 54 51 47 42 35 33 32 30 29 30 31 31 29 23 23 20 20 19 18 18 19 22 25 27 29 32 33 34 34 35 37 39 40 40 38 36 37 39
42 47 53 57 59 58 54 48 41 36 37 34 32 30 31 31 31 29 24 25 23 21 20 19 20 22 25 28 30 33 35 35 36 38 38 38 41 40 42 43 43 44 45
44 47 51 54 54 58 56 48 42 40 36 33 32 30 30 33 30 27 24 21 23 23 21 21 23 25 28 31 33 36 38 38 39 41 44 43 43 40 43 44 45 47 49

GFSSE_700_spd_048.txt.gz
Wind_Speed
4 2 1 2 4 8 9 8 7 6 6 5 4 4 4 4 4 4 5 4 4 4 5 6 7 7 9 9 9 9 9 9 9 9 9 9 10 11 10 11 12 11 12
6 6 4 1 2 8 9 8 7 6 6 7 7 7 6 5 5 4 3 2 1 2 4 4 4 6 9 7 6 6 5 6 7 8 9 10 10 11 11 12 12 12 13
10 8 6 3 2 9 10 8 7 7 6 6 7 7 7 7 6 4 4 2 1 2 2 3 5 7 6 3 5 5 4 6 8 9 11 11 10 11 11 12 13 13 13
11 9 7 4 4 8 9 8 7 5 6 7 7 8 7 6 6 5 3 2 2 2 3 3 3 4 4 3 2 3 5 7 8 9 10 12 10 12 13 13 12 12 12
11 9 8 5 4 5 5 5 6 5 5 6 7 7 7 7 6 6 6 5 4 3 3 3 4 4 4 5 5 6 7 7 9 10 11 11 11 11 11 12 12 12 12
13 11 8 6 7 7 6 6 5 5 5 6 6 6 6 6 6 5 5 5 6 6 5 5 5 5 5 6 6 7 8 8 8 8 9 9 11 11 12 13 13 13 13
13 12 11 10 10 9 8 7 7 6 6 6 7 7 8 7 6 7 7 7 6 6 6 5 5 4 4 4 5 6 7 8 9 9 9 8 10 10 11 12 13 13 13
16 15 16 14 13 13 11 9 9 8 7 7 7 8 8 8 8 8 9 8 7 6 5 5 5 5 5 5 4 4 5 7 8 9 11 9 12 11 13 14 14 14 15
20 17 18 18 17 16 13 12 11 10 9 7 8 8 9 9 9 8 7 7 7 6 6 5 4 3 3 4 5 6 7 8 10 10 13 11 13 14 15 15 16 16 16
20 18 19 20 19 18 16 15 13 12 10 8 8 9 9 9 8 7 8 7 7 7 6 6 5 5 6 6 6 8 9 10 12 13 13 14 16 17 17 17 17 18 18
21 21 21 19 20 20 19 18 16 14 13 11 10 10 10 10 9 7 7 8 8 8 8 8 7 8 8 8 8 10 11 12 14 15 16 17 17 18 18 18 18 18 19
23 23 23 23 22 23 21 21 19 18 16 14 13 13 12 11 9 8 8 9 9 10 10 10 10 10 11 10 9 11 13 14 17 16 16 18 19 20 20 20 20 20 21
25 25 24 25 24 23 23 23 22 21 19 18 15 15 14 13 11 10 10 11 11 13 13 12 12 11 13 14 12 12 14 16 18 18 17 20 22 23 23 22 22 22 22
28 26 27 26 25 25 24 25 25 24 23 21 19 17 15 14 13 12 13 13 14 15 16 14 14 13 13 13 13 14 15 17 18 22 20 21 23 23 23 22 21 21 21
21 31 29 26 24 25 23 23 26 25 24 23 21 19 17 16 15 14 14 15 16 17 17 17 17 17 15 14 14 14 16 18 20 24 21 21 22 22 22 21 20 20 20
30 27 31 27 27 24 24 23 23 22 21 21 20 17 16 16 15 15 16 16 17 19 19 18 18 17 16 15 15 15 17 19 20 23 22 20 21 21 20 20 20 21 22
34 29 33 30 29 29 25 22 22 23 22 20 20 19 17 17 17 17 17 17 16 24 22 19 18 16 16 16 16 16 18 19 20 21 24 21 20 21 21 21 22 23 24
40 37 35 36 34 34 34 30 25 26 26 23 22 21 20 19 20 20 19 19 22 23 27 20 18 16 16 16 16 16 17 19 20 21 22 22 21 21 22 23 24 24 26
45 43 40 38 40 36 36 32 29 27 30 30 26 26 25 23 22 22 23 23 20 19 19 20 18 16 16 16 16 17 18 19 20 22 22 23 24 25 25 24 26 27 29
48 47 45 44 46 39 37 37 32 31 33 32 28 30 28 27 25 25 24 24 21 19 17 16 19 17 16 16 17 18 19 19 21 23 24 25 24 26 27 28 29 30 32
52 47 43 50 51 45 42 41 37 33 36 33 32 30 30 25 25 26 26 24 22 18 18 18 19 18 17 16 17 18 19 21 23 24 26 27 28 28 29 30 31 33 34
49 56 52 48 53 55 48 44 39 37 36 32 32 31 31 29 25 26 27 25 23 20 18 21 20 20 18 17 18 19 22 23 24 27 28 30 31 31 32 33 34 35 37
41 47 61 58 55 55 52 45 45 42 41 35 34 31 29 28 25 26 26 24 26 23 22 27 23 22 19 18 19 22 26 27 29 30 31 32 33 33 34 35 35 36 38
39 41 42 58 62 58 56 51 50 47 44 37 33 30 29 26 27 27 27 28 29 25 24 23 23 21 20 20 21 24 27 30 33 33 34 36 36 36 37 37 36 37 38
39 38 40 43 51 55 61 58 56 52 47 41 35 32 30 28 29 28 29 30 30 26 23 23 24 22 22 22 24 27 30 33 36 38 37 36 37 38 40 40 39 41 43
36 45 45 41 43 47 52 57 60 55 50 45 38 34 31 30 30 31 31 31 30 28 26 27 24 23 23 25 27 30 33 36 39 42 44 42 41 38 40 40 40 42 44

GFSSE_700_spd_051.txt.gz
Wind_Speed
9 5 2 2 4 7 9 9 8 7 5 5 4 3 3 4 4 4 4 3 2 3 5 6 6 6 7 7 6 8 7 8 10 10 9 8 8 9 9 10 9 9 10
11 7 3 3 1 4 8 9 9 8 6 5 5 5 5 4 4 4 4 3 1 1 2 2 3 6 5 3 4 6 6 7 8 8 7 8 9 10 10 10 11 11 11
9 8 6 6 2 3 6 9 10 9 7 7 6 6 6 6 5 5 5 5 3 3 2 0 2 2 2 2 4 4 5 7 7 8 8 8 10 11 12 11 12 12 11
8 8 8 6 2 3 7 7 6 4 5 6 7 7 7 7 7 6 5 5 4 4 3 2 2 2 2 3 3 4 5 6 7 7 8 7 10 11 11 11 11 11 10
10 10 10 8 4 2 5 6 6 5 4 5 6 7 7 6 6 6 6 6 4 3 2 3 3 4 4 3 3 4 5 5 6 7 9 9 9 9 11 10 11 11 11
11 12 11 8 4 7 5 8 6 6 6 6 6 6 7 7 6 6 5 5 4 3 3 3 3 3 2 3 4 5 5 5 6 7 8 9 9 9 10 9 9 10 10
13 13 12 9 7 7 7 9 7 8 7 7 7 7 7 7 7 6 6 5 4 3 3 3 3 3 4 4 5 6 7 7 7 7 5 7 8 9 10 10 11 11 11
16 15 13 12 10 9 10 10 7 9 8 7 6 7 8 7 7 6 6 6 6 5 4 2 2 2 3 3 3 4 6 6 7 8 7 7 9 10 10 11 12 12 13
17 16 15 15 14 14 13 13 11 10 9 8 6 6 8 8 7 6 5 5 6 6 5 4 3 1 2 3 4 6 7 8 8 8 8 8 10 11 13 14 14 14 14
18 17 18 17 17 17 16 15 14 12 11 9 7 6 7 8 8 7 6 5 5 5 5 5 5 5 5 5 6 8 9 10 9 10 10 11 13 13 13 14 15 14 14
21 19 18 19 19 18 18 17 16 15 14 12 10 9 8 9 7 6 6 6 6 7 7 6 7 7 7 7 10 10 11 11 10 11 13 13 14 14 14 15 15 16 16
23 23 22 21 20 19 19 19 19 18 17 16 14 12 10 8 7 6 6 6 7 8 8 9 9 9 9 9 11 12 12 13 12 12 14 15 16 17 17 17 18 18 19
22 25 24 24 24 22 21 20 20 20 19 18 17 16 13 10 8 8 7 7 8 8 9 10 11 12 12 12 12 12 13 14 13 13 14 16 19 20 19 18 19 19 19
26 25 25 26 26 24 23 23 21 21 21 20 19 19 15 14 12 11 9 9 9 9 11 12 13 15 15 15 15 14 13 15 14 15 16 18 19 20 20 19 18 18 17
32 31 31 29 27 27 25 25 25 24 23 20 20 20 18 16 15 13 12 12 11 11 11 14 16 16 15 14 14 14 15 17 17 16 17 18 19 19 19 18 18 18 18
31 35 34 33 29 27 27 26 25 24 22 22 21 20 18 16 15 13 13 14 14 13 15 15 17 20 18 16 14 14 15 17 18 17 18 17 18 19 19 19 19 19 19
33 33 37 36 33 28 26 26 24 22 22 21 20 19 18 16 15 14 15 16 16 17 19 21 16 19 21 17 15 15 15 17 19 17 18 18 18 19 19 20 20 21 21
36 37 38 39 39 33 29 27 26 25 25 23 23 21 20 19 17 17 18 18 18 18 19 21 20 17 19 20 17 15 15 16 18 19 18 18 18 19 21 22 22 23 25
43 40 38 38 42 39 34 31 30 29 28 25 27 24 25 24 22 22 23 22 20 19 20 19 20 20 20 19 17 16 15 15 16 17 18 19 20 20 21 23 24 26 27
45 46 45 42 43 44 41 35 33 32 28 27 30 27 27 24 24 26 23 22 20 20 20 19 20 20 20 19 17 17 16 15 16 18 20 21 23 24 26 25 26 28 30
42 47 45 46 44 44 46 44 38 36 34 30 33 30 28 25 21 24 24 23 21 21 22 19 18 18 21 21 18 17 17 16 17 19 21 23 24 25 26 28 29 30 32
35 41 49 47 44 45 48 48 43 39 37 34 35 31 29 25 22 22 26 23 22 22 23 21 20 23 23 24 20 20 20 18 20 21 23 26 27 28 30 31 31 33 34
38 38 44 48 45 42 44 48 49 45 41 39 38 33 30 25 24 22 26 23 23 23 24 23 23 24 24 24 25 23 21 22 24 25 26 28 30 32 33 34 35 36 37
42 41 43 48 52 48 45 47 53 52 47 44 41 36 32 29 26 24 25 24 25 25 27 26 25 23 24 23 24 23 22 24 26 28 29 32 33 35 36 37 37 39 40
31 42 43 44 55 56 54 50 51 54 48 44 41 39 36 31 29 26 27 27 28 27 28 27 26 25 25 25 25 25 25 27 29 31 32 34 36 38 39 39 40 41 42
22 30 38 40 42 48 61 59 57 60 55 48 45 42 40 36 33 29 29 30 32 30 28 27 32 28 28 28 26 26 28 30 33 36 38 39 40 38 39 38 40 41 43

GFSSE_700_spd_054.txt.gz
Wind_Speed
13 12 8 5 2 4 7 8 7 7 6 5 4 5 4 4 5 5 5 6 5 4 3 4 5 6 6 8 9 10 12 11 10 9 8 8 8 8 9 9 9 10 10
15 11 8 5 2 2 4 7 8 9 6 5 5 4 5 5 4 4 4 4 4 2 0 2 4 5 6 5 8 9 8 7 7 7 7 8 9 10 10 10 10 11 11
15 13 10 8 6 2 3 7 9 7 5 5 5 5 5 4 4 4 4 3 3 3 2 0 1 1 2 0 4 5 4 4 5 6 7 10 10 11 11 12 11 11 11
16 13 11 10 8 4 3 7 9 7 5 4 5 5 5 5 4 4 4 4 4 2 2 1 0 1 1 0 3 4 5 6 7 6 8 9 10 11 11 10 9 10 10
14 13 11 10 7 3 2 4 6 5 5 6 6 6 6 5 4 4 3 3 3 3 3 2 3 3 3 3 5 6 6 7 7 7 8 9 9 9 9 9 9 10 9
12 12 12 11 8 2 1 3 4 5 5 4 5 5 6 5 5 4 4 3 3 2 2 2 2 3 3 4 5 5 5 5 5 6 7 8 9 8 7 7 8 9 9
12 12 13 12 8 4 4 4 6 6 7 6 5 4 4 5 6 5 5 5 4 3 2 2 2 3 4 5 5 6 6 6 5 5 6 7 7 7 7 8 8 9 10
16 16 15 14 9 7 6 8 8 5 8 7 6 5 5 5 6 5 5 5 5 4 3 3 2 2 3 4 4 4 5 5 6 6 6 8 8 8 9 10 10 10 11
17 18 17 15 11 11 10 10 11 10 7 8 6 5 6 6 6 5 5 5 5 5 4 3 2 2 4 5 6 7 7 7 7 8 8 8 9 10 11 12 11 11 11
18 19 19 17 15 14 13 13 13 13 11 10 9 7 7 7 7 6 5 4 4 4 4 5 5 6 6 7 8 9 9 9 9 9 10 11 11 11 11 12 12 12 12
20 21 21 19 18 17 16 16 15 15 14 12 12 10 9 7 7 6 5 4 4 4 5 5 6 6 8 9 11 12 11 11 11 11 12 13 12 12 12 13 15 16 15
22 21 20 19 19 19 18 17 16 17 16 15 14 13 12 9 7 7 6 6 6 6 6 7 7 8 9 11 13 14 13 13 13 13 13 14 14 14 14 15 17 17 18
18 19 20 20 19 19 19 19 19 19 19 18 17 16 14 12 10 8 8 7 7 6 6 8 9 10 11 12 13 15 14 13 13 13 14 16 17 17 16 17 18 18 18
24 24 22 23 23 22 21 20 21 20 20 20 19 18 16 15 14 11 10 10 9 8 7 8 9 11 14 15 15 16 14 13 13 14 15 17 18 17 17 17 17 17 17
30 28 28 27 25 24 23 23 22 22 22 22 21 20 19 17 16 14 14 13 12 11 10 9 10 12 12 15 16 17 16 13 13 14 15 16 18 18 17 17 17 18 17
35 36 33 32 31 30 29 27 24 24 22 21 22 21 20 18 17 15 15 14 15 14 13 13 15 16 15 15 15 17 18 16 14 15 15 15 17 18 18 18 18 19 19
36 35 36 36 34 33 30 28 25 24 23 21 20 19 17 17 16 16 16 16 16 15 15 16 16 17 18 18 17 16 17 17 15 15 15 15 16 17 18 18 19 20 21
36 35 34 34 34 33 30 28 26 25 24 20 20 21 19 19 19 18 16 17 18 18 19 19 17 18 19 18 19 18 18 17 16 15 15 14 15 16 17 19 20 22 24
40 38 38 40 38 37 35 31 29 29 27 24 25 25 22 22 21 21 20 22 23 21 20 19 18 18 19 19 18 18 19 19 16 15 15 15 16 17 18 20 23 24 26
44 42 41 43 43 40 38 38 35 32 30 30 29 27 22 21 21 21 21 23 22 20 19 18 18 19 19 18 18 19 19 19 18 15 16 17 18 19 21 22 24 27 29
51 51 48 45 45 45 42 41 40 37 34 33 31 30 27 23 23 22 20 23 21 18 18 18 18 19 18 18 20 21 20 21 20 19 19 20 21 22 24 26 27 29 31
45 48 51 53 50 49 47 43 46 41 39 37 34 34 31 26 26 23 21 22 22 20 20 20 20 20 19 21 23 25 24 23 24 25 23 23 23 25 27 29 31 33 35
37 37 39 45 52 50 48 43 45 44 43 41 38 36 36 29 27 25 22 22 23 23 22 23 22 21 21 23 25 25 26 25 25 25 25 26 27 29 31 33 35 36 37
38 39 39 40 44 54 53 47 48 48 47 45 40 38 38 35 31 26 24 22 24 25 26 24 26 25 24 23 25 26 26 27 27 28 27 28 31 33 34 37 39 40 41
35 40 43 43 44 45 52 54 51 48 47 46 43 40 40 39 35 31 26 23 25 26 29 28 27 27 27 24 26 27 28 30 29 29 29 31 33 35 37 40 42 43 44
23 31 38 42 47 45 50 54 54 52 47 46 47 44 42 39 38 33 29 27 26 29 31 30 30 30 29 29 27 29 31 32 32 32 33 34 36 36 39 41 43 44 45

GFSSE_700_spd_057.txt.gz
Wind_Speed
9 9 8 6 6 7 9 11 11 8 7 6 6 7 8 8 8 8 8 7 6 5 3 3 2 4 6 7 8 8 9 10 10 9 9 9 9 8 8 9 10 11 11
13 10 9 7 6 4 6 10 11 10 8 7 7 7 6 6 7 7 7 7 6 5 3 2 2 1 3 4 5 7 8 8 8 8 7 7 8 9 9 10 11 11 11
12 12 8 8 6 3 2 8 10 10 8 8 7 5 5 5 5 6 6 5 5 4 4 4 3 3 3 1 3 4 4 4 4 5 6 8 9 9 10 11 11 11 10
16 15 12 12 9 5 4 7 7 7 6 5 5 5 5 4 4 3 4 4 3 3 3 2 2 2 1 1 2 3 3 4 4 6 7 8 9 10 10 11 10 10 9
15 15 14 13 10 6 3 4 4 5 5 6 6 5 5 5 4 4 3 3 3 3 3 2 1 1 2 3 3 4 4 5 5 6 7 8 9 9 9 10 9 8 7
15 16 15 13 10 5 3 1 2 4 5 5 6 6 5 4 4 4 4 4 3 3 3 2 2 2 3 3 3 4 4 4 5 6 6 7 8 8 8 8 8 9 8
12 15 14 13 12 8 3 4 1 1 6 6 6 5 5 5 5 5 4 4 4 4 3 3 3 4 4 4 5 5 5 5 5 5 6 7 8 8 9 8 9 10 10
12 15 15 14 15 9 6 6 4 5 2 6 6 5 5 6 7 6 5 5 5 4 4 4 4 4 4 4 4 4 4 5 5 5 6 8 9 10 10 10 10 11 11
12 18 18 17 17 11 9 8 6 8 7 4 5 5 5 7 8 7 6 5 4 4 5 5 5 5 6 7 7 8 7 7 7 7 8 9 10 11 12 11 11 11 11
16 16 20 19 16 13 11 11 9 10 9 7 7 8 7 6 7 7 6 4 4 4 5 5 5 5 5 6 7 7 8 9 9 10 10 10 12 12 12 13 13 13 13
19 15 17 19 18 17 14 13 12 12 11 11 9 10 10 9 6 6 7 6 4 4 3 3 4 6 7 8 9 9 9 10 10 11 12 12 12 12 13 14 15 16 16
17 19 20 19 18 19 16 15 15 15 14 13 13 12 12 11 9 7 6 7 6 5 4 5 6 7 8 9 10 11 11 12 13 13 13 13 14 13 13 16 17 17 16
18 18 22 21 20 18 17 17 18 17 16 16 16 15 14 13 12 10 9 7 8 7 7 7 7 9 10 12 12 12 13 13 13 14 14 14 15 14 14 16 16 16 16
21 21 19 20 20 18 19 18 18 18 19 18 18 17 16 15 14 13 12 11 10 10 10 9 8 8 11 13 13 12 13 14 14 14 15 16 16 16 15 15 16 17 16
26 23 22 22 23 21 20 19 19 18 19 19 19 19 19 18 17 16 15 14 13 12 13 12 10 10 12 14 16 15 13 13 14 14 15 16 16 16 16 17 17 17 18
35 34 29 26 26 25 23 21 21 20 20 21 21 21 20 20 19 18 17 15 15 14 14 14 14 15 14 15 17 18 16 15 15 14 15 17 17 17 17 17 17 18 19
40 37 36 34 33 33 31 28 26 24 23 21 20 20 18 19 19 17 17 16 16 16 16 15 16 16 17 17 18 18 17 16 16 16 16 16 17 16 16 17 18 19 20
43 43 40 37 35 35 35 32 29 26 24 22 21 20 19 18 18 17 17 17 18 17 17 18 18 19 19 18 19 18 17 16 16 17 16 16 15 16 16 17 19 20 22
42 43 44 40 35 34 32 30 28 26 27 25 22 22 20 20 20 20 19 19 21 20 20 20 19 19 19 18 19 19 18 17 17 16 16 16 17 17 17 19 20 22 23
42 42 42 42 39 37 36 33 32 33 31 30 27 25 24 24 23 22 21 21 21 21 21 20 19 19 17 17 17 17 18 19 19 18 17 18 18 19 23 23 23 25 26
55 53 47 44 43 42 42 41 40 37 35 33 31 28 28 27 25 23 22 21 21 22 22 22 20 19 18 18 17 18 20 21 21 21 22 24 25 28 24 25 26 28 29
48 54 55 49 47 47 47 46 45 42 40 36 34 32 32 32 29 27 24 23 24 23 23 23 22 20 20 20 19 21 22 24 24 24 24 24 24 24 25 27 29 31 33
38 46 51 53 55 51 49 47 47 49 45 45 43 39 35 34 32 29 26 25 25 25 24 24 25 23 22 22 23 23 24 26 25 26 26 26 27 27 28 30 32 34 36
38 39 42 45 47 54 59 62 57 53 53 45 40 35 35 34 35 33 31 28 27 25 23 26 26 28 27 25 26 24 26 26 27 29 29 30 30 30 31 33 35 37 40
37 41 42 43 43 42 44 48 53 56 52 50 44 38 38 36 37 35 34 32 30 26 22 24 27 30 31 29 29 28 29 28 28 32 33 33 33 33 34 36 38 41 44
14 20 31 41 43 45 44 45 46 51 51 48 48 44 42 41 39 38 35 35 34 30 25 25 28 32 33 34 32 30 31 31 29 32 35 35 35 35 36 38 41 44 47

GFSSE_700_spd_060.txt.gz
Wind_Speed
10 6 4 3 5 6 9 11 10 9 8 8 9 8 8 8 8 8 8 9 10 8 6 4 2 2 3 5 6 8 9 9 8 7 6 6 6 6 7 8 9 9 10
13 8 9 8 8 7 8 11 11 10 8 8 8 7 6 6 7 7 7 7 7 7 6 6 4 2 1 3 5 6 5 5 5 5 5 4 5 6 7 8 9 10 10
15 13 11 9 8 7 6 8 9 8 7 7 6 7 7 6 6 7 7 6 6 6 5 5 4 3 4 3 2 1 1 1 1 2 3 5 6 7 8 9 9 9 9
15 17 12 12 9 7 6 8 9 8 7 7 7 7 7 7 7 6 6 6 6 5 5 4 3 3 5 3 2 2 2 2 2 3 4 6 7 7 8 9 9 9 8
17 18 15 13 11 8 5 7 6 7 7 7 8 8 8 7 7 6 6 5 4 4 4 4 4 4 3 2 2 2 2 3 3 4 5 6 7 8 9 9 7 7 7
15 16 15 14 12 7 4 5 5 6 7 7 7 7 7 7 7 6 6 6 5 5 4 4 3 2 1 1 1 1 1 2 2 3 4 5 6 7 7 7 8 8 7
13 15 15 15 13 8 5 4 3 2 4 7 7 6 6 6 7 7 7 6 5 5 4 4 3 3 3 3 3 3 3 3 3 3 4 5 6 7 7 8 9 10 10
13 14 16 16 14 10 8 4 2 3 1 3 5 5 6 8 8 7 6 5 5 5 5 4 4 4 4 5 4 3 3 3 4 4 5 6 6 8 8 9 10 10 10
17 15 17 17 16 13 11 6 6 4 5 2 3 3 3 4 7 8 6 5 5 5 5 4 4 4 5 5 4 4 5 4 4 5 5 7 8 9 10 10 11 9 10
13 16 19 19 17 16 13 11 10 6 7 7 4 4 5 4 3 6 7 6 5 5 5 5 5 6 6 6 6 6 6 7 7 8 8 8 9 10 11 12 12 12 12
12 17 16 19 19 19 15 13 12 10 9 9 8 7 7 7 6 4 3 5 5 4 4 5 6 6 7 7 8 8 9 9 9 10 10 10 10 10 12 13 13 14 14
16 13 14 16 19 18 16 17 16 13 12 12 10 10 10 9 8 7 6 4 3 4 3 4 4 5 6 7 8 9 9 10 11 11 12 13 13 11 13 15 14 14 15
16 19 17 18 19 20 17 17 17 15 15 14 13 12 12 12 11 10 9 9 7 7 7 7 6 6 6 8 10 11 11 12 12 12 12 13 14 13 13 15 15 15 15
19 19 18 17 21 21 19 18 16 17 17 16 15 14 14 15 14 13 12 12 12 11 10 10 10 8 7 8 10 12 13 13 13 13 13 14 14 14 14 15 16 16 15
22 20 20 21 19 19 20 19 18 18 17 16 17 16 16 16 16 16 16 15 14 14 14 12 12 12 11 11 12 12 14 15 14 14 14 14 14 14 14 15 15 15 15
26 23 24 25 25 23 21 22 21 20 19 18 18 17 18 18 18 18 18 17 17 16 16 15 14 15 15 15 15 16 16 16 15 14 15 15 15 15 14 15 16 15 15
28 30 30 31 32 31 28 25 22 21 19 21 20 19 18 18 19 20 19 18 18 18 17 16 15 15 17 18 19 18 17 17 16 15 16 16 16 15 15 15 16 17 17
35 36 34 33 32 33 33 32 30 29 27 25 22 21 19 18 20 20 18 18 19 19 18 17 17 18 20 20 19 18 18 17 16 16 16 16 16 15 15 15 15 17 19
40 38 36 37 35 33 34 35 33 32 30 27 25 23 21 19 20 20 19 20 21 20 19 20 21 20 21 20 19 18 17 16 16 17 18 18 17 17 17 17 19 21 21
43 42 41 41 40 37 36 35 33 32 30 29 25 25 24 22 23 22 22 22 22 21 20 21 21 21 21 21 19 18 16 15 17 18 19 19 19 20 20 24 28 25 24
50 46 44 45 44 42 40 38 36 33 32 31 30 29 27 27 27 27 24 24 23 22 22 23 23 23 22 22 21 19 18 18 19 20 21 22 22 24 24 22 24 25 26
50 52 55 50 47 46 44 44 43 39 38 35 33 31 31 31 30 29 27 26 25 25 26 26 23 24 24 23 22 22 21 22 21 22 23 24 25 26 25 26 27 27 28
45 42 42 45 55 55 52 50 48 46 46 45 40 38 35 34 34 31 31 29 29 27 28 27 24 25 26 24 23 24 25 25 24 23 24 25 26 27 28 29 30 30 32
38 38 37 36 38 47 54 57 55 53 52 50 47 41 39 39 39 37 35 33 31 31 30 29 27 26 28 25 25 29 29 28 26 29 26 28 28 30 32 33 33 34 35
30 35 36 36 36 38 45 53 56 60 59 56 53 50 46 43 38 35 33 33 32 34 32 31 29 26 24 27 30 28 33 32 30 32 30 30 31 32 34 35 36 37 38
17 21 27 31 36 39 40 42 44 46 48 50 52 54 53 47 46 43 39 36 34 33 34 33 32 29 27 31 32 28 36 37 33 34 33 35 35 35 36 35 37 39 41

GFSSE_700_spd_063.txt.gz
Wind_Speed
10 5 5 5 7 8 10 11 10 10 9 9 8 7 7 7 7 7 8 9 9 9 7 5 3 3 3 4 4 5 5 6 6 6 6 5 3 4 5 5 6 7 9
13 7 7 6 7 8 8 9 8 9 8 7 7 7 6 7 7 8 8 8 8 8 8 7 5 5 3 2 2 3 3 3 3 4 3 2 2 4 5 5 6 7 8
15 13 10 8 9 9 8 8 11 9 7 7 6 7 7 7 7 7 7 7 7 7 7 7 7 6 6 4 3 3 2 2 2 1 1 1 3 4 5 6 7 7 8
17 17 13 11 10 10 9 8 9 8 7 8 8 7 7 7 7 7 6 7 7 7 7 5 4 6 7 6 4 3 2 1 1 0 1 2 3 4 5 6 6 7 6
19 19 16 14 13 10 8 8 8 9 7 7 8 8 8 8 8 7 7 7 7 7 6 5 4 5 5 4 1 1 1 1 1 1 2 3 3 4 5 5 6 6 6
17 20 18 15 14 11 6 8 7 7 7 8 7 7 7 8 8 8 8 8 7 6 5 4 3 4 4 2 2 3 3 2 2 2 2 2 3 4 5 6 6 6 6
16 19 18 17 16 11 6 4 5 4 4 6 7 7 8 9 8 8 8 7 7 6 6 5 5 5 3 2 3 3 2 1 1 1 2 3 4 5 5 6 7 8 8
16 17 17 18 18 13 11 7 2 2 1 3 4 5 6 8 10 8 6 6 6 6 5 5 5 5 5 4 3 3 2 1 2 3 4 4 5 6 7 8 8 8 8
16 18 18 18 18 15 12 9 5 1 1 3 0 2 2 3 6 8 7 6 5 4 4 4 5 5 4 4 3 2 2 3 3 4 5 6 7 7 8 9 9 9 9
17 16 19 19 19 17 15 13 9 6 4 6 4 2 2 2 1 3 5 5 5 4 4 4 4 4 4 4 4 4 4 4 5 5 6 7 8 9 10 11 10 11 12
14 16 18 19 20 19 17 15 13 12 8 8 7 6 5 4 4 3 2 2 2 3 3 3 4 4 4 4 5 5 6 6 6 7 7 6 7 8 10 11 11 12 12
12 10 15 15 19 20 19 16 15 15 13 10 10 9 8 8 8 7 6 6 4 4 3 3 3 2 2 3 5 6 7 8 8 7 8 8 8 8 10 10 11 11 12
14 14 14 13 15 18 18 18 17 18 17 14 13 12 11 11 11 10 10 9 9 9 8 7 7 6 5 4 5 7 9 10 10 10 10 10 10 10 11 11 11 11 12
13 16 18 17 17 18 19 18 17 18 19 16 16 16 14 13 13 13 13 13 13 13 13 11 10 10 9 8 8 9 10 12 13 13 13 13 12 11 11 11 11 11 11
20 20 19 20 19 18 19 19 18 18 18 18 18 18 17 16 15 16 16 16 16 16 16 15 14 12 12 12 12 13 13 14 15 15 14 14 14 13 12 12 12 11 10
23 23 21 22 23 22 20 20 19 20 20 20 20 19 19 18 18 19 19 19 18 18 18 17 15 14 14 15 15 16 18 18 17 16 15 15 14 14 14 13 12 11 10
27 26 24 25 24 23 25 24 24 23 21 21 22 21 21 21 21 21 22 21 20 20 19 18 17 16 16 16 17 19 19 19 18 17 16 15 15 15 15 14 14 13 12
32 32 31 31 30 30 29 28 29 27 26 25 25 23 24 23 22 22 22 22 21 20 20 19 18 18 19 19 20 20 19 18 17 17 16 16 16 16 15 15 14 14 14
37 36 35 35 35 33 30 28 29 30 31 31 30 29 27 25 23 23 23 23 22 21 21 20 20 21 21 21 20 19 19 19 18 17 15 17 18 18 17 17 17 19 22
40 41 41 40 38 34 35 31 30 32 31 31 31 31 28 26 25 24 24 24 23 22 23 21 22 22 22 23 21 21 20 20 19 17 17 18 19 20 21 21 23 23 21
47 46 45 45 42 40 39 37 33 31 29 29 29 29 28 28 27 27 25 26 24 24 24 25 25 25 24 24 24 23 21 21 20 20 20 20 21 22 22 24 24 24 24
52 52 51 49 45 45 44 42 41 35 35 30 31 31 31 31 31 31 31 30 29 27 27 27 26 26 26 26 25 25 24 22 21 21 22 23 23 23 24 26 26 26 28
46 47 50 50 50 51 53 50 47 43 43 39 36 34 32 32 31 31 32 32 32 32 31 29 29 29 27 27 27 28 27 25 22 23 24 25 25 25 26 27 28 30 32
37 39 40 40 42 44 44 49 54 53 47 44 43 41 39 37 36 35 35 35 35 34 34 33 31 31 30 29 31 30 29 31 28 29 27 27 29 30 30 32 32 33 35
28 34 36 35 34 37 38 41 42 49 53 52 51 48 46 45 43 39 38 35 36 40 38 36 34 34 33 32 32 30 31 32 34 32 32 33 28 34 35 34 36 36 37
16 19 24 29 34 37 38 36 34 34 38 43 48 52 53 54 53 52 51 46 43 38 37 36 36 36 35 35 32 29 32 34 34 31 37 35 39 34 38 37 37 38 38

GFSSE_700_spd_066.txt.gz
Wind_Speed
9 7 7 6 6 7 7 7 7 7 6 6 6 6 6 7 8 8 8 8 9 8 6 4 3 4 5 6 6 6 5 5 6 6 5 5 4 4 4 4 5 6 7
13 8 8 6 7 8 9 10 8 7 6 6 7 6 7 7 8 8 8 8 8 7 6 5 5 4 4 4 5 5 4 4 4 4 4 4 4 4 4 5 5 6 6
14 14 11 8 8 10 9 10 10 8 8 8 6 7 7 7 7 7 7 8 8 7 6 5 5 4 4 3 3 2 2 1 1 1 2 3 3 4 5 5 6 7 7
18 18 14 9 9 9 9 8 9 8 7 6 6 6 6 6 6 5 6 6 6 5 5 5 6 5 6 5 4 3 2 2 1 1 2 3 3 4 5 5 5 6 6
20 20 17 13 11 11 10 9 8 7 6 6 6 5 5 5 5 6 6 5 5 4 4 3 4 6 4 3 2 1 1 1 2 2 2 2 3 4 5 4 5 6 6
20 22 20 17 14 12 10 9 8 6 5 5 5 5 5 6 6 6 5 6 5 5 4 4 4 5 4 3 2 2 1 1 1 1 2 2 3 4 5 5 5 7 7
18 21 20 19 16 14 11 3 6 5 3 4 5 6 8 7 5 5 5 5 6 6 5 5 5 4 3 2 2 2 2 1 1 1 2 2 3 4 6 7 7 8 8
16 18 20 20 19 16 14 10 4 2 1 2 4 4 5 6 8 7 6 5 5 5 5 5 5 4 3 3 3 2 1 2 2 2 2 3 4 5 6 6 7 7 7
16 18 20 20 21 18 16 14 10 5 3 4 3 2 1 2 4 6 6 6 5 5 4 4 4 3 2 2 2 1 1 2 2 3 3 4 5 5 6 6 7 8 8
15 18 21 21 22 21 19 17 15 9 5 5 6 3 1 2 1 2 4 5 4 5 4 4 3 3 2 2 2 1 1 2 3 4 5 5 5 6 7 8 7 8 9
17 15 17 21 22 22 21 19 17 15 11 8 8 8 6 5 4 4 3 3 2 2 3 3 3 3 2 3 3 4 4 5 5 5 6 7 7 8 9 9 10 9 9
16 16 18 17 21 23 24 22 20 18 16 14 12 11 10 8 8 8 7 7 6 5 4 4 4 5 5 6 6 7 7 8 8 9 8 8 7 8 9 9 9 10 10
17 17 13 17 19 22 22 22 20 19 18 17 16 14 14 13 12 11 11 11 10 10 10 9 9 9 9 8 8 8 9 9 10 11 12 11 10 9 9 9 9 10 10
17 19 19 18 17 18 21 21 20 19 20 20 20 18 17 17 15 14 14 14 14 14 14 14 13 13 12 12 12 12 12 12 12 13 14 14 13 11 11 11 10 10 9
23 21 21 21 20 19 20 21 20 20 20 22 22 21 20 20 19 18 17 17 17 17 18 17 17 16 15 15 16 15 15 15 17 17 17 16 14 14 13 12 12 11 9
26 26 23 23 25 23 21 21 22 21 21 22 23 23 23 23 22 21 21 21 21 21 20 20 19 18 18 17 18 18 18 18 19 19 19 17 16 14 13 13 12 11 11
29 29 28 25 24 26 25 23 22 22 22 22 24 25 25 25 25 24 25 24 24 24 23 23 22 21 20 19 20 20 20 21 21 19 19 19 17 16 14 14 13 13 12
33 32 32 28 25 26 26 26 26 28 27 26 24 26 26 25 26 26 27 27 27 26 25 24 23 22 21 21 21 21 22 22 20 19 20 20 18 17 16 16 16 16 15
37 36 35 33 31 30 32 32 31 32 32 33 32 30 29 27 27 28 29 29 29 28 27 26 24 24 24 23 23 23 23 22 21 21 21 20 19 18 19 19 18 19 20
41 41 39 39 38 36 37 37 37 36 33 34 34 35 35 34 33 32 31 30 30 29 28 27 26 25 25 25 25 25 25 24 23 23 22 22 21 20 21 21 22 23 24
46 46 46 45 43 43 42 41 39 37 34 33 31 32 33 35 35 35 33 32 31 28 28 27 28 28 28 27 27 27 27 26 25 24 24 24 24 23 23 23 24 25 26
47 48 48 47 45 45 45 42 41 38 38 36 34 31 32 32 32 33 34 34 33 30 30 31 31 30 31 30 29 29 30 30 28 26 26 26 26 26 26 26 25 27 28
48 50 51 50 50 50 48 47 46 45 45 43 40 35 33 31 31 32 35 34 35 35 35 35 34 33 33 31 32 32 33 32 29 29 29 29 29 28 29 29 29 30 31
38 40 43 46 49 50 49 52 53 52 50 46 45 43 39 36 33 34 35 34 35 36 36 38 36 36 37 35 36 35 34 35 32 34 33 34 33 30 30 33 32 33 34
27 31 35 37 38 40 39 41 42 44 44 40 43 47 45 43 40 41 41 39 40 39 39 39 39 40 41 40 38 37 36 36 35 36 38 37 36 36 35 37 39 37 39
16 17 21 26 32 37 38 38 37 38 37 37 36 40 45 49 50 47 47 46 45 45 42 42 40 41 44 44 41 41 39 38 37 36 35 40 39 36 38 42 42 45 44

GFSSE_700_spd_069.txt.gz
Wind_Speed
8 7 7 5 6 6 6 6 7 7 6 6 6 7 7 8 8 8 8 8 8 8 7 5 3 3 4 6 7 7 7 7 7 6 5 5 4 4 4 5 6 7 8
12 8 8 6 8 9 10 9 7 6 6 6 5 5 6 6 6 7 7 8 8 8 7 6 4 3 3 2 3 4 4 4 4 4 4 2 3 3 4 6 7 7 7
15 12 10 7 9 10 10 10 9 8 7 6 5 5 5 5 6 7 7 7 7 6 6 5 5 4 4 3 2 3 2 1 1 1 1 2 3 4 5 5 6 6 7
17 16 13 9 9 10 9 8 8 7 7 5 5 5 5 6 7 7 7 7 6 6 5 5 5 5 5 5 4 3 2 1 1 1 1 2 3 4 4 4 5 5 6
20 19 15 12 10 10 8 7 7 6 5 5 4 5 5 6 6 6 7 6 5 4 5 5 6 4 3 3 2 1 1 1 1 1 1 2 3 3 3 4 5 5 6
22 21 18 15 12 11 9 6 5 5 4 5 5 5 6 5 6 6 6 6 5 5 5 5 4 2 2 2 2 1 1 1 1 1 1 1 2 3 5 5 6 7 8
22 21 21 19 16 14 13 7 6 5 5 4 5 6 6 7 5 5 5 5 5 6 6 5 3 3 2 2 1 1 1 1 0 1 1 2 3 4 5 6 6 6 7
20 20 23 21 19 17 15 11 6 4 3 2 3 3 5 6 6 6 5 5 5 5 4 4 3 3 3 3 2 2 2 2 2 3 4 3 4 5 5 6 7 6 7
17 19 21 21 21 19 17 15 10 6 3 2 2 2 1 1 3 5 6 5 5 5 5 5 4 4 4 3 3 3 4 5 5 6 7 6 6 7 7 7 8 8 9
14 17 20 22 23 22 19 18 15 11 6 4 5 5 3 2 2 1 3 4 4 5 5 5 5 4 4 3 3 4 4 5 6 6 7 7 7 8 8 8 8 9 9
16 15 19 21 23 24 22 20 19 16 12 9 8 10 8 6 4 4 4 3 3 4 4 3 3 4 3 3 4 4 4 5 6 7 7 7 7 9 9 8 8 8 9
17 15 13 15 21 23 24 22 21 19 18 15 13 12 12 11 9 8 8 7 6 6 5 5 5 6 6 6 7 7 7 8 8 9 9 9 9 11 10 10 10 10 9
20 19 17 17 18 21 22 23 22 21 20 19 17 16 15 14 13 12 11 11 11 11 10 11 11 10 10 10 10 10 11 11 12 12 13 13 11 12 11 11 11 10 10
22 22 20 17 17 18 20 22 22 22 21 21 20 20 19 18 17 17 15 14 14 15 15 15 15 15 14 14 14 14 14 14 16 16 15 16 14 14 12 12 11 11 11
24 24 24 23 20 19 19 21 23 23 22 22 23 23 22 22 20 20 19 18 17 17 18 18 18 18 18 17 17 17 18 18 18 18 21 19 17 15 14 13 12 12 11
26 24 24 25 25 23 22 21 21 22 23 23 23 24 25 24 25 23 23 22 21 21 21 21 22 21 21 20 20 20 20 20 20 21 24 20 18 17 15 14 14 13 12
30 29 27 27 26 25 25 25 24 24 25 24 23 23 26 26 27 26 26 26 24 24 24 25 25 25 24 24 23 22 22 22 22 23 24 21 19 18 18 16 15 15 14
35 34 32 30 30 28 25 26 27 26 25 25 26 25 25 26 27 28 28 29 28 27 27 28 28 28 27 26 25 24 24 24 24 23 22 23 20 20 20 18 18 18 17
38 36 35 33 32 31 28 28 29 28 28 28 28 30 30 29 28 29 28 29 30 30 30 31 30 30 29 28 28 27 25 25 25 24 23 23 23 23 20 19 19 20 20
38 38 37 37 36 35 34 33 33 34 34 34 32 32 34 35 34 33 33 32 32 34 33 33 31 30 30 30 30 30 29 27 26 26 25 24 24 24 24 21 22 22 22
42 42 41 41 40 40 40 38 38 38 37 38 35 33 32 35 37 36 36 36 37 37 35 33 33 32 32 32 33 33 32 30 29 28 27 27 26 25 27 26 24 25 25
43 44 45 45 44 45 44 46 43 42 42 42 40 37 36 35 37 38 37 36 36 36 37 34 33 32 33 33 34 34 36 35 32 30 30 30 29 28 29 29 28 29 28
42 43 45 46 47 47 47 47 49 46 48 45 43 40 37 37 37 37 37 35 35 36 36 35 34 33 34 35 35 38 39 39 34 33 31 31 33 32 31 31 31 32 32
40 42 43 44 45 46 47 48 49 50 48 48 47 46 44 42 41 40 37 37 37 37 37 35 37 36 37 39 38 40 41 38 36 37 35 34 35 36 35 35 35 36 34
31 33 34 35 37 38 40 43 46 49 49 45 44 44 44 45 44 43 41 41 42 41 41 40 39 40 39 40 40 41 41 41 40 39 41 37 38 39 39 38 38 41 40
21 22 23 26 31 35 36 37 38 38 39 39 39 37 38 40 42 45 46 45 46 47 46 45 45 44 42 43 44 43 44 45 43 41 41 43 41 39 40 41 43 41 41

GFSSE_700_spd_072.txt.gz
Wind_Speed
8 9 8 7 6 6 6 6 6 7 7 7 7 8 8 8 8 7 7 8 8 7 7 6 5 4 3 4 6 6 6 6 5 5 4 4 3 3 4 5 6 6 7
11 10 9 8 9 9 8 7 6 6 6 6 6 7 7 7 7 7 7 7 7 7 7 7 6 5 4 4 4 4 3 3 4 3 3 1 1 2 4 5 5 6 7
13 11 11 9 10 10 9 8 8 7 7 6 6 6 6 6 6 7 6 7 7 7 7 7 8 7 5 4 3 2 2 1 1 1 0 1 2 3 4 5 6 6 6
15 15 12 10 11 11 9 8 8 7 7 7 6 6 7 6 7 7 7 7 8 8 9 7 8 7 7 6 5 4 3 2 1 1 1 2 3 3 3 4 4 5 5
16 17 15 12 11 10 8 8 8 7 6 7 6 6 6 7 7 8 8 8 8 9 10 7 6 5 5 4 3 2 2 1 1 2 2 2 3 3 2 3 5 5 6
20 18 17 14 12 11 7 6 7 8 6 6 5 5 5 5 7 7 8 8 9 9 8 6 5 4 4 4 4 3 3 2 2 2 4 4 4 5 5 5 6 7 7
19 22 20 18 15 13 10 7 5 6 7 7 6 7 7 8 6 5 6 7 8 7 7 7 6 6 6 5 5 4 3 4 4 4 4 3 4 5 5 6 7 6 6
20 23 23 20 18 16 14 9 6 6 5 5 5 4 5 7 8 8 7 7 6 6 6 6 6 6 6 5 4 4 4 4 5 5 5 5 5 5 5 6 6 6 6
20 21 23 22 20 18 16 12 9 5 4 2 3 3 4 4 5 7 7 7 6 7 6 7 6 6 5 5 5 5 5 5 6 6 5 5 6 5 6 7 7 7 7
15 19 22 23 22 21 19 16 14 11 6 3 0 2 2 3 2 3 5 6 6 6 5 5 5 5 5 6 5 5 6 6 7 8 7 7 8 8 7 8 8 8 8
14 16 19 21 22 22 21 20 17 15 12 7 6 5 6 4 3 2 3 3 3 4 5 5 5 5 5 5 6 6 7 8 8 9 9 9 10 10 10 10 9 9 8
15 16 13 18 20 23 23 22 21 20 16 13 10 9 9 9 8 7 6 6 6 6 6 6 6 6 7 7 8 8 9 9 10 10 11 11 12 12 11 11 10 10 9
17 18 20 16 16 19 21 22 22 21 20 18 15 15 14 12 12 12 11 10 10 11 11 11 11 11 10 10 12 12 12 12 12 12 13 14 14 16 14 13 11 10 10
20 20 20 21 21 19 17 20 22 23 21 21 20 18 17 16 15 15 15 15 14 13 13 14 14 15 15 15 14 14 15 15 16 15 15 17 17 16 15 14 13 12 11
24 24 23 23 21 18 19 19 21 22 21 21 21 20 20 20 20 20 18 18 18 18 16 17 17 18 18 18 19 18 18 17 18 18 18 18 19 17 16 15 14 14 12
26 26 25 24 23 22 20 18 19 20 21 22 22 21 21 22 23 23 22 21 21 20 21 20 22 22 21 22 21 21 20 20 19 21 21 21 20 18 16 16 16 15 14
27 27 24 25 23 25 24 22 20 21 21 21 22 22 22 23 24 25 25 24 24 23 23 23 24 25 25 25 24 24 24 22 22 23 23 23 19 18 18 17 17 17 16
32 31 29 27 25 24 25 26 24 25 24 24 23 23 23 23 24 25 26 25 25 25 25 26 27 27 28 28 27 27 25 25 24 24 27 23 20 18 19 19 19 19 18
35 37 35 32 29 27 28 29 27 26 26 27 27 25 25 24 26 28 28 27 26 26 26 26 27 29 29 30 30 30 28 27 27 26 25 27 22 20 20 21 21 22 22
37 35 34 33 32 30 31 32 32 30 29 30 28 28 29 29 28 29 31 32 33 33 30 29 29 30 31 31 32 33 31 30 29 28 28 27 27 25 22 22 23 24 25
39 38 37 37 36 37 35 35 34 34 32 32 32 33 34 34 32 30 30 32 34 37 36 35 34 33 31 32 33 35 34 32 30 32 31 30 28 27 29 25 25 27 28
40 40 39 39 39 39 39 40 37 37 36 37 37 37 37 37 37 36 35 33 33 36 38 36 36 35 32 31 32 33 35 35 34 32 34 33 32 30 30 31 28 29 30
39 40 40 41 42 42 41 41 44 43 43 41 42 41 40 40 40 39 38 37 35 36 36 37 35 36 34 32 33 32 34 37 35 34 34 35 35 34 32 34 33 32 31
35 36 37 38 39 41 43 44 46 47 47 45 43 44 44 43 42 43 44 41 40 40 39 38 39 37 39 36 37 36 36 39 38 38 35 35 36 38 36 34 37 36 37
33 34 34 35 36 36 37 38 40 44 45 46 42 39 38 39 41 42 44 45 43 44 43 42 41 42 42 42 40 39 39 40 41 41 41 41 43 41 39 39 42 40 41
26 27 27 28 28 30 31 32 35 36 38 40 41 38 34 35 36 36 35 38 44 48 48 45 44 44 46 44 44 45 44 42 43 43 43 42 42 42 43 45 45 45 44

GFSSE_700_spd_075.txt.gz
Wind_Speed
13 12 10 8 6 6 6 6 6 6 7 7 6 6 6 7 6 7 7 7 8 9 8 6 4 3 3 3 4 5 6 6 5 4 4 3 3 3 4 5 6 7 6
13 13 11 10 9 7 7 6 6 6 6 6 6 6 6 7 7 7 7 8 9 8 8 8 7 6 4 3 3 1 1 2 3 3 2 1 2 3 4 5 5 5 5
14 13 12 12 12 10 8 6 6 6 6 6 7 7 7 7 7 8 8 9 8 7 6 8 8 7 6 5 4 3 2 2 2 2 1 1 2 3 4 4 5 5 5
16 15 14 13 13 11 10 8 7 6 6 7 7 7 7 8 8 9 9 9 8 8 7 7 7 8 7 6 5 3 2 3 2 1 2 2 3 3 3 4 5 5 6
18 18 16 14 14 12 9 9 10 7 6 7 7 7 7 8 9 9 10 9 9 9 8 7 7 7 6 5 4 4 4 3 3 3 3 4 4 3 5 5 6 5 6
19 20 18 16 15 12 8 7 7 11 8 7 7 7 7 7 7 8 8 8 9 9 10 10 8 7 6 5 5 5 5 5 5 4 4 4 5 5 5 5 5 5 6
21 22 20 18 16 13 8 6 5 7 10 9 7 7 8 8 8 7 7 8 9 9 10 11 10 8 7 7 7 6 5 6 6 5 5 5 5 5 5 5 5 6 5
21 23 22 20 18 16 11 7 5 4 6 10 10 8 7 8 8 9 9 9 9 8 9 8 8 7 7 6 6 6 6 6 6 5 5 5 5 5 6 6 6 6 6
20 24 24 23 20 18 15 10 8 5 4 5 8 8 7 7 7 8 9 9 8 8 9 8 8 8 7 7 7 7 8 8 9 7 7 6 6 7 7 8 7 7 7
20 22 25 23 22 20 18 16 12 10 6 1 3 6 7 7 7 6 6 8 8 8 8 8 7 6 7 7 8 8 8 9 9 9 9 9 9 9 9 9 9 8 8
17 20 23 24 23 22 21 19 16 13 10 6 4 1 2 3 5 5 5 4 5 6 8 8 8 8 8 8 8 8 9 9 9 9 9 10 11 10 10 10 10 9 9
15 17 20 21 22 22 22 21 20 17 14 10 10 9 5 5 5 5 5 6 7 7 7 7 8 8 8 8 9 10 11 11 11 11 11 12 13 13 13 11 11 10 10
13 16 16 19 21 21 20 21 20 20 18 17 15 13 12 10 10 10 9 8 8 8 9 10 11 12 12 12 12 12 13 12 12 13 14 13 14 16 16 14 12 11 11
16 16 17 20 17 16 17 18 20 20 20 20 19 18 17 14 13 13 13 12 12 12 12 12 12 14 15 15 16 17 17 15 14 14 15 15 15 17 17 15 13 13 12
19 18 18 18 20 21 22 20 18 18 19 20 20 20 20 17 16 17 17 16 16 16 16 16 16 15 16 17 18 19 20 19 17 17 16 15 17 18 17 15 14 14 13
22 21 21 19 19 18 18 17 18 20 20 20 20 21 21 19 18 18 19 20 19 20 19 19 20 19 19 20 21 21 21 23 20 19 20 17 18 19 17 16 15 15 14
26 24 23 22 21 20 18 19 20 18 18 17 18 19 20 20 20 21 21 21 22 22 23 22 22 23 22 22 22 23 24 24 24 22 21 20 20 20 19 18 17 16 16
31 28 26 23 22 22 22 21 21 21 21 20 21 21 20 19 19 20 19 19 20 22 24 24 24 24 25 24 25 25 26 25 25 26 24 22 22 20 21 20 20 18 17
31 33 32 31 28 25 25 25 23 22 22 22 22 22 21 21 21 21 21 22 24 25 25 25 25 26 26 27 27 28 29 29 27 28 27 25 24 23 22 23 22 21 20
31 33 36 36 33 30 28 28 28 27 27 27 24 24 25 25 24 25 25 25 26 27 28 28 29 31 31 32 31 31 32 32 32 30 30 28 27 25 25 24 24 24 24
31 32 33 36 34 35 32 31 31 31 30 30 28 27 27 27 28 29 29 29 29 29 28 29 30 31 31 32 33 33 32 32 32 31 31 31 31 28 27 27 27 27 27
33 34 37 34 33 34 35 35 34 33 34 34 33 32 32 32 32 33 32 32 31 33 33 31 31 30 31 33 33 33 35 33 31 30 31 32 32 34 31 28 30 29 29
37 36 36 35 37 37 38 39 39 37 37 37 36 36 35 35 36 36 36 37 36 35 35 35 34 34 35 34 35 34 37 37 34 32 32 32 33 34 34 32 29 32 32
33 36 36 36 36 38 39 41 42 41 41 39 38 39 39 40 41 40 39 39 40 41 41 39 38 37 38 37 37 38 38 38 38 39 36 35 36 36 35 34 34 43 37
32 33 34 34 34 35 37 39 40 40 39 39 39 39 39 41 42 41 43 44 45 44 43 41 41 40 43 43 42 42 41 42 42 42 41 40 40 39 40 37 38 40 39
33 34 33 32 32 32 32 33 35 37 36 37 37 37 34 34 33 35 36 36 37 38 37 38 40 43 45 46 47 45 44 43 43 45 45 44 42 46 47 42 40 41 45

GFSSE_700_spd_078.txt.gz
Wind_Speed
13 11 10 8 7 7 6 5 5 5 5 5 5 4 5 5 6 6 7 8 8 8 6 5 4 3 4 5 5 6 8 5 4 4 4 3 3 3 4 5 6 7 6
13 11 12 11 9 8 6 5 5 5 5 4 4 5 5 6 6 7 6 6 7 6 6 7 6 4 3 2 2 2 1 2 3 3 3 3 3 4 4 5 6 6 6
19 14 14 13 12 10 8 6 6 6 5 5 5 6 6 7 7 8 8 7 6 5 6 7 6 5 5 3 3 3 3 4 4 3 3 3 4 4 5 5 5 5 4
18 15 15 15 14 12 11 9 7 6 6 6 6 6 7 7 8 9 8 8 8 7 6 7 7 7 6 5 6 5 5 4 4 4 4 5 4 4 4 4 5 5 5
18 18 17 17 16 13 10 11 11 7 6 6 6 6 6 7 7 8 8 9 10 9 7 6 6 6 5 6 7 7 6 6 5 5 5 4 4 5 6 5 6 6 6
20 20 19 18 17 14 11 8 9 13 10 8 7 7 7 6 7 7 8 10 10 10 9 8 7 7 7 8 8 7 6 6 6 5 5 6 6 5 5 6 6 6 6
23 23 22 20 19 16 12 9 7 8 12 12 9 8 8 8 9 9 9 9 9 9 9 10 10 9 10 10 10 9 8 8 7 7 7 6 6 6 6 7 6 6 7
23 24 24 22 21 18 13 10 6 4 7 10 13 11 9 9 10 10 10 10 10 11 10 10 10 11 11 10 10 9 9 9 8 8 8 8 8 7 7 7 7 7 7
24 26 26 24 23 21 16 11 8 4 3 6 9 12 12 11 10 10 10 10 11 10 10 10 11 10 10 10 10 10 10 9 9 9 9 8 8 9 9 9 8 8 7
22 28 28 27 24 22 19 14 11 7 5 3 3 7 11 11 11 10 10 9 10 10 11 11 10 10 10 9 9 9 9 9 9 9 9 9 9 9 10 10 10 9 9
25 27 30 29 26 23 20 18 14 11 8 7 5 2 2 7 7 9 8 7 8 8 7 8 8 9 10 11 11 11 11 10 10 9 10 11 11 11 11 11 11 10 9
20 23 28 28 26 23 21 18 16 14 12 12 11 8 5 4 2 2 4 4 5 6 6 6 7 8 9 9 10 11 12 11 11 12 12 13 13 13 14 13 11 11 10
17 18 22 25 24 21 20 21 20 19 18 16 15 12 10 9 8 8 8 8 8 7 6 6 8 9 10 11 11 11 12 13 12 13 14 15 15 15 16 15 13 11 11
15 13 14 17 20 20 20 20 20 20 20 20 19 17 14 13 12 12 12 13 12 11 11 11 11 11 12 13 14 14 14 14 15 15 15 16 16 17 17 16 14 12 12
17 15 14 14 15 16 16 17 18 20 20 20 19 19 18 17 16 16 16 15 15 15 15 16 16 16 16 16 16 17 16 16 16 16 17 17 17 18 18 17 15 14 14
20 18 17 16 15 14 15 16 17 16 16 16 17 18 18 18 17 18 18 17 16 16 18 19 19 19 19 19 20 20 20 19 19 19 19 18 18 19 19 19 16 16 16
20 21 21 20 18 16 16 15 14 14 14 15 16 17 17 16 17 18 18 17 17 17 18 19 19 20 21 21 22 22 23 23 22 21 21 21 20 20 20 20 19 18 18
25 25 24 23 21 21 20 18 17 16 16 17 18 18 18 18 20 19 19 18 18 18 18 18 19 20 21 22 23 24 24 26 25 24 24 25 24 23 22 21 21 20 20
27 27 27 26 26 24 22 22 21 19 18 18 18 18 18 19 19 20 18 18 19 20 21 23 24 25 25 26 27 27 28 28 29 28 27 27 27 26 25 23 23 22 22
29 31 31 30 30 30 29 28 26 24 23 22 20 21 21 21 22 22 22 22 24 25 24 25 25 25 26 28 30 31 30 29 30 31 29 29 28 28 28 26 26 25 24
31 32 32 33 33 32 32 31 29 28 28 27 25 24 25 24 24 24 24 26 28 27 26 26 27 28 27 27 30 31 31 31 30 30 30 29 28 28 28 28 28 29 26
31 31 31 33 36 36 37 37 36 34 32 31 30 30 29 29 29 29 29 30 31 30 29 30 30 30 30 31 33 33 35 33 31 30 30 30 29 30 30 31 30 33 34
31 30 31 34 34 32 33 34 36 36 37 35 34 33 31 32 32 34 34 33 32 33 34 33 32 33 34 34 34 34 38 37 34 32 31 32 34 35 34 32 33 34 35
35 35 34 34 35 35 35 35 36 37 37 35 36 36 36 36 37 39 39 38 37 37 38 38 38 39 38 38 36 36 38 38 40 41 36 35 37 37 39 37 38 41 38
34 32 30 31 34 35 36 38 38 39 39 39 39 40 40 40 41 42 42 41 40 42 43 43 40 38 37 38 39 39 40 43 43 43 45 41 39 40 41 42 43 45 46
38 36 34 33 33 34 34 35 37 38 38 38 38 38 37 38 40 41 40 39 38 38 38 35 34 35 35 35 37 37 39 42 44 42 45 45 46 45 46 44 42 41 40

GFSSE_700_spd_081.txt.gz
Wind_Speed
11 9 9 7 6 7 6 5 4 4 3 4 3 4 5 4 4 4 5 6 7 7 5 3 3 5 7 7 6 6 5 5 5 5 5 5 5 6 7 8 9 8 8
9 8 11 9 8 7 7 6 4 4 3 3 4 4 4 4 4 5 6 6 7 8 7 7 5 3 2 3 4 4 4 4 5 5 5 6 6 7 7 8 8 8 7
13 9 12 11 10 9 8 7 7 6 5 5 6 6 6 6 7 7 8 8 8 9 10 10 9 9 9 8 8 7 7 6 6 7 6 7 7 7 7 7 7 7 7
18 14 13 12 11 12 11 9 7 6 6 7 7 7 7 8 8 9 10 10 9 9 9 10 10 10 10 10 8 7 6 6 7 7 7 8 8 6 6 7 8 8 8
21 17 16 14 12 13 12 13 12 7 7 7 7 7 7 7 8 9 10 11 11 10 10 10 11 10 10 9 8 7 8 8 8 9 9 9 9 10 9 10 9 9 9
21 20 19 19 15 12 10 11 13 14 10 8 8 7 7 7 7 8 9 10 11 11 12 13 12 13 12 10 10 10 9 10 10 10 9 9 10 10 9 9 9 10 10
23 23 21 21 18 14 11 10 9 12 14 14 10 9 9 10 10 11 11 11 11 11 11 12 13 12 12 12 12 12 12 12 11 11 10 11 10 9 9 9 9 9 9
25 25 24 23 21 16 12 10 8 8 9 12 15 14 12 11 12 12 12 12 12 12 13 13 13 13 13 13 14 14 13 13 13 12 12 11 11 11 11 10 10 10 10
26 27 26 24 23 20 15 12 9 7 6 8 10 13 14 14 14 13 13 12 12 13 12 12 11 11 11 11 11 11 11 11 11 11 12 11 11 11 11 11 10 10 10
24 29 28 27 25 23 18 15 12 8 6 6 7 8 10 13 14 14 13 13 13 12 12 11 11 11 11 12 12 12 12 11 12 12 12 12 12 12 13 13 12 11 10
25 30 30 29 26 24 22 18 15 11 8 8 5 4 4 5 8 12 11 9 10 11 11 11 10 10 11 11 12 11 11 12 12 12 12 13 14 13 14 14 13 12 11
27 27 30 31 29 27 24 21 17 13 11 11 10 7 5 4 3 1 2 4 5 6 5 6 8 9 10 11 12 11 11 10 10 11 12 13 14 14 14 16 15 13 12
21 26 28 32 31 28 24 20 18 17 16 15 13 12 10 9 8 7 7 7 7 7 7 7 6 7 8 10 11 12 12 12 12 13 13 13 15 15 16 17 17 15 13
23 24 22 28 29 27 24 23 22 21 20 19 18 15 14 13 12 11 11 11 11 11 11 11 11 12 13 13 13 12 12 12 13 15 16 15 15 16 16 17 17 15 14
18 18 17 17 22 24 23 21 20 20 20 20 20 19 18 17 16 15 15 14 13 14 14 14 15 15 15 16 17 16 16 15 15 16 17 17 17 17 17 17 18 16 15
20 17 16 15 15 14 15 16 17 17 17 18 18 18 17 18 17 17 16 15 15 15 15 16 16 17 18 18 19 19 19 18 18 18 19 19 19 19 19 19 19 18 17
21 19 17 16 17 15 14 15 16 15 16 16 16 16 16 17 17 17 16 15 16 16 16 17 17 18 19 19 20 20 20 20 20 21 21 21 21 21 20 21 20 20 19
19 20 20 19 18 17 17 16 16 15 14 14 15 14 16 16 16 15 16 15 16 17 17 18 19 20 21 22 22 23 23 23 22 23 24 23 23 23 23 23 23 22 21
19 22 22 22 21 20 20 20 19 19 16 14 15 16 17 18 18 16 16 17 18 18 18 19 20 21 22 24 24 25 26 26 27 27 26 25 25 25 25 25 26 25 24
23 23 25 26 26 24 24 24 23 23 21 19 18 18 19 19 17 18 19 20 21 21 21 22 23 24 23 25 27 27 27 26 27 27 26 26 25 25 25 26 27 27 27
27 26 25 27 28 30 30 28 28 26 25 24 22 22 23 23 22 22 22 22 23 24 25 26 26 26 27 28 29 29 30 30 29 27 26 26 26 25 25 26 28 29 30
31 29 27 27 29 31 32 31 31 28 29 29 29 30 27 25 26 26 26 26 28 29 29 29 30 30 32 30 32 34 37 35 30 28 28 28 27 28 28 30 30 31 33
30 31 31 29 29 29 30 32 32 34 36 35 33 31 29 28 29 30 31 31 32 33 33 32 33 34 34 32 33 37 40 41 37 31 30 31 31 30 31 32 32 33 39
33 32 30 30 30 31 30 31 33 35 35 33 32 33 33 33 33 33 34 35 35 37 37 37 36 36 37 39 38 36 36 38 39 42 37 36 36 35 35 35 37 36 35
32 34 33 32 31 32 33 34 34 36 36 37 37 37 37 38 38 38 39 41 40 41 41 41 40 41 40 38 36 33 35 38 37 40 41 40 39 38 37 39 40 43 39
32 32 32 31 30 30 31 32 34 34 35 36 37 39 39 39 40 41 41 42 41 40 39 39 38 37 34 33 33 33 33 34 37 36 41 40 41 39 39 39 40 37 40

GFSSE_700_spd_084.txt.gz
Wind_Speed
11 9 9 9 7 7 7 7 7 7 7 7 7 7 8 8 8 8 8 9 9 7 4 1 1 3 4 5 5 5 4 4 5 7 7 8 9 9 10 10 10 10 9
8 8 11 11 10 9 8 8 7 8 7 7 7 7 7 7 8 9 10 9 10 11 10 9 8 8 7 7 7 8 8 9 9 9 8 8 9 9 10 10 10 10 10
10 9 12 12 11 10 9 8 8 8 8 7 7 8 8 9 10 11 12 11 12 13 13 14 14 13 12 12 11 11 11 10 10 10 10 10 10 9 9 10 10 11 11
14 11 12 13 13 13 11 9 9 9 9 8 9 9 8 10 12 13 13 13 14 14 14 14 14 13 13 13 12 11 11 11 11 11 11 12 11 11 11 11 11 12 12
18 14 13 12 14 14 14 14 11 10 10 9 9 9 9 10 11 12 12 13 14 15 15 15 15 13 13 13 13 12 13 12 12 12 12 12 13 13 12 12 12 12 11
21 17 16 11 14 14 14 15 16 14 12 11 10 10 10 10 11 11 12 12 13 13 14 14 14 14 14 14 14 14 14 14 14 13 13 13 14 13 12 12 12 12 11
23 22 20 15 14 14 13 12 14 16 18 16 13 12 12 12 12 13 13 14 14 14 13 13 13 14 15 16 15 15 15 15 14 14 14 14 14 13 13 12 12 11 11
26 25 23 21 17 15 13 11 9 11 14 16 18 16 15 15 14 14 14 14 14 13 13 12 12 12 13 12 12 12 12 12 12 12 12 13 12 12 12 12 11 10 10
28 26 25 23 21 17 14 12 11 10 10 12 14 16 18 17 15 16 16 15 14 14 13 13 13 14 13 13 13 12 12 13 13 12 13 13 13 13 13 12 11 10 10
29 28 27 25 24 21 17 15 13 12 12 12 13 12 14 13 15 16 14 14 16 16 16 14 14 14 13 13 12 12 12 13 13 13 13 13 14 13 13 13 13 12 11
27 29 29 28 27 25 20 18 16 14 12 10 9 9 8 7 8 10 11 11 11 11 12 13 14 14 13 13 12 11 11 11 11 11 12 13 13 15 14 14 15 14 12
26 29 31 30 28 27 24 20 18 15 13 12 11 8 7 5 3 2 1 3 5 5 3 3 3 5 6 8 10 11 11 11 12 12 12 13 14 14 15 15 15 15 12
28 26 30 32 31 29 27 24 20 18 16 15 13 11 9 8 7 6 5 5 5 5 6 6 7 7 8 9 9 8 8 9 11 12 13 13 14 14 15 16 16 15 13
26 28 27 32 33 31 29 25 21 19 19 18 16 14 13 12 11 11 10 10 9 9 9 9 9 10 11 12 13 13 12 12 12 13 14 14 14 14 15 16 16 16 15
19 25 26 27 30 31 29 27 26 24 23 22 19 17 16 15 15 14 14 13 13 12 12 12 12 12 13 14 15 15 15 15 15 16 16 16 16 16 16 16 17 17 16
21 20 23 23 25 27 28 27 24 23 23 22 20 19 18 18 18 17 16 15 14 14 13 13 13 14 15 15 16 16 17 17 18 19 19 19 19 19 18 19 19 19 18
19 18 18 19 20 21 23 24 22 20 19 18 17 17 17 16 17 17 15 14 14 14 13 13 14 15 16 16 17 18 19 19 19 20 20 20 20 20 20 21 21 21 21
23 23 18 17 18 19 19 18 18 17 16 16 16 16 15 15 16 15 14 15 16 14 14 16 16 15 17 18 19 21 21 22 22 23 23 23 23 22 22 22 22 22 22
24 23 22 20 18 19 17 18 18 19 17 17 16 15 15 15 16 16 17 17 16 16 16 17 18 18 19 21 21 22 22 23 22 22 22 23 23 22 21 22 23 23 24
21 21 22 21 20 20 21 21 21 20 20 19 17 16 16 16 17 16 16 18 18 19 20 21 22 22 22 23 24 24 25 24 24 24 23 23 22 21 22 23 23 23 24
21 22 22 22 21 23 22 23 22 21 22 20 19 19 19 20 20 21 21 21 21 22 22 24 25 26 26 26 29 29 28 27 26 25 25 24 24 24 24 23 24 26 28
24 22 22 22 23 25 27 27 27 27 26 26 26 27 25 23 24 25 24 24 26 27 26 27 29 30 30 29 33 34 34 32 32 29 26 27 26 26 27 28 28 29 29
28 27 27 26 25 26 27 28 28 29 29 28 28 28 27 29 29 29 28 29 29 30 30 31 31 33 33 33 34 35 38 41 40 35 31 28 29 31 31 32 34 34 35
27 27 27 26 26 28 27 28 28 29 29 29 30 30 31 31 31 31 31 32 32 32 33 33 35 35 36 38 38 38 39 39 38 38 32 30 29 32 31 32 31 31 32
35 30 29 29 27 27 27 27 28 29 31 33 33 33 33 32 32 33 34 35 35 36 38 38 38 39 39 38 39 38 35 35 33 34 38 36 38 31 32 32 33 33 35
40 35 31 31 31 31 30 29 29 29 30 33 34 35 35 35 36 38 39 39 39 40 40 39 38 38 37 36 34 34 33 33 32 34 36 37 37 35 35 33 34 34 33

GFSSE_700_spd_087.txt.gz
Wind_Speed
11 7 8 10 10 9 9 10 10 10 9 10 10 10 10 11 11 11 11 12 11 9 7 4 3 2 3 5 7 8 9 8 9 10 11 11 11 11 11 10 11 10 10
8 9 9 11 11 10 10 10 10 10 10 10 11 11 11 11 11 11 12 14 14 14 13 12 11 10 10 11 12 12 12 12 11 11 11 11 10 10 11 12 12 11 11
12 10 12 12 12 11 11 10 10 10 10 11 11 12 12 13 12 14 14 15 16 16 15 15 14 14 14 14 13 13 13 13 12 12 12 12 11 12 12 13 12 13 13
15 13 14 14 13 12 12 11 11 11 11 11 12 12 13 13 13 14 15 16 16 16 15 15 14 14 14 14 14 13 14 13 14 14 15 14 12 14 13 13 14 13 13
18 13 13 14 15 15 14 13 12 11 12 11 11 12 13 13 12 13 15 16 17 17 16 16 16 16 16 16 15 15 15 15 15 15 14 14 14 14 14 14 14 13 12
20 15 14 14 15 17 18 17 15 13 13 12 12 13 13 13 13 13 14 14 15 15 15 15 16 16 15 15 15 15 16 16 16 15 15 15 14 14 14 14 13 13 12
23 20 15 14 14 16 18 20 20 20 17 15 15 15 15 14 14 15 15 15 15 15 16 15 16 15 15 14 14 14 14 13 13 13 13 13 13 12 12 12 12 12 12
26 25 21 16 14 15 16 17 18 18 19 20 19 17 17 16 16 16 16 16 15 15 15 14 14 14 13 13 13 13 13 12 12 12 12 13 12 12 12 12 11 10 9
29 27 26 19 15 15 15 15 17 16 16 16 18 19 20 17 17 18 18 18 17 16 15 15 15 14 14 14 13 13 13 13 13 13 13 13 13 13 12 12 12 10 9
29 29 28 25 18 17 15 15 15 15 15 14 14 16 16 17 18 17 16 15 16 17 18 18 17 17 16 15 14 13 12 12 11 11 12 12 12 13 13 13 12 12 10
29 30 29 28 24 19 18 17 16 15 14 13 13 12 12 12 13 12 11 12 12 11 10 11 11 11 11 10 11 11 10 10 10 10 10 10 11 12 12 13 13 13 11
28 30 30 30 28 24 21 19 18 16 15 13 12 10 9 9 7 6 5 4 4 5 4 4 3 4 4 4 4 4 5 7 9 9 10 10 11 12 12 12 13 13 12
24 29 32 32 31 28 25 22 20 18 16 15 13 10 9 8 6 5 4 3 3 4 4 4 5 5 6 6 7 7 7 8 9 11 12 12 12 12 13 13 13 13 13
23 25 30 34 33 31 29 27 24 21 18 18 16 14 12 11 10 9 9 8 8 8 8 8 9 9 9 9 9 10 10 11 12 13 14 14 14 14 14 15 16 15 15
23 23 27 32 35 33 32 31 28 24 23 21 19 17 16 15 14 13 13 12 12 11 11 11 11 11 11 11 11 12 13 13 14 15 15 16 16 17 17 17 17 17 18
23 21 26 29 33 34 33 32 30 29 28 24 22 21 19 18 18 17 16 15 15 14 13 12 12 13 13 12 13 14 14 15 15 16 17 17 18 18 19 20 19 19 19
22 21 23 24 26 31 32 32 31 31 28 26 25 23 21 20 20 19 17 16 15 14 14 14 14 14 15 13 14 15 16 17 18 19 20 20 21 21 22 22 22 21 21
25 24 23 19 22 28 30 30 30 28 26 24 23 21 18 18 17 17 15 15 15 15 15 15 15 14 14 15 16 17 18 17 19 20 19 20 20 21 22 23 23 22 22
25 26 25 19 16 18 24 27 27 25 23 22 20 18 17 16 16 15 15 16 16 17 16 16 16 17 18 19 19 20 20 20 21 22 21 21 21 22 22 22 22 23 23
27 28 30 25 21 17 18 20 22 22 22 21 19 18 17 17 17 16 16 17 17 17 18 19 20 21 21 23 24 23 23 24 25 22 23 22 23 24 24 24 23 24 25
25 26 29 29 26 24 23 20 20 19 20 20 18 18 18 18 19 18 18 19 20 20 21 22 23 24 25 27 28 27 27 28 27 26 26 27 27 26 25 26 26 27 28
25 22 25 26 20 26 21 21 23 23 22 22 21 21 23 22 20 20 21 22 24 25 26 26 27 28 29 29 31 32 33 31 30 30 32 30 26 26 27 28 30 31 31
26 22 14 16 19 21 24 28 28 28 26 26 24 25 25 26 26 27 28 28 28 28 28 29 30 31 32 32 32 35 37 40 38 34 31 28 24 23 25 28 30 33 32
28 22 21 23 24 22 24 24 25 27 28 28 29 29 30 30 31 32 32 32 32 32 31 31 33 34 35 35 36 37 38 38 37 39 33 28 26 27 28 29 31 31 31
32 28 25 27 25 23 23 24 25 25 27 29 30 32 32 33 32 32 32 32 32 34 34 35 36 37 38 39 39 38 36 34 33 34 36 30 29 28 30 30 30 29 30
33 31 31 28 26 25 26 26 25 25 27 28 30 31 32 33 34 34 35 36 36 37 38 39 41 40 39 38 37 35 32 31 32 33 34 32 32 32 31 30 29 29 29

GFSSE_700_spd_090.txt.gz
Wind_Speed
9 7 8 10 11 12 12 11 11 11 11 11 11 11 11 11 11 11 11 10 9 8 6 4 3 3 6 8 8 9 10 10 10 9 10 10 10 10 10 11 11 11 10
8 10 9 11 11 11 12 12 12 11 11 11 11 12 11 12 12 12 12 13 12 12 11 10 10 10 10 11 11 11 11 10 10 11 11 10 11 12 12 12 13 13 12
11 10 11 13 12 11 12 13 12 12 12 12 12 12 12 13 13 14 14 15 15 15 14 14 13 13 12 12 11 11 11 11 12 13 14 13 12 12 13 13 13 13 12
14 12 11 13 13 12 13 13 13 13 13 12 12 12 13 13 14 15 15 15 14 14 14 14 13 13 12 12 12 13 14 14 14 14 14 13 13 14 13 13 13 12 12
19 14 13 13 13 13 13 14 14 13 13 13 13 12 12 13 14 15 15 15 15 15 15 15 15 15 14 14 14 14 14 14 14 14 14 13 14 13 13 13 11 11 10
22 17 15 15 15 15 15 14 14 14 14 13 13 13 12 13 14 14 14 14 14 15 14 15 15 15 15 15 15 15 14 14 13 13 12 12 11 11 10 10 10 10 9
24 20 17 16 17 16 17 17 16 16 15 15 15 15 14 15 15 15 14 14 14 15 14 14 14 14 13 12 12 11 12 11 11 11 11 11 10 11 11 10 9 9 8
27 24 21 18 16 16 17 18 18 19 18 18 17 16 16 16 16 15 15 15 14 13 13 13 13 13 13 13 12 13 12 12 12 11 11 11 12 11 11 11 11 10 9
32 28 25 22 20 19 18 17 17 19 20 21 20 18 17 16 16 17 17 17 15 14 14 14 14 14 13 13 13 12 12 11 11 11 11 11 11 11 12 11 11 10 9
34 32 28 26 24 21 20 19 18 17 17 17 17 17 18 18 16 16 17 17 16 17 16 16 15 14 14 13 12 11 10 10 9 9 9 9 10 10 10 11 12 12 11
36 35 32 29 28 25 23 20 20 17 14 14 14 13 13 14 14 14 13 13 11 11 10 9 8 7 7 6 6 7 7 8 8 8 9 9 9 10 10 11 11 12 12
35 36 35 32 30 28 26 22 21 19 16 14 13 12 11 11 11 9 7 6 5 4 3 2 1 1 2 3 4 5 6 7 8 8 9 10 11 11 12 12 12 13 13
32 34 35 34 31 29 29 26 24 23 19 17 15 14 13 11 10 8 6 5 5 4 4 4 4 4 5 6 7 8 9 10 10 10 11 12 13 14 14 14 14 14 15
31 30 34 35 34 32 29 28 26 25 23 20 17 16 14 13 11 10 10 9 9 8 8 8 8 8 8 8 9 10 11 12 13 13 13 14 15 16 16 16 16 16 17
30 29 30 33 35 34 32 31 29 28 26 24 21 19 18 17 16 15 14 13 13 12 12 11 11 11 11 11 12 12 13 13 14 15 16 17 17 18 18 18 18 19 19
29 29 28 29 34 35 35 33 31 30 29 27 25 23 22 21 19 18 18 17 16 15 14 13 13 13 13 13 14 14 14 14 16 16 18 19 20 20 21 22 22 22 23
30 30 29 28 31 35 35 35 33 32 32 30 29 27 25 24 23 22 21 20 18 17 15 15 15 15 15 16 15 15 15 15 16 16 18 19 21 21 22 23 23 23 23
34 30 28 28 30 33 34 36 34 34 33 32 31 29 27 26 24 23 22 20 18 17 16 16 16 16 16 16 17 17 17 17 17 18 20 21 21 23 24 24 25 24 24
33 32 31 27 26 28 31 33 34 34 34 32 30 28 27 25 23 21 20 19 17 17 17 17 17 17 18 19 20 20 21 20 20 21 23 23 23 24 25 27 27 26 27
31 34 31 26 25 28 31 31 30 32 33 31 29 27 24 22 21 21 20 19 19 19 18 18 19 20 21 22 23 24 24 24 24 24 25 25 26 27 29 30 29 28 28
33 34 33 30 27 25 22 23 26 26 27 27 24 22 21 21 21 21 21 21 20 20 20 22 22 23 24 25 27 27 27 27 27 27 27 28 30 31 35 33 30 31 31
31 33 33 32 30 28 24 24 26 26 24 23 22 23 23 23 22 21 20 21 22 23 24 25 26 27 27 28 30 32 32 31 30 29 30 32 32 31 28 29 30 31 32
35 30 32 33 35 35 36 33 29 30 30 27 24 24 24 24 24 25 26 27 27 27 27 28 28 29 30 32 32 34 36 36 35 37 33 30 28 28 28 26 28 28 29
39 28 28 29 21 31 43 35 25 29 27 26 26 26 28 30 31 31 30 31 31 31 32 32 33 33 34 34 35 36 38 39 39 39 35 25 26 27 27 26 26 27 30
40 42 30 26 21 19 17 42 17 24 23 26 28 29 33 35 32 32 32 33 34 36 35 34 35 36 37 37 38 40 40 39 36 35 34 29 29 27 26 25 26 27 29
41 43 37 35 26 24 21 23 24 26 27 28 30 30 33 33 34 34 34 35 36 37 36 36 38 39 39 40 41 40 38 37 34 32 32 32 29 28 26 25 27 28 29

GFSSE_700_spd_093.txt.gz
Wind_Speed
9 8 8 10 11 11 12 12 12 11 10 10 10 9 10 11 11 10 11 11 10 8 6 3 2 5 7 9 10 10 11 10 10 10 9 11 11 12 12 12 12 13 12
8 9 9 10 11 11 12 12 12 12 11 11 11 11 10 11 11 11 11 11 10 9 8 8 9 10 11 11 11 11 11 10 10 11 11 12 12 13 13 13 14 13 12
10 9 10 11 12 12 12 12 12 12 12 12 12 12 12 12 13 13 13 12 13 12 12 11 12 11 11 12 11 11 12 12 14 13 11 12 12 14 13 14 13 13 13
14 11 11 12 13 13 13 13 12 12 12 13 13 13 12 13 13 13 13 13 13 13 12 12 11 11 12 12 13 14 14 14 14 12 13 12 13 13 13 12 13 12 10
16 14 13 11 12 12 13 13 13 13 13 12 12 13 13 13 14 13 14 14 14 13 13 13 13 14 14 14 14 14 14 14 14 13 13 11 12 12 12 11 11 10 10
19 17 15 14 13 13 13 13 13 13 13 13 12 12 13 13 14 14 15 15 14 14 14 14 14 14 14 14 14 13 13 12 10 10 10 11 11 11 11 10 10 9 10
22 19 17 16 15 14 14 13 12 12 12 12 13 13 13 13 13 13 14 14 14 14 13 13 12 12 12 12 11 12 11 10 11 11 11 12 12 11 12 11 11 10 10
25 22 20 20 19 18 17 16 14 13 12 13 14 15 14 13 14 15 14 13 13 12 12 12 12 13 13 13 12 12 12 11 12 11 11 12 12 12 12 12 13 12 11
29 26 24 22 22 22 21 20 19 17 15 14 14 15 15 14 14 15 14 14 14 14 14 13 13 13 13 13 12 12 11 11 11 11 11 11 11 11 11 11 12 12 12
29 30 28 26 24 24 23 23 22 21 19 17 16 15 14 15 16 16 16 16 16 16 14 14 13 12 12 11 11 10 10 10 10 11 11 11 11 12 12 12 12 12 12
34 33 31 29 27 26 26 25 24 23 21 18 16 15 15 16 16 15 13 13 12 12 10 9 8 7 6 5 6 6 7 8 9 10 11 12 12 13 13 13 13 13 13
40 36 33 31 30 28 28 27 25 23 21 18 17 15 12 12 12 12 10 8 6 5 4 3 2 3 4 5 6 7 8 9 10 11 12 13 14 15 15 15 15 15 15
39 38 35 33 31 30 28 28 27 26 24 21 18 16 14 12 12 9 7 5 4 3 3 4 5 5 6 7 7 9 11 11 12 13 13 14 15 16 17 17 17 18 17
38 37 37 35 33 32 30 29 28 27 26 23 21 18 16 14 12 10 9 8 7 7 8 8 8 8 9 9 10 11 12 13 13 15 15 16 17 18 18 19 19 19 19
36 36 36 34 34 33 32 31 30 29 27 25 22 20 18 16 14 13 13 12 12 12 12 12 12 11 10 11 11 13 13 13 14 15 17 17 18 19 20 20 21 21 21
31 33 34 35 35 35 34 32 31 29 29 28 25 23 21 19 18 17 17 17 17 17 16 15 14 13 13 12 13 15 14 14 15 16 17 17 19 20 20 21 21 21 21
30 30 34 32 35 35 35 35 33 32 31 30 28 26 25 23 22 21 21 21 20 20 19 17 16 15 15 14 15 14 14 16 17 17 18 20 21 21 21 22 23 25 25
34 33 31 33 33 33 34 34 34 34 33 33 31 29 27 26 25 24 24 24 23 21 19 17 16 16 17 16 16 16 17 17 19 19 20 22 23 24 23 25 25 27 29
34 34 33 32 32 32 33 35 34 34 34 34 33 32 30 28 27 27 26 24 23 20 18 18 18 18 18 18 18 19 20 20 21 21 22 24 25 26 27 28 29 31 31
35 34 33 32 32 33 33 33 35 32 33 34 35 34 32 30 28 26 24 22 21 19 19 19 20 19 20 21 21 22 23 23 24 24 25 27 28 29 30 32 33 35 32
34 35 35 34 32 34 34 33 34 33 32 34 32 31 30 28 27 25 22 23 21 20 21 21 21 21 22 24 25 25 26 26 28 28 28 29 32 33 35 33 33 32 30
36 35 33 34 35 32 33 32 31 31 32 32 31 28 25 25 23 23 23 23 22 22 23 24 24 24 26 26 27 29 29 30 32 32 30 32 34 35 34 32 29 29 28
42 37 34 34 38 33 29 28 28 26 28 30 28 28 26 23 22 20 23 23 24 25 26 27 27 27 28 29 29 31 32 33 33 34 35 36 35 31 27 28 29 28 26
41 38 37 37 35 39 33 32 31 34 32 32 36 31 27 27 24 24 25 26 27 29 30 31 32 32 33 33 34 32 34 35 36 39 40 37 31 28 27 28 28 25 26
42 38 38 41 36 32 34 34 31 31 39 38 45 41 33 34 26 25 28 27 28 33 34 34 35 36 35 35 37 37 35 36 38 40 40 35 31 28 29 26 27 25 26
42 42 40 39 43 30 26 32 48 42 35 35 40 42 42 36 34 25 27 29 30 34 36 37 37 37 37 37 38 40 40 39 40 37 36 33 31 30 25 24 25 26 27

GFSSE_700_spd_096.txt.gz
Wind_Speed
12 10 10 10 11 11 12 12 11 10 9 9 10 11 11 11 11 13 14 13 12 8 2 4 6 9 10 12 13 13 12 11 11 11 12 13 13 14 14 14 14 14 14
10 11 11 12 12 12 12 12 11 11 10 10 11 12 12 12 11 11 11 10 8 8 7 9 11 12 12 12 13 13 12 11 12 13 13 14 13 14 14 15 15 14 14
11 11 11 12 13 13 12 12 11 11 11 11 12 12 13 13 13 13 13 12 11 11 12 12 12 12 12 12 12 13 14 14 14 13 14 15 15 14 14 15 14 13 13
14 12 12 12 13 13 12 12 12 12 12 12 12 13 14 14 14 14 14 13 13 13 13 12 12 12 13 14 13 14 14 14 14 14 16 14 14 13 13 14 13 13 13
16 14 13 12 13 13 12 11 12 11 11 12 12 13 14 14 14 14 14 13 13 14 14 14 15 14 15 14 14 14 14 14 11 13 13 12 12 11 12 12 12 12 12
18 16 14 13 14 13 13 12 12 12 11 11 11 13 14 14 14 15 15 14 15 15 15 15 14 14 14 13 13 12 12 10 11 12 12 12 12 12 13 13 13 12 12
20 18 16 15 15 15 14 14 13 12 12 10 10 11 13 13 14 14 14 14 15 15 14 13 13 12 13 13 13 12 12 11 12 12 12 13 13 14 14 14 14 14 13
21 20 19 18 17 17 16 15 14 14 13 12 12 12 12 13 15 14 14 14 14 14 13 14 13 13 13 13 13 12 12 12 12 12 13 14 14 14 14 14 14 14 14
27 23 21 20 20 20 19 17 17 16 16 15 14 14 14 13 13 14 13 14 14 13 14 14 15 15 15 14 14 14 13 13 13 14 14 15 15 15 15 15 15 15 15
29 27 24 24 22 22 21 21 19 18 17 16 16 15 14 15 14 14 14 16 16 16 15 15 14 13 13 12 12 11 11 12 12 12 13 14 14 15 15 16 16 16 15
33 30 27 26 25 24 23 22 21 20 19 19 18 17 17 16 17 16 16 15 14 13 12 11 10 9 8 8 8 9 10 10 12 12 13 13 14 15 16 16 16 16 16
33 32 30 29 27 26 25 24 22 21 21 20 19 18 17 16 15 13 12 11 8 7 6 5 4 5 5 6 7 9 10 11 12 12 13 14 15 16 17 17 17 17 17
34 34 32 31 30 26 28 25 24 22 21 20 19 17 14 14 12 10 7 5 2 0 2 3 4 5 6 7 8 9 11 12 12 12 14 14 15 17 18 18 18 17 17
40 37 34 33 32 30 29 27 27 25 23 20 18 17 15 13 11 10 6 4 4 4 5 7 7 8 8 9 10 11 12 13 13 14 14 15 16 17 18 18 18 18 18
37 39 37 33 33 31 31 29 28 27 24 22 19 17 16 14 12 10 8 8 8 8 9 10 11 10 11 11 11 12 13 13 13 15 14 15 16 19 19 18 19 19 18
34 36 36 33 32 33 32 31 29 29 26 24 23 20 18 16 15 13 12 11 12 12 13 13 13 13 12 12 12 12 13 12 14 15 16 15 17 19 21 21 21 20 20
25 32 32 36 35 34 31 30 29 30 28 27 25 23 21 20 19 17 17 16 16 16 17 16 16 15 14 14 14 14 13 13 14 16 17 18 18 20 22 23 24 25 25
28 23 32 37 31 33 34 31 30 31 31 30 28 27 26 25 23 21 21 19 20 20 18 18 17 16 16 16 15 15 15 16 17 18 19 20 22 23 24 25 27 28 27
26 26 28 29 33 30 33 33 33 33 32 31 31 31 30 29 27 25 24 24 23 21 19 17 17 17 17 17 16 17 17 18 19 20 22 24 25 26 29 29 30 30 29
25 27 29 28 28 30 30 32 31 33 34 35 35 35 35 33 30 28 28 27 23 20 19 18 18 18 18 17 18 19 21 22 22 23 24 25 27 28 30 33 32 31 29
23 28 28 30 30 31 31 31 32 34 33 34 35 36 35 35 34 31 29 26 23 21 18 19 19 19 18 20 21 22 24 24 26 26 26 26 29 31 33 33 32 28 26
27 25 28 29 31 30 30 30 33 32 32 31 32 32 31 30 30 29 27 25 23 20 19 21 20 20 22 22 23 26 27 26 28 28 29 28 31 34 34 31 29 26 28
30 30 28 29 31 30 32 30 31 32 33 34 33 32 29 38 39 31 25 23 23 20 21 22 22 22 24 26 27 28 30 30 30 31 32 32 33 35 34 31 28 28 29
33 33 31 32 31 31 32 34 31 27 30 31 29 30 31 31 30 29 30 29 25 23 24 23 22 25 26 28 31 31 31 32 32 33 33 35 36 34 32 30 29 27 27
29 33 36 36 37 34 35 36 37 32 29 30 30 28 32 33 32 30 29 29 27 29 30 32 26 26 25 32 34 33 32 33 34 33 36 36 36 33 30 29 27 26 25
36 31 33 37 35 37 37 40 43 41 45 41 38 31 32 34 36 37 36 29 26 30 34 31 24 22 28 34 35 37 36 35 34 35 35 32 35 33 30 27 26 24 26

GFSSE_700_spd_099.txt.gz
Wind_Speed
18 15 13 13 13 12 11 11 11 10 10 10 10 10 11 14 16 15 16 14 11 7 3 7 9 12 13 13 13 13 13 13 13 13 15 15 16 16 15 15 15 13 14
13 15 14 14 13 13 13 12 11 11 10 11 11 11 12 12 13 14 13 10 7 7 9 11 12 13 13 13 13 13 13 14 15 15 17 16 15 15 14 14 15 14 14
15 15 15 13 13 13 12 12 11 11 11 11 12 12 12 13 13 12 12 11 12 13 13 13 13 12 12 13 15 15 15 16 16 16 17 16 15 16 14 15 14 14 13
15 14 14 14 13 13 13 12 12 12 12 12 13 14 14 14 14 14 14 14 14 13 12 12 13 13 14 15 15 15 16 15 14 15 14 13 14 13 13 14 13 13 12
18 16 15 14 13 13 13 13 13 13 12 13 13 14 14 15 15 15 15 14 14 13 14 15 15 14 14 14 14 14 14 13 13 13 14 14 14 14 14 14 14 13 13
20 18 16 15 14 13 14 14 14 14 14 14 13 14 14 15 15 15 15 16 16 15 16 15 14 13 13 12 12 14 14 13 15 15 15 15 15 15 16 16 15 15 14
22 20 18 16 15 15 14 14 14 15 14 14 14 14 15 15 16 15 16 16 15 15 14 14 13 13 13 13 14 15 15 15 16 15 15 15 15 16 16 16 17 17 17
23 21 19 17 16 16 16 16 15 15 15 15 16 14 14 15 16 16 16 16 14 14 14 14 14 14 15 16 16 16 18 16 17 16 16 16 17 17 17 17 17 17 16
23 21 20 19 18 18 17 17 16 16 16 15 16 16 15 15 16 15 15 15 14 15 16 17 17 17 16 16 15 15 15 14 14 14 14 15 15 16 16 17 17 16 16
27 23 21 20 19 19 19 19 18 17 16 15 16 17 17 15 15 15 16 16 17 18 17 16 15 14 14 13 13 13 13 13 12 12 13 13 14 15 15 15 15 15 15
30 27 24 23 21 20 20 19 19 19 17 16 16 17 18 18 18 18 18 16 16 16 15 13 12 10 10 10 11 12 11 11 10 11 12 12 13 14 14 15 15 14 14
32 30 27 26 24 22 21 20 19 20 20 19 18 18 18 20 19 18 17 14 12 11 9 7 7 7 8 8 9 10 11 11 10 10 12 13 14 14 15 15 15 15 15
35 33 31 29 27 25 24 22 22 21 20 20 20 18 16 16 16 14 11 9 6 5 4 4 5 6 7 8 9 10 11 11 10 11 12 13 14 15 17 16 15 15 15
33 35 34 33 29 29 29 27 25 23 21 20 18 18 15 12 11 10 7 4 2 0 2 4 6 7 8 7 9 10 11 12 10 11 12 12 13 15 17 17 17 17 16
34 37 36 34 32 31 30 29 28 25 23 20 18 17 16 14 10 8 7 5 2 3 6 7 8 9 10 9 9 11 11 11 11 11 12 13 14 16 17 17 17 18 18
34 37 36 35 34 32 31 30 29 27 24 22 19 18 17 14 13 11 8 7 6 7 8 9 10 11 10 9 10 12 12 11 12 12 13 14 15 17 19 19 20 20 21
30 34 35 33 32 32 31 30 30 28 26 23 21 19 19 18 16 14 13 12 11 11 12 12 12 12 11 11 12 12 11 12 13 14 14 15 16 18 20 22 23 24 23
25 26 30 33 32 30 31 31 30 28 27 26 24 23 22 21 20 19 18 17 17 16 15 15 14 13 12 12 12 13 12 13 14 15 16 17 19 19 22 23 26 26 23
29 27 23 27 29 25 24 24 29 30 28 28 27 28 28 27 25 25 24 22 22 20 19 18 16 14 14 13 14 13 14 15 16 18 19 20 21 21 23 25 28 27 24
28 28 27 26 31 44 39 34 34 34 31 31 32 32 32 32 30 29 28 27 26 24 22 21 17 15 15 15 15 15 16 17 18 19 21 22 23 25 24 27 28 28 25
25 28 27 26 24 27 34 39 37 30 32 35 35 36 35 34 33 32 31 30 29 27 25 22 19 17 17 18 17 17 18 19 20 21 24 25 25 26 27 30 29 28 24
24 25 25 24 24 24 24 24 27 26 28 30 31 33 33 32 33 32 27 28 28 27 25 23 21 19 18 19 19 20 21 21 22 24 25 26 26 27 29 30 31 30 25
26 25 23 23 22 21 21 25 25 27 29 29 30 30 28 25 24 29 34 31 23 22 23 23 23 22 20 20 19 22 24 25 25 25 25 28 29 30 32 32 31 29 27
28 27 26 24 22 22 24 23 26 27 27 27 26 31 30 29 28 25 30 35 40 39 36 28 33 31 25 24 26 22 23 28 28 28 29 30 30 31 33 31 29 29 26
29 29 30 30 28 26 26 25 27 27 29 28 29 32 36 30 31 30 31 29 29 31 37 37 31 29 29 31 30 27 20 26 30 29 30 31 32 32 32 31 30 28 24
31 30 27 32 33 34 33 30 29 30 31 31 33 33 32 35 30 27 34 31 36 34 33 33 35 31 30 36 37 24 24 30 31 30 29 30 31 34 32 31 29 26 22

GFSSE_700_spd_102.txt.gz
Wind_Speed
20 18 17 16 14 14 13 13 12 11 10 9 10 10 13 14 15 15 15 12 11 5 5 9 12 13 14 15 14 14 15 15 14 14 15 15 16 15 15 15 14 14 14
17 18 16 15 14 14 14 12 11 11 10 10 10 12 12 15 17 16 13 9 6 7 10 12 13 14 13 14 15 17 16 16 16 16 16 14 15 16 15 14 13 13 12
19 19 17 15 14 13 13 12 11 11 11 10 11 11 11 12 14 14 11 8 10 12 13 12 12 13 14 16 16 16 16 16 15 15 15 14 14 14 13 13 12 12 12
18 18 17 16 15 14 12 11 11 12 12 12 13 12 12 13 13 13 13 14 13 13 12 12 14 15 15 16 16 15 14 13 13 14 14 14 15 14 14 13 13 13 12
20 19 18 17 16 15 13 12 12 13 13 15 14 15 14 15 14 15 14 14 13 13 14 15 15 15 15 14 14 14 13 13 15 15 15 16 15 15 15 15 15 14 13
23 20 19 17 16 16 15 14 13 14 14 15 16 16 15 15 15 15 15 15 15 15 14 14 14 14 13 13 14 15 14 16 16 16 16 16 15 16 16 16 16 16 15
25 22 20 18 17 17 16 16 15 15 15 15 16 16 16 16 16 16 16 16 15 15 13 13 14 15 15 16 17 17 17 18 17 16 16 16 16 17 17 17 16 16 15
25 23 21 20 18 18 17 17 16 16 16 16 16 16 16 16 16 16 15 15 15 15 15 15 17 18 18 19 17 16 17 16 15 15 14 15 15 15 15 15 14 14 14
26 24 22 20 19 18 18 18 17 17 17 17 17 17 16 16 16 16 16 16 16 16 17 18 18 17 16 15 16 14 14 14 13 12 13 13 13 14 14 13 13 13 13
29 26 22 21 20 19 18 18 18 17 17 17 17 17 17 17 17 17 17 19 19 18 17 17 16 15 15 14 14 12 11 11 10 10 11 11 12 13 13 13 12 12 12
31 27 25 22 22 20 19 19 19 18 18 18 18 18 17 16 17 19 20 19 19 18 16 15 13 12 11 11 12 12 10 10 9 9 10 11 12 14 14 14 13 13 13
36 31 27 25 23 22 20 19 20 19 19 19 18 19 20 20 20 19 19 17 16 14 12 10 9 8 8 9 10 10 10 9 8 9 10 11 12 14 15 14 13 13 13
32 32 30 28 26 23 22 21 20 20 19 20 20 20 20 20 19 17 16 13 11 8 7 6 6 7 7 8 9 10 10 9 8 10 10 10 12 13 14 14 14 15 14
30 28 33 31 28 26 26 25 23 21 20 20 21 20 19 18 17 15 12 10 7 5 4 4 4 5 7 7 8 10 10 9 7 9 10 10 11 13 14 14 15 15 16
36 38 33 32 31 29 29 27 25 23 22 21 21 20 19 17 14 12 10 7 5 2 1 3 5 6 6 7 7 8 9 8 8 8 9 11 11 12 14 16 16 17 18
33 38 36 34 33 32 29 28 26 25 24 22 22 20 18 16 14 11 8 6 5 5 6 6 6 8 8 9 9 8 9 8 8 9 10 11 13 14 15 17 18 19 18
31 36 37 36 35 33 30 29 28 26 25 23 22 21 18 16 15 13 11 10 10 10 11 10 10 10 10 10 10 10 10 10 9 10 12 13 14 16 17 19 19 21 19
33 31 34 38 36 33 30 31 29 28 26 24 22 22 21 20 18 16 15 15 15 15 15 14 14 14 13 11 11 11 11 11 12 13 14 15 16 17 17 19 20 21 22
34 31 31 31 33 33 32 30 29 26 25 26 25 24 23 22 22 21 21 21 20 20 20 19 19 18 16 14 13 13 13 13 14 15 16 16 17 18 18 20 22 24 21
32 29 27 29 31 31 28 29 24 28 25 27 27 27 28 27 28 27 27 27 26 25 24 22 22 21 19 18 16 15 15 15 16 17 19 19 20 20 20 21 22 24 22
35 34 31 29 29 31 29 30 30 31 31 31 35 32 32 30 30 30 31 31 29 27 26 26 26 24 22 20 19 18 17 17 16 18 20 23 23 23 23 23 23 25 23
28 31 34 31 31 30 33 33 31 29 31 32 32 34 35 34 33 31 31 31 31 26 26 25 25 24 24 23 23 21 20 18 18 20 22 24 25 25 26 25 27 26 24
24 23 27 30 30 29 25 26 26 26 28 28 29 28 29 31 31 30 30 31 30 25 29 30 21 22 23 24 24 24 22 22 21 20 22 24 25 27 28 26 28 28 26
25 22 22 23 25 25 25 27 25 24 28 25 25 28 30 29 28 30 26 28 30 32 33 31 29 30 37 36 29 26 26 30 31 28 22 25 26 26 29 25 30 29 27
26 26 24 24 23 22 21 22 21 23 26 25 27 29 31 31 31 29 32 36 33 34 24 28 35 34 36 41 46 47 43 30 32 38 21 29 28 28 31 28 29 29 29
27 28 28 27 25 25 25 24 23 24 24 25 26 28 29 29 30 32 30 27 35 35 32 38 33 36 37 39 37 34 34 30 23 24 22 24 29 33 33 30 28 29 29

GFSSE_700_spd_105.txt.gz
Wind_Speed
22 19 17 16 15 14 13 12 11 10 9 8 8 10 13 14 14 12 11 9 8 3 7 10 12 13 14 14 15 16 16 15 15 16 15 15 16 15 15 15 14 13 12
20 20 18 17 16 14 13 12 11 9 8 8 9 11 12 13 13 12 11 9 4 8 11 13 12 12 14 15 16 16 15 15 14 15 15 14 15 13 13 13 12 12 11
21 19 18 17 16 15 15 13 11 9 9 9 11 12 14 15 14 12 9 5 9 12 12 11 12 14 15 16 16 15 14 13 13 13 14 14 14 13 13 13 12 12 12
21 18 17 16 16 16 15 13 11 10 10 11 12 13 13 12 12 10 9 11 12 12 12 13 14 15 15 15 14 13 12 13 13 15 15 16 15 15 15 14 13 13 13
22 19 18 17 17 16 14 13 12 11 11 12 13 13 13 12 12 13 14 13 12 13 14 14 14 13 13 13 14 13 13 14 15 16 17 16 16 16 15 15 15 14 13
24 21 19 17 16 16 15 14 13 13 13 13 14 15 15 15 15 14 13 13 14 14 13 13 12 13 15 14 15 14 15 16 17 17 18 17 16 16 16 15 14 14 14
26 22 20 19 18 17 16 15 15 15 15 15 15 16 16 16 15 14 14 14 14 13 13 14 15 15 17 18 17 16 16 16 16 15 15 14 14 14 13 13 13 13 13
26 23 21 20 19 17 17 17 16 16 16 16 16 16 17 17 16 15 15 15 14 15 16 17 18 18 18 17 16 15 15 15 14 14 13 13 14 13 12 12 12 11 11
29 25 23 21 20 19 18 17 17 17 17 17 17 17 17 17 16 16 16 16 17 18 19 18 18 17 16 14 13 12 12 12 12 12 12 12 13 13 13 12 12 11 11
30 27 25 24 22 20 20 19 18 18 18 18 18 17 17 17 17 17 17 18 19 19 18 18 17 17 16 15 14 12 11 11 11 11 12 12 13 14 14 13 13 12 12
32 30 26 24 23 22 21 20 19 19 19 19 19 19 17 17 18 19 20 20 19 18 17 16 15 14 14 13 11 11 11 11 11 10 11 11 12 14 13 13 13 13 13
28 31 29 26 24 23 21 20 20 20 19 19 19 19 19 19 21 21 21 20 18 16 14 12 11 10 10 10 9 9 9 9 9 9 9 10 11 12 13 13 14 14 13
36 32 32 29 27 25 23 22 22 22 20 20 20 20 21 21 21 20 18 16 14 11 9 8 6 6 7 7 7 8 8 8 7 8 8 9 10 12 13 14 15 15 16
40 34 34 32 29 26 25 23 23 22 21 21 21 21 21 21 20 18 16 13 10 8 6 4 3 5 6 6 7 7 7 7 6 7 8 9 10 11 13 14 16 18 18
37 34 34 32 30 28 28 26 24 23 23 23 23 23 21 20 18 16 13 10 7 4 2 1 3 5 6 7 7 8 7 7 7 7 8 9 11 12 14 15 16 18 19
39 35 29 28 31 32 31 28 27 26 24 24 23 23 22 20 17 14 11 8 5 4 3 4 5 7 8 8 8 9 9 8 8 9 9 10 11 12 14 15 17 19 20
35 41 34 28 27 34 32 30 28 27 25 25 23 22 21 18 16 14 11 9 8 8 8 9 9 10 11 10 10 11 10 10 10 10 12 13 14 14 15 16 17 18 21
36 39 41 39 39 34 34 32 31 29 27 26 24 22 21 20 18 16 14 13 13 13 13 14 14 14 14 14 14 13 13 12 12 12 13 14 15 16 18 18 17 17 20
31 31 36 38 32 30 32 33 31 29 28 27 25 24 22 21 20 19 19 18 18 18 18 20 19 19 19 18 19 17 16 15 14 14 14 15 16 17 18 19 20 19 20
36 34 28 36 39 42 37 35 33 30 27 25 24 24 23 23 23 23 23 23 23 23 24 24 24 24 23 23 22 20 19 19 17 16 17 17 17 18 19 20 21 20 21
38 34 32 31 33 37 36 33 32 30 28 26 25 26 23 24 27 29 29 29 29 29 29 29 28 27 26 26 25 24 23 22 20 19 19 19 19 19 20 21 21 23 21
39 32 36 32 29 31 31 27 26 25 27 28 29 27 25 26 29 31 30 30 30 31 31 29 26 24 26 24 26 27 26 24 24 22 22 22 21 20 21 21 26 22 26
38 38 35 30 30 29 30 29 30 28 30 29 25 27 26 26 28 30 30 29 30 31 32 32 27 25 36 32 35 29 29 27 26 26 24 22 22 21 21 24 24 24 26
26 30 30 33 31 32 31 29 28 30 33 30 24 20 22 28 28 29 26 23 29 28 22 29 34 36 36 28 26 29 38 39 30 36 36 38 35 33 24 22 20 28 28
23 21 25 28 30 31 28 26 23 23 22 21 23 24 26 30 28 26 27 26 23 28 30 31 41 39 37 39 32 29 32 35 38 42 42 34 31 37 30 24 25 32 30
23 24 23 24 24 24 23 23 24 22 20 21 21 23 25 28 28 25 24 22 26 26 30 31 25 33 34 31 31 34 32 31 36 37 32 30 24 24 22 26 33 35 32

GFSSE_700_spd_108.txt.gz
Wind_Speed
22 20 18 17 17 14 12 10 9 8 8 7 7 10 14 15 12 11 9 8 6 5 10 12 13 12 13 14 15 16 16 15 15 15 14 15 15 15 14 13 12 11 11
20 20 18 18 17 16 14 12 11 10 9 8 8 11 15 15 13 11 10 8 5 10 12 12 11 13 14 15 16 15 15 14 14 14 14 13 14 14 13 13 12 12 11
22 21 20 18 17 16 15 13 12 10 9 10 11 12 13 14 13 13 10 6 11 12 11 11 13 14 14 15 15 14 12 12 13 15 15 14 15 14 14 13 12 12 12
23 21 19 17 17 16 15 14 12 11 11 11 12 14 14 15 15 11 8 12 13 11 12 13 14 14 13 13 14 13 13 14 15 16 16 16 16 16 15 15 14 13 13
24 20 19 18 17 17 15 13 12 12 12 12 14 14 13 13 13 12 14 14 12 13 13 13 13 12 13 14 15 14 14 16 17 17 18 17 16 16 15 15 14 13 13
26 22 20 18 18 16 15 14 13 12 13 13 13 13 13 14 15 16 15 14 15 14 13 13 12 13 15 16 17 16 16 17 17 16 15 15 15 14 14 13 12 12 12
28 24 21 19 19 18 16 15 14 14 14 14 15 15 15 16 16 16 16 16 15 14 13 15 15 16 18 18 17 16 16 16 16 15 14 14 13 13 12 11 11 11 11
29 26 24 21 20 18 17 16 15 15 16 16 17 17 17 17 17 17 16 15 15 16 16 18 18 18 17 16 16 15 15 14 14 13 13 14 13 12 11 11 11 11 11
31 27 25 23 22 20 18 17 17 17 17 18 18 18 18 18 17 17 16 16 18 19 19 18 17 17 16 15 14 13 13 12 12 12 12 13 13 13 12 12 12 12 12
33 29 26 25 23 21 20 19 19 19 19 19 19 18 18 18 18 18 19 20 22 20 20 20 18 17 16 15 14 12 11 11 10 10 11 12 13 13 12 13 13 13 13
35 31 28 26 24 22 22 21 21 21 20 20 20 19 19 19 19 20 22 22 22 21 20 18 17 15 13 12 12 11 10 9 9 9 10 10 11 12 13 14 14 15 14
36 34 30 27 25 25 23 23 22 22 21 21 21 21 20 20 21 22 23 22 20 19 17 15 14 12 10 9 9 9 9 7 8 9 9 9 10 12 13 14 15 16 16
34 32 31 29 27 26 25 24 24 24 23 23 22 22 22 23 23 23 22 21 18 16 13 11 10 9 8 7 6 7 8 8 7 7 8 9 10 11 12 14 15 17 18
30 33 30 29 28 26 25 25 25 25 24 24 23 23 24 24 23 22 21 18 15 13 10 8 6 6 6 6 5 6 7 8 7 7 7 8 10 11 13 14 16 17 18
30 39 31 29 28 27 27 28 27 26 25 25 25 26 26 25 23 21 19 16 13 9 6 4 3 3 4 4 5 5 6 8 7 7 8 9 10 11 13 15 16 17 18
31 40 38 30 27 29 30 30 29 28 27 28 28 27 27 25 22 19 16 12 9 6 3 1 2 4 6 7 7 7 7 8 8 8 8 9 10 11 13 15 17 17 18
31 35 33 32 30 31 31 32 31 30 30 30 29 28 26 24 21 18 15 11 8 5 4 5 6 7 8 10 11 12 11 11 11 10 10 10 10 10 11 13 15 16 18
33 39 42 30 28 29 33 34 34 33 32 32 30 29 27 24 20 17 14 11 10 8 9 10 10 11 12 13 14 15 16 15 15 14 13 13 13 13 13 13 14 14 16
40 47 46 35 31 30 35 35 36 35 35 33 32 29 27 23 20 18 16 15 14 13 14 15 15 17 17 17 18 18 19 20 19 17 17 16 15 15 17 16 16 17 17
43 39 36 40 41 42 36 34 35 36 35 34 32 29 26 24 22 20 18 18 18 19 20 20 21 22 22 22 21 22 21 21 22 21 20 19 18 17 18 19 18 19 17
42 40 40 48 42 41 36 36 35 35 35 34 32 29 28 25 22 21 21 22 23 24 25 26 27 27 27 25 23 18 21 23 27 24 23 23 21 20 19 19 21 20 22
37 39 37 47 39 44 41 40 39 35 33 32 30 27 24 23 22 22 23 23 25 26 26 27 28 29 30 28 23 24 31 29 28 28 25 24 23 23 21 20 20 21 21
39 32 40 42 46 40 41 37 32 30 28 28 26 26 22 23 22 27 25 24 25 27 25 23 24 25 28 23 32 35 28 28 32 35 31 33 32 29 27 25 26 24 20
39 44 39 39 41 38 45 42 38 29 35 29 22 23 28 21 22 25 22 21 19 19 20 20 19 20 18 31 36 29 35 34 27 31 32 34 37 39 40 40 40 24 22
29 45 43 33 33 31 28 26 26 24 35 38 25 30 34 25 27 23 20 21 19 17 15 22 21 22 28 20 18 26 26 30 31 30 31 31 34 37 33 36 33 30 21
28 26 37 33 39 24 23 26 23 24 23 21 18 21 20 21 22 18 20 19 32 26 23 21 21 23 23 23 24 22 18 18 17 21 29 28 30 31 29 27 21 13 17

GFSSE_700_spd_111.txt.gz
Wind_Speed
20 19 17 17 16 15 14 13 12 12 12 13 13 16 18 15 11 10 9 8 6 9 11 12 12 12 14 15 15 16 15 15 15 14 14 14 14 13 12 12 11 10 10
15 21 18 16 17 16 15 14 13 11 10 12 13 16 17 14 13 12 10 7 8 12 11 11 12 14 15 15 15 15 14 14 13 14 14 13 14 13 13 12 12 11 11
17 21 19 19 19 16 13 13 13 12 11 10 12 15 17 16 14 14 10 8 12 11 10 13 13 14 15 15 14 13 14 15 15 15 14 14 14 13 13 12 13 12 11
20 22 21 19 19 17 15 13 12 12 11 12 13 15 14 16 15 14 11 13 12 11 12 13 14 13 13 13 14 15 15 16 15 16 15 15 15 14 13 13 13 13 12
24 24 22 21 20 19 17 15 13 12 13 14 16 16 15 18 17 12 16 14 12 13 14 13 13 13 14 15 15 16 16 16 16 16 16 15 14 13 13 13 13 12 11
27 25 23 22 21 19 18 16 14 14 14 17 18 17 17 17 15 18 16 15 15 14 13 13 14 15 17 17 18 18 16 16 16 15 14 12 12 12 12 12 11 11 11
29 28 26 24 22 21 19 17 16 15 16 18 19 18 18 18 20 18 16 16 16 14 15 16 17 18 18 18 17 16 16 15 14 14 13 12 11 11 11 11 11 11 11
32 31 28 26 24 22 20 19 18 17 17 18 19 19 20 21 19 18 18 17 16 17 18 19 19 18 17 16 15 14 14 14 13 12 12 12 12 12 12 12 12 12 12
36 34 30 28 27 24 22 20 19 19 19 19 20 21 21 21 21 20 19 18 19 21 21 19 18 17 16 15 14 13 13 12 12 11 12 13 13 13 13 13 13 12 12
40 36 33 31 29 27 25 23 21 21 22 22 22 22 22 22 21 20 20 20 22 21 20 20 19 17 16 15 13 12 11 11 10 10 10 12 12 12 13 13 12 13 13
43 39 35 32 31 28 27 25 24 24 24 24 24 24 24 22 22 22 22 23 22 22 20 19 17 16 14 13 12 11 10 9 9 9 9 10 11 12 12 13 14 16 16
42 41 36 33 32 31 29 27 27 26 26 25 25 25 25 24 23 24 25 24 23 22 19 17 14 12 11 11 10 10 9 8 8 8 8 9 10 11 12 13 15 16 16
43 41 39 35 33 31 30 30 29 28 28 27 27 26 26 26 27 26 25 24 22 20 17 15 13 11 9 8 7 7 7 7 6 6 6 7 8 10 11 13 15 16 16
43 38 39 36 33 32 31 29 29 29 29 29 28 27 27 28 28 26 25 24 21 18 16 13 11 9 7 6 5 5 5 5 4 4 5 5 6 7 9 11 13 14 15
38 36 35 35 33 31 31 30 31 31 30 29 29 29 29 29 28 27 25 22 19 15 12 9 7 6 4 3 3 3 5 6 6 6 6 7 8 9 10 12 13 14 15
37 29 23 28 32 31 31 31 32 32 32 31 31 31 32 31 28 25 22 19 15 12 8 5 3 2 2 2 3 4 6 7 8 9 9 10 10 10 11 13 14 15 16
29 38 23 26 29 30 31 32 33 34 34 33 34 34 33 32 29 24 20 16 13 10 6 4 3 3 4 6 7 8 9 10 11 11 12 12 12 12 12 13 13 15 17
35 33 40 32 33 29 31 33 34 36 35 36 37 36 35 32 28 24 20 17 13 10 8 6 7 8 9 10 12 13 13 14 15 15 15 15 14 14 14 13 14 14 16
34 38 36 42 38 30 32 34 36 36 37 38 38 38 35 32 27 24 20 17 14 11 11 10 11 12 13 14 15 16 16 17 18 19 18 18 18 17 17 17 17 17 16
36 37 41 51 38 33 28 35 38 39 39 40 40 38 36 32 28 25 21 18 16 15 14 15 16 17 18 19 20 20 19 17 16 17 22 20 20 20 18 19 19 20 19
41 47 46 50 49 37 33 34 38 41 41 41 40 38 35 33 29 25 22 20 19 18 19 20 20 20 22 22 22 21 18 17 21 24 24 22 21 22 21 21 23 20 19
51 53 47 49 49 33 37 36 37 39 40 39 39 38 37 34 29 26 23 22 22 22 22 23 21 21 21 20 18 16 22 29 29 29 24 21 22 20 25 23 21 19 19
44 50 51 47 50 46 43 35 38 40 40 40 40 38 35 29 26 23 21 20 22 24 23 20 19 19 15 12 16 21 22 14 15 19 19 26 32 32 32 35 31 27 34
49 46 48 45 48 54 45 40 39 40 40 38 36 34 31 27 24 25 24 24 23 25 19 16 15 9 9 29 19 19 17 22 20 20 20 20 25 34 37 30 31 38 36
40 36 35 27 46 47 54 41 41 40 36 35 36 35 32 29 25 25 28 24 21 18 15 11 13 18 22 15 17 19 22 21 17 19 19 18 30 28 31 27 23 27 33
36 42 47 35 29 36 39 48 48 45 40 48 44 38 38 28 31 29 26 22 14 18 20 12 10 13 15 15 17 22 20 16 19 21 22 21 25 24 22 25 21 20 24

GFSSE_700_spd_114.txt.gz
Wind_Speed
19 15 16 16 16 17 18 17 16 17 16 15 16 17 13 12 11 10 8 6 7 10 11 10 11 12 13 14 14 14 14 14 14 12 12 12 11 10 9 9 9 8 9
14 17 18 18 18 18 18 17 17 17 16 15 16 19 16 13 11 10 9 7 9 10 9 11 12 13 14 14 13 13 13 13 13 13 12 11 11 10 9 9 10 9 10
23 16 21 20 21 20 18 16 16 16 15 15 16 19 17 14 12 11 9 10 11 10 10 13 13 13 13 13 12 12 13 13 13 13 12 12 11 10 10 10 11 11 11
25 19 21 22 23 20 18 17 16 15 15 15 16 18 18 16 14 13 9 13 12 12 12 13 12 12 13 13 14 14 14 15 14 14 12 12 12 11 12 12 11 11 11
23 22 24 23 23 22 20 18 17 15 15 15 17 19 19 17 16 12 13 13 12 14 14 12 12 13 14 14 14 14 15 15 14 13 12 12 12 11 11 11 11 11 10
18 25 25 24 24 22 21 20 18 16 15 16 19 20 19 20 18 15 15 13 15 14 13 13 14 15 16 16 15 15 14 14 13 12 11 11 10 10 11 11 10 10 10
17 27 28 26 25 23 21 19 18 17 17 19 20 19 20 20 17 19 17 16 16 14 14 14 15 17 17 15 14 14 14 14 13 12 11 11 10 11 11 11 11 10 10
22 28 31 29 27 24 23 21 19 19 20 22 21 20 21 21 22 19 19 18 16 15 16 17 17 16 15 14 14 13 13 13 12 12 12 11 11 12 12 12 12 11 11
27 34 34 32 30 27 25 23 21 21 22 24 23 22 23 24 22 21 20 18 17 18 19 18 16 15 14 13 13 12 12 12 11 11 12 12 12 12 12 12 13 12 12
27 36 38 35 33 31 28 25 23 22 23 24 25 25 26 25 24 22 20 20 20 20 19 17 16 15 14 13 12 11 11 10 11 10 10 10 10 11 12 12 13 14 13
31 41 40 38 36 34 31 29 26 25 25 26 27 28 28 27 26 23 22 23 22 21 19 18 17 15 13 12 11 10 10 9 9 8 8 8 9 9 10 11 12 13 13
40 47 41 41 38 36 33 31 30 29 29 29 30 30 29 28 27 26 26 25 24 22 20 17 15 13 12 11 10 10 8 7 6 6 6 7 7 8 9 10 11 12 13
44 48 43 43 40 38 36 35 33 33 34 33 32 32 31 30 29 29 29 28 25 23 19 16 14 11 10 8 8 7 7 6 5 5 5 6 7 8 10 11 13 13 13
44 47 45 44 41 38 36 35 34 35 34 34 34 34 32 31 31 31 30 28 25 22 18 15 12 10 8 7 5 5 4 4 4 4 5 7 8 9 11 12 13 13 14
53 55 46 44 41 37 36 35 35 35 35 35 35 34 32 31 31 31 30 27 24 20 17 14 11 9 6 4 3 2 3 3 3 4 5 7 9 10 11 13 14 14 14
58 52 46 43 41 39 37 35 35 36 37 37 36 35 34 34 33 32 30 27 23 20 16 13 10 8 5 3 1 2 4 6 7 8 8 9 10 11 11 12 14 15 15
46 51 41 38 40 39 37 37 36 37 37 37 37 36 38 37 35 33 30 26 22 18 15 11 8 6 4 3 4 6 7 9 11 12 12 13 14 14 14 15 15 16 17
52 47 39 36 36 36 37 37 37 37 38 38 38 39 40 40 37 33 29 25 21 17 13 10 8 7 6 7 8 9 11 13 14 15 15 16 17 18 17 17 17 17 17
46 57 42 35 34 32 36 37 38 39 39 40 40 41 42 40 37 33 29 25 21 17 14 11 10 10 10 11 12 14 15 16 17 17 17 17 18 19 19 18 19 20 21
42 38 52 41 35 31 33 38 40 41 41 41 40 42 42 40 37 33 29 25 22 18 16 14 14 14 14 15 15 16 17 17 16 15 17 20 25 22 21 20 19 21 22
46 57 64 55 40 36 37 38 41 41 42 42 43 44 43 41 37 34 30 27 23 21 19 18 18 17 17 16 15 16 15 16 19 25 29 28 26 22 21 21 19 20 23
54 52 59 60 52 41 38 37 35 39 41 41 41 42 43 41 38 35 31 28 25 23 22 22 20 19 16 13 10 12 19 20 22 25 18 16 16 20 23 24 27 27 23
46 54 51 53 57 46 41 35 34 39 38 43 45 46 44 42 39 35 32 29 27 24 22 21 19 17 16 16 14 15 24 21 20 20 19 18 17 20 24 25 27 33 34
40 50 48 43 49 42 38 41 39 34 39 41 43 44 43 41 37 34 30 28 23 21 20 20 23 22 13 18 19 18 18 18 19 24 19 19 21 23 23 20 24 27 29
34 42 43 48 52 56 46 48 41 36 35 38 42 41 41 38 35 32 31 28 25 18 18 25 15 18 15 12 20 18 18 19 23 23 19 18 17 20 21 23 25 28 25
35 37 36 34 51 41 51 43 43 36 36 38 39 39 40 37 35 33 29 28 30 28 24 18 19 19 14 16 17 18 20 20 21 19 22 23 20 23 25 19 21 26 24

GFSSE_700_spd_117.txt.gz
Wind_Speed
11 16 14 13 14 15 16 16 16 15 14 15 15 14 12 11 11 9 6 5 9 11 10 10 11 12 13 13 13 13 13 14 13 12 10 9 9 8 8 9 9 9 10
18 11 16 13 15 16 17 16 16 16 14 16 17 15 13 11 10 8 6 5 9 10 9 11 13 13 12 12 12 12 12 12 11 11 10 9 9 9 9 10 10 10 11
27 20 15 17 18 18 19 18 17 16 15 16 18 16 14 11 10 8 6 7 10 8 10 12 12 12 11 11 10 11 12 12 11 11 11 10 10 10 10 11 11 11 11
26 25 19 19 19 20 20 19 18 18 16 15 18 18 14 12 12 10 7 9 9 9 11 11 11 10 11 11 11 11 12 12 12 11 11 11 11 11 11 11 11 11 11
22 24 24 20 21 22 22 22 20 19 18 16 17 20 17 14 13 12 10 11 10 11 12 11 10 11 12 13 12 13 13 13 13 12 11 11 10 10 10 11 11 10 10
17 21 22 22 23 25 24 22 21 20 18 18 17 19 18 16 15 12 14 13 12 12 11 10 11 12 13 14 13 13 12 12 12 11 10 10 10 10 11 11 11 11 11
25 19 23 25 25 26 25 23 22 20 19 18 18 21 20 18 17 14 15 14 14 12 11 12 14 15 14 14 13 12 12 12 12 11 11 10 11 11 11 11 11 11 11
33 24 25 29 29 28 27 24 22 20 19 19 21 22 21 20 17 17 16 15 14 13 13 14 16 15 14 13 13 12 12 11 12 12 12 11 11 11 12 12 12 12 12
24 27 27 33 32 31 29 26 23 21 20 22 23 23 23 22 19 19 18 17 15 15 15 16 15 14 13 13 12 11 11 11 12 12 11 11 11 11 12 13 15 15 15
39 26 31 35 34 34 31 28 25 24 25 25 26 24 24 22 23 21 20 17 16 17 17 15 14 13 13 12 12 11 11 11 10 10 10 10 10 10 12 13 14 14 15
53 30 34 38 37 36 33 30 28 27 29 29 27 25 26 26 25 24 21 19 20 20 18 17 15 14 13 11 11 10 10 9 8 8 8 9 9 11 12 13 14 15 15
63 46 36 40 40 38 36 32 30 30 32 31 29 28 28 28 27 25 23 24 23 21 20 18 15 14 12 11 10 9 8 8 7 6 6 7 8 10 11 12 13 14 14
41 64 42 43 44 42 40 35 34 34 33 34 32 32 32 31 31 28 27 26 25 23 20 17 15 13 11 10 9 8 7 6 5 5 5 6 7 8 9 11 12 12 14
49 64 56 46 49 46 43 38 38 37 36 36 35 35 35 34 31 29 29 28 26 23 20 17 14 12 10 9 7 6 5 4 4 4 5 6 7 8 10 11 12 13 13
45 60 56 44 49 47 44 42 40 41 37 38 38 38 38 35 32 31 31 28 25 23 20 17 14 12 9 7 5 3 2 2 4 5 6 8 10 10 11 12 13 14 15
42 44 68 46 50 50 46 42 39 41 39 40 40 38 35 34 33 34 33 30 27 23 20 17 13 10 7 5 3 1 2 4 5 7 9 10 11 13 14 14 14 14 14
23 48 50 54 46 49 44 44 42 42 43 39 40 39 38 36 35 36 35 32 27 24 20 16 13 11 8 5 3 3 5 7 9 11 12 13 14 14 15 16 16 16 15
55 39 54 46 43 44 44 45 44 41 41 41 41 40 39 39 40 38 35 31 28 23 20 16 13 10 8 7 5 6 7 10 12 13 14 16 17 16 16 17 17 17 16
36 38 48 35 46 45 44 43 41 40 40 41 42 41 41 41 40 39 35 31 28 24 20 16 14 12 10 8 8 9 11 13 14 15 16 17 16 16 17 19 19 18 18
39 33 56 59 40 44 41 42 40 40 41 42 42 41 41 41 42 40 36 32 29 24 21 18 15 13 11 10 11 12 14 16 17 16 17 19 23 24 23 21 17 18 20
44 45 39 51 48 45 42 44 43 43 44 43 43 42 43 44 43 40 37 33 29 25 22 18 15 13 13 13 14 16 15 18 16 17 20 24 20 20 19 19 18 20 18
38 47 45 54 54 41 41 41 40 41 43 43 43 42 44 44 43 42 38 33 29 25 22 19 17 16 16 16 17 17 16 16 18 21 24 18 19 17 19 20 20 21 25
33 43 40 50 48 44 38 38 39 41 43 45 46 44 45 47 46 42 38 34 30 27 23 20 19 18 16 17 20 20 21 20 19 17 18 21 21 21 20 19 22 22 24
37 45 42 51 45 46 41 39 40 41 43 43 44 45 46 47 45 42 39 34 30 26 23 21 18 16 16 15 21 21 22 22 18 22 21 22 21 18 20 21 22 22 21
36 43 45 56 53 54 45 39 34 32 35 38 42 44 44 45 44 43 38 35 31 28 25 20 20 13 3 19 20 21 22 21 22 25 25 22 20 21 20 20 22 22 18
35 51 40 51 48 53 44 40 34 35 37 41 41 41 43 44 44 41 38 35 32 29 27 21 17 17 20 23 24 19 20 22 23 24 24 22 22 20 20 18 19 19 20